     2.10           OBSERVATION DATA    G (GPS)             RINEX VERSION / TYPE
teqc 2005May6 SOPAC 20050707 00:33:39UTC                    PGM / RUN BY / DATE
Linux 2.4.20-8|Pentium IV|gcc|Linux|486/DX+                 COMMENT
BIT 2 OF LLI FLAGS DATA COLLECTED UNDER A/S CONDITION       COMMENT
HPGN D CA 02 KM                                             MARKER NAME
02KM                                                        MARKER NUMBER
Bob Dawson                                                  OBSERVER / AGENCY
0220240563 TRIMBLE 5700 2.01                                REC # / TYPE / VERS
11910056 TRM41249.00 NONE                                   ANT # / TYPE
 -2541200.0000 -4108065.0000  4152611.0000                  APPROX POSITION XYZ
        1.8000        0.0000        0.0000                  ANTENNA: DELTA H/E/N
     1     1                                                WAVELENGTH FACT L1/2
     6    L1    L2    C1    P2    P1    D1                  # / TYPES OF OBSERV
    15.0000                                                 INTERVAL
Northern California Height Modernization 2004               COMMENT
                                                            COMMENT
SOPAC - Scripps Orbit and Permanent Array Center            COMMENT
IGPP - Institute of Geophysics and Planetary Physics        COMMENT
SIO - Scripps Institution of Oceanography                   COMMENT
UCSD - University of California, San Diego                  COMMENT
                                                            COMMENT
email: archive@gpsmail.ucsd.edu                             COMMENT
ftp://garner.ucsd.edu                                       COMMENT
http://sopac.ucsd.edu                                       COMMENT
                                                            COMMENT
                                                            COMMENT
Approximate Lat, Lon : 40.875, -121.740                     COMMENT
                                                            COMMENT
SNR is mapped to RINEX snr flag value [0-9]                 COMMENT
L1 & L2: 2-19 dBHz = 1, 20-27 dBHz = 2, 28-31 dBHz = 3      COMMENT
32-35 dBHz = 4, 36-38 dBHz = 5, 39-41 dBHz = 6              COMMENT
42-44 dBHz = 7, 45-48 dBHz = 8, >= 49 dBHz = 9              COMMENT
  2004     9    10    14    55   30.0000000     GPS         TIME OF FIRST OBS
                                                            END OF HEADER
 04  9 10 14 55 30.0000000  0  7G 1G11G14G15G19G22G25
   -489521.58658   -360254.41054  22551571.9614   22551570.4414

   -404567.89859   -299234.79754  22024189.2114   22024184.8164

     86959.06659     60770.70756  20742891.4384   20742887.4884

    348295.28957    249766.02353  22888359.4224   22888359.0554

    197646.19157    139685.71553  23258839.1804   23258834.8594

    159350.27058    112768.53554  22503433.8674   22503429.0634

   -502270.37158   -370098.84054  22204713.5864   22204711.0594

 04  9 10 14 55 45.0000000  0  7G 1G11G14G15G19G22G25
   -544806.23448   -403333.35243  22541051.6954   22541049.5084
      3685.6434
   -450123.36749   -334732.59044  22015520.5164   22015516.2114
      3037.0314
     97804.28949     69221.51246  20744954.9384   20744951.1134
      -723.0154
    388734.40647    281276.98843  22896055.0864   22896053.6914
     -2695.9414
    220863.66448    157777.21543  23263257.8444   23263253.2074
     -1547.8324
    178204.76248    127460.30544  22507022.1724   22507017.2234
     -1256.9664
   -559062.09848   -414352.12144  22193906.7274   22193904.3634
      3786.1154
 04  9 10 14 56  0.0000000  0  7G 1G11G14G15G19G22G25
   -599949.98448   -446302.50443  22530558.0004   22530555.8444
      3676.2504
   -495502.05149   -370092.61344  22006885.2664   22006880.7584
      3025.2464
    108807.39149     77795.33646  20747049.1724   20747045.1374
      -733.5404
    429303.36348    312889.12143  22903774.9844   22903774.3984
     -2704.5974
    244224.19548    175980.20343  23267701.8674   23267698.6884
     -1557.3694
    197172.39548    142240.24644  22510630.9614   22510626.9264
     -1264.5094
   -615704.20348   -458488.81644  22183127.7034   22183125.3204
      3776.1404
 04  9 10 14 56 15.0000000  0  7G 1G11G14G15G19G22G25
   -654956.94548   -489165.07044  22520090.7734   22520088.5594
      3667.1314
   -540707.94949   -405318.00844  21998282.9064   21998278.5234
      3013.7274
    119963.88349     86488.68446  20749172.1334   20749168.4104
      -743.7664
    469997.66447    344598.89543  22911519.3754   22911517.8834
     -2712.9534
    267723.17648    194291.06643  23272174.5084   23272170.7774
     -1566.5994
    216248.97748    157105.07444  22514261.4224   22514257.0204
     -1271.7724
   -672200.62948   -502511.97744  22172376.7034   22172374.9144
      3766.4284
 04  9 10 14 56 30.0000000  0  7G 1G11G14G15G19G22G25
   -709832.07048   -531924.89844  22509648.3204   22509646.5784
      3658.3424
   -585745.84849   -440412.48444  21989712.3444   21989708.3674
      3002.5274
    131268.45349     95297.42246  20751323.5164   20751319.4494
      -753.6384
    510811.91847    376402.15643  22919285.9924   22919284.9694
     -2720.9504
    291355.11748    212705.54343  23276671.9534   23276667.3404
     -1575.4634
    235429.30148    172050.74644  22517911.5314   22517907.1684
     -1278.6884
   -728555.96148   -546425.22744  22161653.0634   22161650.6254
      3757.0224
 04  9 10 14 56 45.0000000  0  7G 1G11G14G15G19G22G25
   -764578.73848   -574584.63744  22499230.4844   22499228.6644
      3649.7784
   -630619.09049   -475378.66844  21981173.3364   21981169.4184
      2991.5494
    142717.33249    104218.59046  20753502.0084   20753497.9844
      -763.2594
    551742.29747    408295.89843  22927074.6024   22927073.9304
     -2728.6924
    315116.16448    231220.60243  23281192.8674   23281188.9574
     -1584.0704
    254709.83248    187074.49644  22521580.2894   22521576.2464
     -1285.3694
   -784773.65248   -590231.17644  22150955.0864   22150952.5434
      3747.8464
 04  9 10 14 57  0.0000000  0  7G 1G11G14G15G19G22G25
   -819201.20348   -617147.60244  22488836.5634   22488834.5434
      3641.4984
   -675331.63349   -510219.62144  21972664.4774   21972660.6414
      2980.8364
    154305.89849    113248.63346  20755707.0164   20755703.1604
      -772.5714
    592784.19547    440276.55143  22934884.2584   22934883.3054
     -2736.1274
    339001.63348    249832.62543  23285738.6884   23285734.5314
     -1592.3654
    274086.22348    202172.93444  22525267.5084   22525263.0514
     -1291.7594
   -840857.52748   -633932.91844  22140282.2504   22140280.5124
      3738.9254
 04  9 10 14 57 15.0000000  0  7G 1G11G14G15G19G22G25
   -873703.18048   -659616.66444  22478464.9694   22478463.2274
      3633.4654
   -719887.10549   -544938.17645  21964186.4694   21964182.3874
      2970.3654
    166030.07849    122384.34046  20757938.0634   20757934.2734
      -781.6124
    633933.44947    472340.84843  22942715.0704   22942714.3634
     -2743.2844
    363007.40648    268538.37543  23290307.0394   23290303.0784
     -1600.3854
    293554.75048    217343.16844  22528972.5704   22528968.0634
     -1297.9024
   -896811.09048   -677533.06244  22129635.0784   22129633.2034
      3730.2384
 04  9 10 14 57 30.0000000  0  7G 1G11G14G15G19G22G25
   -928088.78548   -701995.04744  22468115.6414   22468113.7504
      3625.7074
   -764289.47749   -579537.44144  21955736.6954   21955732.6094
      2960.1584
    177885.40649    131622.23046  20760194.1174   20760190.0984
      -790.3554
    675185.59447    504485.32842  22950565.2424   22950563.4454
     -2750.1434
    387128.62148    287334.10943  23294897.1564   23294893.5124
     -1608.0814
    313111.08648    232581.83644  22532694.1334   22532689.5004
     -1303.7564
   -952638.25448   -721034.74244  22119011.4924   22119008.9304
      3721.8114
 04  9 10 14 57 45.0000000  0  7G 1G11G14G15G19G22G25
   -982360.84448   -744284.95744  22457787.7114   22457785.3834
      3618.1374
   -808541.43749   -614019.50844  21947315.5234   21947311.9534
      2950.1314
    189868.74249    140959.87946  20762474.5864   20762470.8794
      -798.8894
    716537.38347    536707.43443  22958434.7974   22958432.5474
     -2756.7864
    411362.15648    306217.34843  23299508.3834   23299503.9144
     -1615.5694
    332752.27348    247886.60544  22536431.6094   22536427.4614
     -1309.4124
  -1008341.68448   -764439.99644  22108411.3984   22108409.1094
      3713.5624
 04  9 10 14 58  0.0000000  0  7G 1G11G14G15G19G22G25
  -1036521.47348   -786488.03944  22447481.2734   22447479.5904
      3610.7094
   -852644.94149   -648385.89144  21938923.4144   21938918.9064
      2940.2344
    201977.73449    150395.43446  20764778.7424   20764775.0474
      -807.2664
    757986.26647    569005.23842  22966321.2344   22966320.2154
     -2763.2594
    435705.37148    325186.05143  23304141.4064   23304136.7384
     -1622.8814
    352476.13748    263255.80544  22540184.8754   22540180.6954
     -1314.9244
  -1063923.25848   -807750.30544  22097834.3134   22097832.9064
      3705.4384
 04  9 10 14 58 15.0000000  0  7G 1G11G14G15G19G22G25
  -1090574.31248   -828607.13344  22437195.7974   22437193.0744
      3603.5234
   -896603.54349   -682639.37944  21930557.9774   21930553.5594
      2930.5734
    214208.24249    159925.67646  20767106.1094   20767102.4024
      -815.3674
    799528.34447    601375.64143  22974226.6174   22974225.3984
     -2769.4724
    460154.09448    344236.98843  23308793.4924   23308788.7544
     -1629.9154
    372278.81348    278686.41844  22543953.2894   22543948.9844
     -1320.1784
  -1119386.45748   -850968.36344  22087280.3284   22087277.2624
      3697.5474
 04  9 10 14 58 30.0000000  0  7G 1G11G14G15G19G22G25
  -1144522.18048   -870644.44544  22426929.5164   22426927.8014
      3596.5244
   -940419.85549   -716781.96144  21922220.4224   21922215.8134
      2921.0884
    226557.21549    169548.23446  20769456.4144   20769452.4574
      -823.2654
    841160.41447    633816.16042  22982149.1094   22982147.7154
     -2775.4714
    484705.13748    363367.64143  23313465.0704   23313460.7854
     -1636.7364
    392157.43448    294176.20344  22547736.0864   22547731.5434
     -1325.2414
  -1174733.79348   -894096.14544  22076747.8134   22076746.0634
      3689.8224
 04  9 10 14 58 45.0000000  0  7G 1G11G14G15G19G22G25
  -1198365.92648   -912600.60244  22416683.4454   22416681.6914
      3589.5834
   -984094.56249   -750814.21144  21913909.3444   21913905.1414
      2911.6474
    239023.37949    179262.10546  20771828.4844   20771824.7384
      -831.0784
    882881.26647    666325.86742  22990088.5394   22990086.9694
     -2781.3904
    509357.11748    382576.95343  23318156.4924   23318152.2854
     -1643.4654
    412111.08649    309724.47744  22551532.9534   22551528.6294
     -1330.2434
  -1229965.93748   -937134.16044  22066237.5474   22066235.2194
      3682.1434
 04  9 10 14 59  0.0000000  0  7G 1G11G14G15G19G22G25
  -1252108.55148   -954477.96944  22406456.2034   22406454.6024
      3582.8424
  -1027630.51649   -784738.35244  21905624.8834   21905620.9654
      2902.3974
    251603.32849    189064.64846  20774222.3364   20774218.4534
      -838.6634
    924687.50047    698902.12143  22998043.7664   22998042.8364
     -2787.0824
    534106.55548    401862.19143  23322865.5394   23322861.7154
     -1649.9624
    432136.59048    325328.72744  22555343.8914   22555339.8954
     -1335.0344
  -1285085.77348   -980084.67244  22055748.3754   22055746.4694
      3674.6564
 04  9 10 14 59 15.0000000  0  7G 1G11G14G15G19G22G25
  -1305752.04748   -996278.07044  22396248.3834   22396247.2854
      3576.2334
  -1071029.63749   -818555.86344  21897365.9224   21897362.3094
      2893.2754
    264294.82449    198954.10546  20776637.5084   20776633.5474
      -846.1004
    966576.69947    731542.98443  23006015.4384   23006014.3364
     -2792.6134
    558951.00848    421221.47343  23327593.5784   23327590.0744
     -1656.2974
    452231.80949    340987.30544  22559167.6334   22559164.3324
     -1339.6814
  -1340094.95348  -1022948.94944  22045280.9384   22045278.9384
      3667.2794
 04  9 10 14 59 30.0000000  0  7G 1G11G14G15G19G22G25
  -1359299.04348  -1038002.99244  22386058.4224   22386056.9344
      3569.8004
  -1114294.41849   -852268.68044  21889132.8594   21889129.2584
      2884.3194
    277094.84849    208928.12946  20779073.5554   20779069.4344
      -853.3354
   1008545.79347    764246.12542  23014001.9844   23014000.2704
     -2797.9404
    583887.37548    440652.38743  23332339.5314   23332334.8874
     -1662.4244
    472393.93848    356698.03144  22563004.7424   22563000.8364
     -1344.1424
  -1394995.95749  -1065728.93444  22034833.3284   22034831.6374
      3660.0674
 04  9 10 14 59 45.0000000  0  7G 1G11G14G15G19G22G25
  -1412750.22748  -1079653.24644  22375887.3594   22375885.8484
      3563.4124
  -1157425.22749   -885877.11345  21880925.3284   21880921.6604
      2875.3874
    290002.37149    218985.92246  20781529.2424   20781525.2344
      -860.5024
   1050593.69547    797010.67642  23022003.5084   23022002.7974
     -2803.1934
    608914.32048    460153.87543  23337101.3444   23337096.7074
     -1668.4634
    492622.25848    372460.32044  22566853.8134   22566849.3914
     -1348.5554
  -1449789.23448  -1108424.98044  22024406.4224   22024404.0164
      3652.8854
 04  9 10 15  0  0.0000000  0  7G 1G11G14G15G19G22G25
  -1466107.85948  -1121230.61344  22365733.4844   22365731.9884
      3557.1764
  -1200424.25849   -919382.86744  21872743.0704   21872739.2504
      2866.6024
    303014.75049    229125.41446  20784005.9224   20784002.2734
      -867.4924
   1092717.90647    829834.68443  23030019.8284   23030018.2504
     -2808.2814
    634029.12948    479723.82843  23341880.2344   23341876.3054
     -1674.3214
    512914.32448    388272.28544  22570715.5314   22570710.9884
     -1352.8044
  -1504476.75848  -1151038.62144  22013999.8984   22013998.1884
      3645.8354
 04  9 10 15  0 15.0000000  0  7G 1G11G14G15G19G22G25
  -1519373.12948  -1162736.01644  22355597.7734   22355596.0594
      3551.0184
  -1243292.63349   -952786.80945  21864584.9614   21864581.7344
      2857.8924
    316130.53149    239345.47746  20786501.7894   20786497.8834
      -874.3854
   1134916.76647    862716.85243  23038049.8444   23038048.4454
     -2813.2574
    659230.19947    499361.00043  23346675.9694   23346672.5744
     -1680.0714
    533268.86348    404132.93844  22574588.8444   22574584.6254
     -1356.9694
  -1559059.56249  -1193570.65644  22003612.8984   22003610.5354
      3638.8544
 04  9 10 15  0 30.0000000  0  7G 1G11G14G15G19G22G25
  -1572546.84848  -1204170.08244  22345479.6024   22345477.2704
      3544.9154
  -1286031.00049   -986089.44144  21856452.7974   21856448.5354
      2849.2244
    329348.56649    249645.22746  20789016.8364   20789012.9734
      -881.2024
   1177189.05948    895656.27343  23046093.4694   23046092.8164
     -2818.1534
    684516.18047    519064.32043  23351487.9304   23351484.5354
     -1685.7324
    553684.86748    420041.48044  22578473.8444   22578469.7544
     -1361.0674
  -1613538.25848  -1236021.55544  21993246.2344   21993244.0434
      3631.9134
 04  9 10 15  0 45.0000000  0  7G 1G11G14G15G19G22G25
  -1625630.21549  -1245533.73444  22335378.2344   22335375.4804
      3538.8914
  -1328640.31649  -1019291.52745  21848344.5864   21848340.3404
      2840.6214
    342667.25849    260023.40646  20791551.1174   20791547.5314
      -887.9134
   1219533.27747    928651.69942  23054151.5234   23054150.4614
     -2822.9484
    709885.41448    538832.52043  23356316.1334   23356311.9344
     -1691.2824
    574161.12948    435996.97344  22582370.1484   22582366.3714
     -1365.0844
  -1667913.85248  -1278392.14544  21982898.7664   21982896.1134
      3625.0404
 04  9 10 15  1  0.0000000  0  7G 1G11G14G15G19G22G25
  -1678625.54748  -1286828.78944  22325293.0394   22325291.1484
      3533.0224
  -1371122.87549  -1052394.84045  21840260.0234   21840256.2664
      2832.1714
    356083.93449    270477.93046  20794104.4844   20794100.7234
      -894.4454
   1261946.62147    961701.02342  23062222.0314   23062221.8404
     -2827.5564
    735335.14147    558663.46143  23361159.0394   23361155.0044
     -1696.6484
    594695.23448    451997.52044  22586278.0164   22586273.8284
     -1368.9404
  -1722188.55548  -1320684.09844  21972570.4614   21972568.5354
      3618.3144
 04  9 10 15  1 15.0000000  0  7G 1G11G14G15G19G22G25
  -1731533.59048  -1328055.84044  22315225.1484   22315223.1884
      3527.2034
  -1413479.30549  -1085399.84845  21832200.4224   21832196.4144
      2823.7624
    369597.62149    281008.05946  20796676.1484   20796672.5904
      -900.9124
   1304428.10547    994803.41842  23070306.5554   23070305.9384
     -2832.0994
    760864.19147    578556.18443  23366016.8444   23366012.5864
     -1701.9374
    615286.18848    468042.38744  22590196.0704   22590192.1954
     -1372.7304
  -1776362.78148  -1362897.76244  21962261.4774   21962259.1024
      3611.6154
 04  9 10 15  1 30.0000000  0  7G 1G11G14G15G19G22G25
  -1784355.70348  -1369215.91044  22305173.3364   22305171.7234
      3521.4744
  -1455710.72349  -1118307.45745  21824163.4064   21824159.5084
      2815.4284
    383206.47749    291612.34046  20799265.9694   20799261.8164
      -907.2574
   1346975.99647   1027957.55543  23078403.7974   23078402.5004
     -2836.5264
    786470.63747    598509.22343  23370889.1954   23370885.5594
     -1707.0964
    635932.60548    484130.45344  22594125.2034   22594121.1994
     -1376.4284
  -1830437.60548  -1405033.97744  21951971.2424   21951969.1294
      3604.9884
 04  9 10 15  1 45.0000000  0  7G 1G11G14G15G19G22G25
  -1837092.70748  -1410309.67244  22295138.0554   22295136.3754
      3515.8004
  -1497817.80549  -1151118.19944  21816150.6254   21816146.5474
      2807.1394
    396909.38749    302289.91446  20801873.2424   20801869.9344
      -913.5274
   1389588.96547   1061162.43443  23086512.4454   23086511.3874
     -2840.8654
    812153.11348    618521.50843  23375776.4454   23375772.8094
     -1712.1654
    656633.39148    500260.88344  22598064.4534   22598060.1254
     -1380.0524
  -1884413.77348  -1447093.30144  21941700.1334   21941697.9494
      3598.4114
 04  9 10 15  2  0.0000000  0  7G 1G11G14G15G19G22G25
  -1889744.75848  -1451337.23444  22285118.5004   22285116.7624
      3510.1374
  -1539800.54749  -1183832.03145  21808162.3054   21808158.4224
      2798.8494
    410705.91849    313040.43046  20804498.6334   20804495.2894
      -919.7694
   1432266.53147   1094417.62542  23094633.1884   23094632.6844
     -2845.1714
    837911.13347    638592.67243  23380678.0474   23380674.1454
     -1717.2014
    677388.48448    516433.64844  22602014.1884   22602009.5434
     -1383.6734
  -1938291.24648  -1489075.73444  21931447.5394   21931444.9694
      3591.8324
 04  9 10 15  2 15.0000000  0  7G 1G11G14G15G19G22G25
  -1942313.89148  -1492300.18744  22275115.1724   22275112.9104
      3504.6094
  -1581661.01649  -1216450.59444  21800196.1804   21800192.3954
      2790.6984
    424593.62149    323861.99646  20807141.4384   20807138.0204
      -925.8474
   1475006.31647   1127721.29342  23102766.8834   23102766.4494
     -2849.3194
    863742.14148    658720.71543  23385593.5634   23385589.2504
     -1722.0674
    698195.69148    532647.00044  22605973.7034   22605969.0594
     -1387.1474
  -1992071.73848  -1530982.59844  21921213.0164   21921211.2734
      3585.3664
 04  9 10 15  2 30.0000000  0  7G 1G11G14G15G19G22G25
  -1994800.37148  -1533198.73844  22265127.0084   22265124.9264
      3499.0994
  -1623399.21149  -1248973.86744  21792253.2814   21792249.5824
      2782.5464
    438571.89549    334754.13346  20809801.4304   20809797.9184
      -931.8854
   1517807.63347   1161072.92242  23110912.0084   23110910.6454
     -2853.4214
    889645.29748    678904.94943  23390523.4844   23390518.8244
     -1726.8774
    719054.54748    548900.59844  22609942.7504   22609938.6294
     -1390.5904
  -2045755.39148  -1572813.98844  21910997.6094   21910995.8554
      3578.9104
 04  9 10 15  2 45.0000000  0  7G 1G11G14G15G19G22G25
  -2047204.81648  -1574033.36744  22255154.7114   22255152.1804
      3493.6304
  -1665015.46549  -1281402.13345  21784334.3674   21784329.7034
      2774.4174
    452639.87949    345716.17646  20812478.3594   20812474.7584
      -937.8664
   1560669.53147   1194471.77342  23119068.0784   23119067.2114
     -2857.4604
    915619.57048    699144.60943  23395466.2974   23395461.7974
     -1731.6184
    739964.49648    565194.02344  22613922.3834   22613917.6414
     -1393.9974
  -2099342.30148  -1614570.01644  21900800.4614   21900798.1764
      3572.4614
 04  9 10 15  3  0.0000000  0  7G 1G11G14G15G19G22G25
  -2099528.51248  -1614805.07444  22245197.6644   22245195.8284
      3488.2464
  -1706510.93749  -1313736.27345  21776438.2034   21776434.0864
      2766.3654
    466795.85549    356746.78946  20815172.1954   20815168.9104
      -943.7324
   1603590.34847   1227916.51642  23127235.2194   23127234.4384
     -2861.3884
    941663.24248    719438.36343  23400421.9064   23400417.7154
     -1736.2454
    760923.94548    581526.01644  22617910.4454   22617906.1764
     -1397.2974
  -2152833.69948  -1656251.60944  21890621.5004   21890619.2624
      3566.0934
 04  9 10 15  3 14.9990000  0  7G 1G11G14G15G19G22G25
  -2151766.42248  -1655509.93044  22235257.0894   22235255.6634
      3482.5274
  -1747881.35549  -1345972.98045  21768565.7534   21768562.1794
      2758.0284
    481040.10249    367846.17246  20817882.9564   20817879.2574
      -949.6164
   1646568.34047   1261405.81342  23135413.9094   23135413.0814
     -2865.1994
    967775.57448    739785.60543  23405391.0894   23405386.6054
     -1740.8224
    781933.02748    597896.68444  22621908.6054   22621904.2804
     -1400.6054
  -2206224.41848  -1697854.74644  21880461.5344   21880459.3434
      3559.3814
 04  9 10 15  3 29.9990000  0  7G 1G11G14G15G19G22G25
  -2203926.96548  -1696154.49644  22225331.6124   22225329.4764
      3477.3704
  -1789133.49249  -1378117.51245  21760715.7304   21760711.8864
      2750.1424
    495372.69549    379014.41446  20820610.2694   20820606.8394
      -955.5064
   1689607.35248   1294942.64842  23143604.6904   23143602.2184
     -2869.2674
    993958.12948    760187.57443  23410372.9564   23410369.3044
     -1745.5044
    802993.03148    614307.03944  22625916.1054   22625911.7184
     -1404.0004
  -2259522.78948  -1739385.91844  21870319.0264   21870316.4834
      3553.2254
 04  9 10 15  3 44.9990000  0  7G 1G11G14G15G19G22G25
  -2256007.25448  -1736736.53144  22215420.9254   22215419.2724
      3472.0194
  -1830265.00449  -1410168.04745  21752888.5734   21752884.5264
      2742.1014
    509791.88349    390250.12146  20823354.0504   20823350.7884
      -961.2794
   1732703.56647   1328524.07842  23151805.4724   23151804.6054
     -2873.0814
   1020208.01247    780641.98443  23415368.0974   23415364.7374
     -1749.9924
    824101.80148    630755.39144  22629933.0114   22629928.8944
     -1407.2514
  -2312725.64149  -1780842.68044  21860195.2224   21860193.0264
      3546.8574
 04  9 10 15  3 59.9990000  0  7G 1G11G14G15G19G22G25
  -2308009.48048  -1777257.73844  22205525.4874   22205523.7024
      3466.8154
  -1871277.91449  -1442126.17645  21745083.9014   21745079.9524
      2734.1944
    524294.99249    401551.22346  20826114.0974   20826110.2694
      -966.8744
   1775854.48448   1362148.12542  23160016.9174   23160015.2144
     -2876.7284
   1046522.59048    801146.83643  23420375.5344   23420371.6364
     -1754.3054
    845257.03148    647239.94544  22633958.8004   22633954.4764
     -1410.3494
  -2365834.86748  -1822226.47344  21850088.5584   21850085.9804
      3540.6154
 04  9 10 15  4 14.9990000  0  7G 1G11G14G15G19G22G25
  -2359932.98848  -1817717.60944  22195644.3784   22195642.6514
      3461.5674
  -1912171.59049  -1473991.39145  21737302.1754   21737298.7374
      2726.2454
    538882.43049    412918.04746  20828890.2454   20828886.4404
      -972.4964
   1819060.36347   1395814.98443  23168238.4724   23168237.7414
     -2880.3924
   1072902.04348    821702.23843  23425396.2304   23425391.7884
     -1758.6304
    866459.15648    663761.03544  22637993.2614   22637989.0734
     -1413.4754
  -2418849.68448  -1863536.69945  21840000.0504   21839997.4954
      3534.3214
 04  9 10 15  4 29.9990000  0  7G 1G11G14G15G19G22G25
  -2411777.14548  -1858115.64544  22185778.6444   22185777.2614
      3456.2774
  -1952945.21549  -1505763.04745  21729543.4174   21729539.3434
      2718.2424
    553554.46949    424350.77746  20831681.7454   20831678.6554
      -978.1364
   1862321.36748   1429524.81642  23176470.7144   23176470.1944
     -2884.0674
   1099346.53548    842308.29743  23430427.4644   23430424.4604
     -1762.9664
    887708.69948    680319.06644  22642037.0654   22642033.4094
     -1416.6364
  -2471769.30948  -1904772.76645  21829929.6364   21829927.8784
      3527.9754
 04  9 10 15  4 44.9990000  0  7G 1G11G14G15G19G22G25
  -2463542.55548  -1898452.32044  22175928.1444   22175926.0384
      3451.0274
  -1993599.05149  -1537441.37145  21721806.9334   21721802.9014
      2710.2564
    568310.18849    435848.72346  20834489.9014   20834486.8824
      -983.7154
   1905636.59448   1463276.88742  23184713.2304   23184712.2184
     -2887.6824
   1125854.98048    862964.19943  23435472.2224   23435468.7694
     -1767.2304
    909005.01248    696913.56344  22646089.3554   22646085.6284
     -1419.7544
  -2524594.00448  -1945934.83245  21819877.9484   21819875.1164
      3521.6464
 04  9 10 15  4 59.9990000  0  7G 1G11G14G15G19G22G25
  -2515231.23048  -1938729.19944  22166092.2454   22166090.1514
      3445.9124
  -2034135.09449  -1569027.91445  21714093.2534   21714089.4374
      2702.4034
    583147.20749    447410.02046  20837313.1754   20837309.8514
      -989.1354
   1949003.71548   1497069.40242  23192965.7614   23192965.3514
     -2891.1414
   1152424.94547    883668.05143  23440527.6674   23440524.6124
     -1771.3314
    930346.05948    713542.89844  22650150.5734   22650146.9374
     -1422.7364
  -2577325.62148  -1987024.39145  21809843.1514   21809840.7264
      3515.4414
 04  9 10 15  5 14.9990000  0  7G 1G11G14G15G19G22G25
  -2566843.47748  -1978946.52744  22156270.5264   22156268.8904
      3440.8164
  -2074553.53949  -1600522.81644  21706401.9644   21706398.1324
      2694.5634
    598064.89849    459034.17246  20840152.0194   20840149.1164
      -994.5134
   1992422.02047   1530901.78542  23201228.1514   23201228.0934
     -2894.5544
   1179055.57047    904419.15243  23445595.9644   23445592.5544
     -1775.3754
    951731.31648    730206.68444  22654219.6444   22654216.3354
     -1425.6844
  -2629964.38348  -2028041.58644  21799826.6054   21799823.7804
      3509.2514
 04  9 10 15  5 29.9990000  0  7G 1G11G14G15G19G22G25
  -2618379.34048  -2019104.33644  22146464.0734   22146461.9094
      3435.7244
  -2114854.41849  -1631926.11745  21698732.7614   21698729.1364
      2686.7254
    613062.82449    470720.84846  20843006.0894   20843002.6834
      -999.8624
   2035890.96947   1564773.64842  23209499.3084   23209499.1014
     -2897.9304
   1205746.41847    925217.18442  23450674.9174   23450671.9564
     -1779.3904
    973160.65648    746904.83244  22658297.3864   22658294.1364
     -1428.6234
  -2682509.98448  -2068986.19945  21789826.9334   21789824.7334
      3503.0404
 04  9 10 15  5 44.9990000  0  7G 1G11G14G15G19G22G25
  -2669838.79349  -2059202.61744  22136671.1904   22136669.2694
      3430.6304
  -2155037.45749  -1663237.58244  21691086.5654   21691082.7694
      2678.8694
    628140.64849    482469.78146  20845875.2144   20845871.8274
     -1005.1884
   2079410.27047   1598684.75042  23217781.5504   23217780.8624
     -2901.2874
   1232496.90247    946061.67643  23455765.8474   23455762.2184
     -1783.3664
    994633.90648    763637.18444  22662384.3154   22662380.3004
     -1431.5504
  -2734962.25848  -2109858.08244  21779845.5114   21779843.1084
      3496.8184
 04  9 10 15  5 59.9990000  0  7G 1G11G14G15G19G22G25
  -2721221.68048  -2099241.22744  22126893.1904   22126891.5114
      3425.5264
  -2195102.28549  -1694456.94145  21683462.3084   21683458.5974
      2670.9894
    643298.24249    494280.87546  20848759.8624   20848756.0074
     -1010.5064
   2122979.68847   1632634.87542  23226072.9174   23226072.2304
     -2904.6284
   1259306.73047    966952.42642  23460867.8864   23460863.3084
     -1787.3224
   1016151.20348    780403.87544  22666478.7614   22666475.1284
     -1434.4864
  -2787320.75449  -2150656.89145  21769882.5114   21769879.7614
      3490.5664
 04  9 10 15  6 14.9990000  0  7G 1G11G14G15G19G22G25
  -2772528.59848  -2139220.63344  22117129.9014   22117128.4294
      3420.4614
  -2235049.36349  -1725584.54745  21675861.1204   21675856.9094
      2663.1394
    658534.66849    506153.39146  20851658.8944   20851655.7964
     -1015.7624
   2166598.22747   1666623.30542  23234372.5424   23234372.1944
     -2907.9034
   1286174.93047    987888.64143  23465980.4094   23465976.2224
     -1791.2134
   1037711.80148    797204.30944  22670581.9014   22670577.4604
     -1437.3734
  -2839585.78948  -2191382.87945  21759936.0504   21759933.6014
      3484.3364
 04  9 10 15  6 29.9990000  0  7G 1G11G14G15G19G22G25
  -2823760.12548  -2179141.30144  22107380.4644   22107379.1514
      3415.4354
  -2274879.03549  -1756620.66045  21668281.3944   21668277.8584
      2655.3114
    673849.11749    518086.71946  20854573.3704   20854569.8514
     -1020.9634
   2210265.02047   1700649.32042  23242681.9724   23242681.6874
     -2911.1204
   1313100.38347   1008869.50043  23471104.0264   23471099.9684
     -1795.0304
   1059315.04348    814037.94944  22674693.1674   22674688.9374
     -1440.2164
  -2891757.76249  -2232036.34845  21750008.6444   21750006.0114
      3478.1324
 04  9 10 15  6 44.9990000  0  7G 1G11G14G15G19G22G25
  -2874917.34448  -2219004.04344  22097645.8554   22097644.4374
      3410.4814
  -2314592.42649  -1787566.16445  21660724.2064   21660720.4404
      2647.5594
    689240.05149    530079.63746  20857502.1284   20857498.5504
     -1026.0624
   2253978.47747   1734711.72342  23251000.3474   23251000.8904
     -2914.2304
   1340081.44547   1029893.64843  23476239.1364   23476235.0584
     -1798.7374
   1080959.77348    830903.93044  22678812.2614   22678807.0654
     -1442.9824
  -2943837.59048  -2272618.02044  21740097.9014   21740095.8154
      3471.9894
 04  9 10 15  6 59.9990000  0  7G 1G11G14G15G19G22G25
  -2925999.73848  -2258808.50044  22087924.7144   22087923.1084
      3405.4934
  -2354188.78149  -1818420.46945  21653189.4484   21653185.3314
      2639.7574
    704707.76649    542132.37546  20860445.7144   20860441.8624
     -1031.1814
   2297738.96547   1768810.76642  23259328.1754   23259328.1634
     -2917.3664
   1367118.29347   1050961.28943  23481383.4094   23481379.7304
     -1802.4574
   1102646.35948    847802.53544  22682938.4954   22682934.3314
     -1445.7724
  -2995824.60549  -2313127.35244  21730205.3864   21730203.0114
      3465.8014
 04  9 10 15  7 14.9990000  0  7G 1G11G14G15G19G22G25
  -2977008.21148  -2298555.36344  22078218.7614   22078217.3354
      3400.5654
  -2393668.80549  -1849184.14145  21645676.5814   21645672.5504
      2632.0024
    720251.05149    554244.00446  20863403.4334   20863400.1834
     -1036.2194
   2341545.15247   1802945.40242  23267664.6594   23267663.3194
     -2920.4124
   1394209.47747   1072071.28943  23486538.5344   23486534.6324
     -1806.0794
   1124373.86348    864733.02344  22687072.9724   22687069.0154
     -1448.5004
  -3047719.46549  -2353564.90244  21720329.7374   21720326.9914
      3459.6574
 04  9 10 15  7 29.9990000  0  7G 1G11G14G15G19G22G25
  -3027941.78548  -2338243.86344  22068526.3554   22068524.6754
      3395.5724
  -2433031.52749  -1879856.40245  21638185.7764   21638182.5624
      2624.1824
    735870.40249    566414.90646  20866375.5424   20866372.5584
     -1041.2904
   2385397.52047   1837116.02342  23276009.6364   23276009.0974
     -2923.4914
   1421355.52347   1093224.05942  23491704.2304   23491700.1754
     -1809.7364
   1146143.11348    881696.02344  22691215.9094   22691211.6674
     -1451.2834
  -3099520.95748  -2393929.67244  21710472.3004   21710471.0154
      3453.4334
 04  9 10 15  7 44.9990000  0  7G 1G11G14G15G19G22G25
  -3078800.28547  -2377873.85544  22058848.4804   22058847.0894
      3390.5674
  -2472276.61749  -1910437.00845  21630717.9484   21630714.0194
      2616.3394
    751565.71149    578645.00846  20869362.4094   20869359.1084
     -1046.3544
   2429295.89847   1871322.52342  23284362.6594   23284361.8354
     -2926.5594
   1448556.18447   1114419.29343  23496880.9014   23496876.1634
     -1813.3774
   1167954.16048    898691.60244  22695366.4954   22695362.3314
     -1454.0704
  -3151228.59448  -2434221.32045  21700632.5504   21700630.3974
      3447.1764
 04  9 10 15  7 59.9990000  0  7G 1G11G14G15G19G22G25
  -3129584.98048  -2417446.32844  22049183.9094   22049183.0034
      3385.6464
  -2511405.09449  -1940926.73445  21623272.0424   21623267.7264
      2608.5654
    767335.52749    590933.15646  20872363.1834   20872359.7884
     -1051.3214
   2473238.69547   1905563.59442  23292724.8784   23292724.5194
     -2929.5204
   1475809.70748   1135655.78143  23502066.9954   23502062.9874
     -1816.9024
   1189805.67648    915718.70744  22699524.3944   22699520.7694
     -1456.7684
  -3202843.42248  -2474440.65244  21690810.7534   21690808.0854
      3440.9894
 04  9 10 15  8 14.9990000  0  7G 1G11G14G15G19G22G25
  -3180295.46148  -2456960.97344  22039534.3154   22039532.9684
      3380.6994
  -2550416.43749  -1971325.20745  21615848.3864   21615844.5854
      2600.7564
    783179.86349    603279.37946  20875378.3084   20875374.5504
     -1056.2894
   2517225.82447   1939839.23442  23301095.3394   23301095.1324
     -2932.4754
   1503116.01647   1156933.39843  23507263.4954   23507258.5504
     -1820.4214
   1211697.84848    932777.50444  22703690.2694   22703686.7574
     -1459.4784
  -3254364.97349  -2514587.28545  21681006.4724   21681004.5154
      3434.7704
 04  9 10 15  8 29.9990000  0  7G 1G11G14G15G19G22G25
  -3230932.71148  -2496418.57444  22029898.3554   22029896.7144
      3375.8174
  -2589311.53549  -2001633.07845  21608446.6834   21608443.2574
      2593.0074
    799097.35249    615682.60246  20878407.5264   20878403.8974
     -1061.1664
   2561255.93847   1974148.36742  23309474.4014   23309473.5934
     -2935.3414
   1530473.65647   1178251.01242  23512468.8624   23512464.7884
     -1823.8434
   1233629.61748    949867.14844  22707863.7144   22707860.2104
     -1462.1184
  -3305793.93749  -2554661.78545  21671220.1674   21671217.5154
      3428.5984
 04  9 10 15  8 44.9990000  0  7G 1G11G14G15G19G22G25
  -3281495.41048  -2535818.06244  22020276.3944   22020275.2614
      3370.8474
  -2628089.06249  -2031849.34045  21601067.9484   21601064.2454
      2585.1684
    815089.02749    628143.62946  20881450.6904   20881447.4094
     -1066.1124
   2605330.09447   2008491.82042  23317861.5584   23317859.8274
     -2938.2774
   1557883.42647   1199609.26242  23517685.2694   23517680.1404
     -1827.3184
   1255602.27048    966988.64543  22712045.0734   22712041.6364
     -1464.8434
  -3357128.85948  -2594663.02344  21661450.9644   21661448.4644
      3422.3284
 04  9 10 15  8 59.9990000  0  7G 1G11G14G15G19G22G25
  -3331984.82847  -2575160.46544  22010669.0034   22010667.4374
      3365.9614
  -2666749.91049  -2061974.68045  21593710.6594   21593706.9054
      2577.3904
    831153.27749    640661.21146  20884507.2374   20884503.9054
     -1070.9504
   2649446.48847   2042868.20342  23326255.9564   23326255.6674
     -2941.0934
   1585343.55547   1221006.73042  23522909.9804   23522906.6124
     -1830.6754
   1277614.44148    984140.93844  22716234.2304   22716230.1474
     -1467.4784
  -3408370.85548  -2634591.83645  21651699.9874   21651698.1554
      3416.1334
 04  9 10 15  9 14.9990000  0  7G 1G11G14G15G19G22G25
  -3382402.27048  -2614446.78544  22001074.6984   22001072.9834
      3361.1634
  -2705295.34448  -2092010.09445  21586375.5894   21586372.1014
      2569.6964
    847288.48049    653234.07446  20887577.6904   20887574.5344
     -1075.6804
   2693603.59047   2077276.27742  23334658.8154   23334658.7724
     -2943.8074
   1612852.27047   1242442.06642  23528145.2764   23528141.0934
     -1833.9144
   1299664.60247   1001322.83644  22720429.8234   22720426.1984
     -1470.0114
  -3459521.10548  -2674449.14844  21641966.5424   21641963.7724
      3410.0174
 04  9 10 15  9 29.9990000  0  7G 1G11G14G15G19G22G25
  -3432746.40648  -2653675.97344  21991494.5974   21991492.5774
      3356.2764
  -2743723.83649  -2121954.39145  21579063.3004   21579059.5344
      2561.8994
    863495.68849    665863.04746  20890661.8394   20890658.4134
     -1080.4804
   2737802.42248   2111716.87942  23343070.0264   23343069.3584
     -2946.5894
   1640410.54348   1263916.00043  23533389.8234   23533385.7104
     -1837.2184
   1321754.19548   1018535.45743  22724633.5894   22724630.0114
     -1472.6404
  -3510577.85948  -2714233.62145  21632250.0974   21632248.0424
      3403.7844
 04  9 10 15  9 44.9990000  0  7G 1G11G14G15G19G22G25
  -3483018.03949  -2692848.68444  21981928.4804   21981926.6084
      3351.4424
  -2782036.24649  -2151808.21945  21571772.2534   21571768.7804
      2554.1614
    879773.63749    678547.14846  20893759.7614   20893756.1944
     -1085.1974
   2782041.68447   2146189.00442  23351488.1984   23351487.6634
     -2949.2844
   1668017.02047   1285427.53142  23538642.7304   23538638.4214
     -1840.4324
   1343882.05148   1035777.89143  22728844.6284   22728840.8624
     -1475.1904
  -3561541.82849  -2753945.79345  21622552.7064   21622550.4724
      3397.5984
 04  9 10 15  9 59.9990000  0  7G 1G11G14G15G19G22G25
  -3533217.10248  -2731964.83244  21972375.5424   21972374.0074
      3346.6044
  -2820232.26649  -2181571.36745  21564504.0654   21564500.0304
      2546.4014
    896122.09049    691286.18046  20896870.8234   20896866.9724
     -1089.8974
   2826321.12147   2180692.38342  23359914.8314   23359914.1984
     -2951.9624
   1695671.31347   1306976.30143  23543905.4404   23543901.0774
     -1843.6204
   1366048.24648   1053050.20743  22733062.6284   22733058.9374
     -1477.7464
  -3612412.77349  -2793585.48045  21612872.5814   21612869.5654
      3391.3964
 04  9 10 15 10 14.9990000  0  7G 1G11G14G15G19G22G25
  -3583343.40649  -2771024.28944  21962836.4874   21962834.9054
      3341.7544
  -2858311.52349  -2211243.53945  21557257.5814   21557253.7844
      2538.6174
    912540.98049    704080.10546  20899995.4254   20899991.8864
     -1094.5934
   2870640.51647   2215226.95742  23368348.2614   23368347.6204
     -2954.6264
   1723373.05547   1328562.04742  23549177.1594   23549173.1084
     -1846.7834
   1388252.93848   1070352.50443  22737287.8394   22737283.7304
     -1480.3134
  -3663190.20349  -2833152.30145  21603209.5504   21603206.9094
      3385.1624
 04  9 10 15 10 29.9990000  0  7G 1G11G14G15G19G22G25
  -3633397.06648  -2810027.14144  21953312.1444   21953310.5734
      3336.9114
  -2896274.03149  -2240824.71545  21550033.7534   21550029.4804
      2530.8344
    929029.93049    716928.61746  20903132.6674   20903129.4684
     -1099.2634
   2914999.35247   2249792.23442  23376789.4334   23376789.1754
     -2957.2564
   1751121.82448   1350184.43843  23554457.1444   23554452.7614
     -1849.9184
   1410495.85948   1087684.61343  22741520.8864   22741516.7414
     -1482.8614
  -3713874.13348  -2872646.25445  21593564.8004   21593562.6324
      3378.9294
 04  9 10 15 10 44.9990000  0  7G 1G11G14G15G19G22G25
  -3683378.89547  -2848974.00044  21943800.7144   21943799.2264
      3332.1224
  -2934120.47749  -2270315.46945  21542831.9874   21542828.1594
      2523.0964
    945587.76249    729830.80146  20906283.6674   20906280.3744
     -1103.8554
   2959396.64147   2284387.49242  23385238.0734   23385237.5074
     -2959.8194
   1778916.37547   1371842.49242  23559746.7304   23559742.4404
     -1852.9704
   1432776.24248   1105045.91443  22745760.8394   22745756.5264
     -1485.3594
  -3764465.05947  -2912067.74245  21583937.4724   21583935.7264
      3372.7284
 04  9 10 15 10 59.9990000  0  7G 1G11G14G15G19G22G25
  -3733288.32847  -2887864.46544  21934303.4874   21934301.8784
      3327.2964
  -2971850.01249  -2299715.11745  21535652.0584   21535648.1944
      2515.3024
    962214.78549    742786.91046  20909448.0034   20909444.3974
     -1108.4684
   3003832.51647   2319012.79742  23393694.0344   23393693.9564
     -2962.3924
   1806756.60548   1393536.15243  23565044.4874   23565040.6594
     -1856.0154
   1455094.46548   1122436.68844  22750008.1594   22750003.9094
     -1487.8824
  -3814962.15647  -2951416.11745  21574328.5114   21574325.8864
      3366.4734
 04  9 10 15 11 14.9990000  0  7G 1G11G14G15G19G22G25
  -3783125.31247  -2926698.47344  21924820.0974   21924818.1364
      3322.4664
  -3009462.54749  -2329023.59445  21528494.5814   21528491.1084
      2507.5024
    978910.73449    755796.71946  20912624.7924   20912621.4994
     -1113.0634
   3048306.67647   2353667.94942  23402156.7374   23402156.4524
     -2964.9444
   1834642.27047   1415265.20343  23570350.9954   23570347.3554
     -1859.0444
   1477450.41848   1139856.88344  22754262.0584   22754258.3354
     -1490.3974
  -3865365.08247  -2990691.10945  21564736.9484   21564734.3584
      3360.1954
 04  9 10 15 11 29.9990000  0  7G 1G11G14G15G19G22G25
  -3832889.91847  -2965476.09044  21915349.6364   21915347.7104
      3317.6404
  -3046958.02749  -2358240.86345  21521359.6674   21521355.6984
      2499.6994
    995675.11749    768859.85945  20915815.1594   20915811.6754
     -1117.6264
   3092818.62947   2388352.53942  23410627.8944   23410627.3974
     -2967.4644
   1862572.67247   1437029.11743  23575666.1984   23575662.1904
     -1862.0274
   1499843.90248   1157306.31643  22758522.9724   22758519.6984
     -1492.8994
  -3915673.85947  -3029892.75045  21555163.4334   21555161.2414
      3353.9184
 04  9 10 15 11 44.9990000  0  7G 1G11G14G15G19G22G25
  -3882581.91048  -3004197.10544  21905893.1754   21905891.6204
      3312.7994
  -3084336.06649  -2387366.62545  21514246.6124   21514243.2024
      2491.8694
   1012507.93049    781976.32046  20919018.1984   20919014.5154
     -1122.1874
   3137368.26247   2423066.48442  23419105.2694   23419104.7764
     -2969.9764
   1890547.61747   1458827.73843  23580989.4484   23580985.9994
     -1864.9964
   1522275.18448   1174785.18843  22762792.0974   22762787.9524
     -1495.4194
  -3965888.05548  -3069020.67245  21545608.3784   21545605.7414
      3347.6134
 04  9 10 15 11 59.9990000  0  7G 1G11G14G15G19G22G25
  -3932202.24248  -3042862.30144  21896451.2304   21896449.5304
      3308.0224
  -3121597.48849  -2416401.50045  21507156.0264   21507152.5224
      2484.0954
   1029407.90649    795145.11746  20922234.3784   20922230.7724
     -1126.6654
   3181954.38346   2457808.87142  23427588.2454   23427589.8194
     -2972.4084
   1918565.66848   1480659.96943  23586321.2224   23586317.3554
     -1867.8704
   1544743.09848   1192292.61343  22767066.8554   22767063.4604
     -1497.8614
  -4016008.33649  -3108075.44145  21536070.5654   21536067.9644
      3341.3524
 04  9 10 15 12 14.9990000  0  7G 1G11G14G15G19G22G25
  -3981751.32448  -3081471.95744  21887022.5344   21887020.5854
      3303.2724
  -3158742.60949  -2445345.76645  21500088.1674   21500083.9404
      2476.3414
   1046374.25449    808365.62946  20925462.7224   20925459.2884
     -1131.0904
   3226575.98447   2492578.90242  23436080.5114   23436080.7494
     -2974.7734
   1946626.05947   1502525.16842  23591660.9874   23591656.7844
     -1870.6934
   1567247.14148   1209828.17644  22771349.8234   22771345.4444
     -1500.2704
  -4066035.00049  -3147057.23445  21526550.7454   21526548.8514
      3335.1114
 04  9 10 15 12 29.9990000  0  7G 1G11G14G15G19G22G25
  -4031227.69148  -3120024.96944  21877606.9014   21877605.8044
      3298.4244
  -3195769.76248  -2474198.09845  21493041.7844   21493038.0344
      2468.4774
   1063408.18449    821638.80146  20928704.0894   20928700.4334
     -1135.5954
   3271234.25047   2527377.50442  23444578.6054   23444578.1674
     -2977.2184
   1974729.75847   1524424.12543  23597008.5814   23597005.4604
     -1873.5804
   1589788.77747   1227393.02344  22775639.2614   22775635.6444
     -1502.7764
  -4115966.22349  -3185964.66845  21517049.5034   21517046.6874
      3328.7484
 04  9 10 15 12 44.9990000  0  7G 1G11G14G15G19G22G25
  -4080631.57449  -3158521.48844  21868206.3154   21868204.7534
      3293.5924
  -3232678.96949  -2502958.52745  21486018.4254   21486014.3004
      2460.6144
   1080509.18849    834964.25046  20931958.4014   20931955.2024
     -1140.0674
   3315928.57047   2562204.20342  23453083.9254   23453083.3084
     -2979.6214
   2002876.16847   1546356.35542  23602364.0654   23602361.1164
     -1876.4274
   1612367.66048   1244986.91043  22779935.7844   22779932.5034
     -1505.2594
  -4165801.93749  -3224797.69545  21507565.8234   21507563.4684
      3322.3814
 04  9 10 15 12 59.9990000  0  7G 1G11G14G15G19G22G25
  -4129964.40648  -3196962.64144  21858818.2374   21858816.8434
      3288.8554
  -3269471.67649  -2531628.18445  21479016.3004   21479012.9054
      2452.8474
   1097675.50049    848340.57446  20935225.2694   20935222.1714
     -1144.4214
   3360657.23047   2597057.64142  23461595.8944   23461594.9054
     -2981.9114
   2031063.31347   1568320.34042  23607728.2304   23607724.6014
     -1879.1434
   1634982.25848   1262608.61743  22784239.3084   22784236.1054
     -1507.6404
  -4215543.55949  -3263557.36745  21498100.2304   21498097.9604
      3316.1084
 04  9 10 15 13 14.9990000  0  7G 1G11G14G15G19G22G25
  -4179225.87148  -3235348.18744  21849443.8234   21849442.1124
      3284.0984
  -3306147.37149  -2560206.64845  21472037.3314   21472033.8744
      2445.0464
   1114907.15249    861767.82046  20938504.3554   20938500.8514
     -1148.7774
   3405420.11747   2631937.77742  23470113.6904   23470114.1084
     -2984.1924
   2059291.05147   1590315.95342  23613100.2144   23613096.0544
     -1881.8494
   1657632.77748   1280258.32843  22788549.7694   22788546.7104
     -1510.0354
  -4265190.45749  -3302243.26645  21488652.5584   21488649.7024
      3309.7934
 04  9 10 15 13 29.9990000  0  7G 1G11G14G15G19G22G25
  -4228415.69148  -3273677.91044  21840083.8944   21840081.6444
      3279.3214
  -3342705.66449  -2588693.64145  21465080.4404   21465077.3744
      2437.2204
   1132204.00849    875245.86745  20941795.8394   20941792.4724
     -1153.1244
   3450217.19547   2666844.53942  23478638.4174   23478638.8784
     -2986.4724
   2087559.24647   1612343.07443  23618479.2374   23618475.7104
     -1884.5464
   1680319.42248   1297936.17643  22792866.5114   22792863.1874
     -1512.4434
  -4314742.26249  -3340855.03945  21479223.2844   21479220.9404
      3303.4544
 04  9 10 15 13 44.9990000  0  7G 1G11G14G15G19G22G25
  -4277534.48848  -3311952.28544  21830736.6674   21830734.2024
      3274.5864
  -3379147.09049  -2617089.55145  21458146.1674   21458142.6984
      2429.4284
   1149565.13749    888774.00846  20945099.3864   20945096.0264
     -1157.4094
   3495047.38747   2701777.11342  23487168.8154   23487169.5694
     -2988.6794
   2115866.65647   1634400.76642  23623866.5504   23623862.3084
     -1887.1614
   1703041.52048   1315641.64843  22797190.5504   22797187.0114
     -1514.8074
  -4364199.37149  -3379393.03945  21469812.1514   21469809.2024
      3297.1414
 04  9 10 15 13 59.9990000  0  7G 1G11G14G15G19G22G25
  -4326581.41448  -3350170.66044  21821403.0814   21821401.8394
      3269.7954
  -3415470.51249  -2645393.53145  21451234.2764   21451230.4014
      2421.5614
   1166991.14549    902352.69146  20948415.8234   20948411.9374
     -1161.7344
   3539911.20747   2736735.87142  23495706.5974   23495706.5074
     -2990.9214
   2144213.73847   1656489.37542  23629260.3554   23629256.4484
     -1889.8054
   1725799.68448   1333375.25043  22801521.4874   22801517.9764
     -1517.2114
  -4413560.81249  -3417856.47745  21460418.8314   21460416.0654
      3290.7634
 04  9 10 15 14 14.9990000  0  7G 1G11G14G15G19G22G25
  -4375556.57449  -3388333.10244  21812083.4404   21812082.0694
      3265.0114
  -3451675.96949  -2673605.58645  21444344.4014   21444340.3124
      2413.6974
   1184481.55949    915981.56646  20951743.7304   20951740.3584
     -1166.0284
   3584808.17647   2771720.48842  23504249.9804   23504249.9524
     -2993.1314
   2172600.05947   1678608.53542  23634662.2764   23634658.8394
     -1892.4214
   1748593.84048   1351136.88343  22805858.9564   22805855.2764
     -1519.6104
  -4462826.37149  -3456245.23445  21451043.5894   21451041.5774
      3284.3714
 04  9 10 15 14 29.9990000  0  7G 1G11G14G15G19G22G25
  -4424458.74249  -3426438.68444  21802778.1124   21802775.8154
      3260.1454
  -3487762.10249  -2701724.66845  21437477.5264   21437474.1834
      2405.7424
   1202037.24249    929661.30946  20955084.6444   20955080.9804
     -1170.3794
   3629739.20747   2806731.60242  23512800.3864   23512800.6554
     -2995.4024
   2201026.19547   1700758.76642  23640072.1284   23640068.2924
     -1895.0764
   1771425.10548   1368927.42643  22810203.7064   22810200.0464
     -1522.0844
  -4511994.66849  -3494558.16045  21441687.3154   21441684.7414
      3277.8864
 04  9 10 15 14 44.9990000  0  7G 1G11G14G15G19G22G25
  -4473289.89548  -3464488.93444  21793485.5814   21793483.9134
      3255.4104
  -3523730.75049  -2729752.19945  21430633.3154   21430629.3944
      2397.9104
   1219656.10249    943390.26246  20958437.6594   20958434.2304
     -1174.5914
   3674701.96546   2841767.48442  23521355.9874   23521356.6364
     -2997.5174
   2229489.88747   1722938.23043  23645487.9644   23645484.1984
     -1897.5794
   1794291.44148   1386745.30143  22814555.6984   22814551.4374
     -1524.4224
  -4561067.36749  -3532796.62145  21432349.3554   21432346.4834
      3271.5134
 04  9 10 15 14 59.9990000  0  7G 1G11G14G15G19G22G25
  -4522050.17248  -3502483.93044  21784206.6284   21784204.9134
      3250.6854
  -3559581.95349  -2757688.19945  21423811.0654   21423806.7224
      2390.0804
   1237337.66049    957168.07846  20961802.0264   20961798.6244
     -1178.7714
   3719695.93047   2876827.65242  23529918.2764   23529919.8124
     -2999.5984
   2257990.41046   1745146.39842  23650911.2304   23650908.2144
     -1900.0354
   1817192.46948   1404590.20343  22818913.7224   22818909.2374
     -1526.7354
  -4610044.59449  -3570960.68045  21423029.0584   21423026.3664
      3265.1484
 04  9 10 15 15 14.9990000  0  7G 1G11G14G15G19G22G25
  -4570738.43748  -3540422.82844  21774941.4094   21774940.2264
      3245.8844
  -3595314.40249  -2785531.67645  21417011.2064   21417007.3864
      2382.1634
   1255082.78949    970995.43445  20965179.0034   20965175.5774
     -1183.0094
   3764721.96547   2911912.82842  23538486.5654   23538486.8194
     -3001.7364
   2286528.46147   1767383.80142  23656342.3314   23656338.5974
     -1902.5374
   1840129.34048   1422463.04343  22823278.3864   22823274.2264
     -1529.1254
  -4658924.84849  -3609049.18445  21413727.3234   21413725.2804
      3258.6844
 04  9 10 15 15 29.9990000  0  7G 1G11G14G15G19G22G25
  -4619354.74648  -3578305.66444  21765690.0424   21765688.6794
      3241.0874
  -3630927.99649  -2813282.53945  21410233.8154   21410230.1164
      2374.2404
   1272891.07449    984872.00046  20968567.9644   20968564.2024
     -1187.2194
   3809779.62947   2947022.62942  23547061.9254   23547061.0544
     -3003.8444
   2315103.48047   1789650.03142  23661779.7694   23661776.5264
     -1905.0014
   1863101.95748   1440363.73443  22827650.1124   22827645.7534
     -1531.5084
  -4707707.85549  -3647061.90645  21404444.3474   21404441.6944
      3252.2014
 04  9 10 15 15 44.9990000  0  7G 1G11G14G15G19G22G25
  -4667900.37949  -3616133.43444  21756452.4094   21756450.4804
      3236.3764
  -3666423.95749  -2840941.73045  21403479.2844   21403475.2694
      2366.3974
   1290760.78149    998796.42245  20971968.2924   20971964.8314
     -1191.3144
   3854867.17247   2982155.73042  23555640.8784   23555641.6444
     -3005.8364
   2343713.83247   1811943.78542  23667224.4644   23667221.4374
     -1907.3574
   1886108.79348   1458291.09443  22832027.4724   22832024.2964
     -1533.7894
  -4756394.86349  -3684999.83245  21395179.4644   21395176.6754
      3245.8014
 04  9 10 15 15 59.9990000  0  7G 1G11G14G15G19G22G25
  -4716374.60549  -3653905.57044  21747228.3944   21747226.1714
      3231.6154
  -3701801.46549  -2868508.63345  21396747.4014   21396743.1874
      2358.5014
   1308692.45349   1012769.12945  20975380.9014   20975376.7614
     -1195.4454
   3899985.06647   3017312.49242  23564226.6674   23564227.0034
     -3007.8604
   2372359.87147   1834265.30542  23672675.4804   23672671.8314
     -1909.7364
   1909150.59448   1476245.69543  22836412.5344   22836409.0814
     -1536.1204
  -4804984.89549  -3722862.18045  21385933.1674   21385930.8624
      3239.3354
 04  9 10 15 16 14.9990000  0  7G 1G11G14G15G19G22G25
  -4764777.32849  -3691621.97744  21738017.1834   21738015.3744
      3226.8484
  -3737060.28149  -2895983.03145  21390037.6834   21390033.5654
      2350.5884
   1326685.90649   1026789.98445  20978804.5974   20978801.2064
     -1199.5644
   3945133.02347   3052492.62142  23572817.6984   23572818.0224
     -3009.8644
   2401041.05546   1856614.25442  23678132.9724   23678129.4174
     -1912.0794
   1932227.40648   1494227.57843  22840804.1124   22840800.6204
     -1538.4544
  -4853477.62949  -3760648.71145  21376705.4404   21376703.0344
      3232.8494
 04  9 10 15 16 29.9990000  0  7G 1G11G14G15G19G22G25
  -4813109.53149  -3729283.43044  21728820.0654   21728818.5344
      3222.1474
  -3772201.28149  -2923365.63745  21383350.6204   21383346.4134
      2342.7334
   1344739.82049   1040857.94546  20982240.4404   20982236.6124
     -1203.5944
   3990309.57047   3087695.11742  23581414.4174   23581414.8004
     -3011.7704
   2429755.90247   1878989.44542  23683598.5194   23683593.9334
     -1914.3234
   1955338.05148   1512235.82043  22845201.4564   22845198.0424
     -1540.7104
  -4901873.91049  -3798360.10945  21367495.5424   21367493.2374
      3226.4194
 04  9 10 15 16 44.9990000  0  7G 1G11G14G15G19G22G25
  -4861370.16449  -3766889.12144  21719636.8944   21719634.6634
      3217.3764
  -3807223.14149  -2950655.41445  21376686.0504   21376682.1164
      2334.7914
   1362854.87949   1054973.55945  20985687.0034   20985683.8704
     -1207.6714
   4035515.59047   3122920.50442  23590017.1904   23590017.9804
     -3013.7354
   2458505.18047   1901391.43842  23689068.6904   23689064.8864
     -1916.6184
   1978483.60948   1530271.28143  22849606.4874   22849603.1054
     -1543.0374
  -4950172.40649  -3835995.28145  21358304.8394   21358302.3434
      3219.9004
 04  9 10 15 16 59.9990000  0  7G 1G11G14G15G19G22G25
  -4909559.75049  -3804439.44145  21710466.3474   21710464.8704
      3212.6394
  -3842126.30149  -2977852.69945  21370044.6124   21370040.5114
      2326.8774
   1381030.31349   1069136.21945  20989145.9954   20989142.9684
     -1211.6964
   4080750.16446   3158168.17642  23598624.9334   23598625.9094
     -3015.6384
   2487287.82847   1923819.42642  23694545.9564   23694541.6874
     -1918.8434
   2001663.46148   1548333.46143  22854017.4564   22854013.7184
     -1545.3234
  -4998373.50449  -3873554.56645  21349132.8234   21349129.8664
      3213.4074
 04  9 10 15 17 14.9990000  0  7G 1G11G14G15G19G22G25
  -4957677.83649  -3841934.04744  21701309.8314   21701307.9444
      3207.8724
  -3876910.23049  -3004957.07445  21363425.3394   21363421.7064
      2318.9294
   1399266.19149   1083345.96946  20992616.0734   20992612.8394
     -1215.7254
   4126013.29347   3193438.10542  23607239.1514   23607238.8004
     -3017.5424
   2516103.83247   1946273.42243  23700029.3624   23700025.8434
     -1921.0674
   2024877.78948   1566422.50843  22858435.0194   22858431.4334
     -1547.6224
  -5046476.62948  -3911037.52345  21339978.4724   21339976.2224
      3206.8754
 04  9 10 15 17 29.9990000  0  7G 1G11G14G15G19G22G25
  -5005725.18749  -3879373.54344  21692166.4804   21692165.2224
      3203.1574
  -3911575.59449  -3031969.04745  21356828.7614   21356824.8274
      2311.0244
   1417561.62549   1097602.12546  20996097.7304   20996094.3434
     -1219.6964
   4171303.88347   3228729.42242  23615857.6754   23615856.8974
     -3019.3734
   2544952.01247   1968752.48042  23705519.2764   23705515.4174
     -1923.2124
   2048125.86348   1584537.84043  22862858.4644   22862855.5624
     -1549.8724
  -5094482.23449  -3948444.46945  21330843.3474   21330841.3904
      3200.3744
 04  9 10 15 17 44.9990000  0  7G 1G11G14G15G19G22G25
  -5053700.44549  -3916756.85544  21683037.2764   21683035.2414
      3198.3514
  -3946120.88349  -3058887.45345  21350254.5424   21350251.7884
      2303.0194
   1435917.59449   1111905.45346  20999590.9724   20999587.4334
     -1223.7314
   4216622.98047   3264042.92242  23624481.4014   23624481.2304
     -3021.2734
   2573833.17247   1991257.25042  23711014.8944   23711011.3434
     -1925.4114
   2071409.05148   1602680.53143  22867289.1514   22867285.7694
     -1552.2124
  -5142388.87549  -3985774.32045  21321727.2764   21321724.4874
      3193.7764
 04  9 10 15 17 59.9990000  0  7G 1G11G14G15G19G22G25
  -5101604.38349  -3954084.60244  21673920.8084   21673919.3194
      3193.5964
  -3980546.60249  -3085712.69945  21343703.8154   21343699.9134
      2295.0484
   1454333.03949   1126255.12945  21003095.4174   21003091.8944
     -1227.6964
   4261969.37547   3299377.75442  23633109.9954   23633110.0654
     -3023.0934
   2602746.21147   2013786.85942  23716516.8624   23716512.9524
     -1927.5364
   2094726.40248   1620849.85243  22871726.7924   22871722.9834
     -1554.4904
  -5190197.18449  -4023027.51645  21312629.5894   21312627.4724
      3187.2214
 04  9 10 15 18 14.9990000  0  7G 1G11G14G15G19G22G25
  -5149436.57449  -3991356.42644  21664819.2844   21664816.9724
      3188.8134
  -4014852.36349  -3112444.45745  21337175.3314   21337171.6514
      2287.0514
   1472808.02749   1140651.21145  21006610.5194   21006607.5654
     -1231.6664
   4307343.19146   3334733.91442  23641744.2924   23641744.3004
     -3024.9214
   2631691.10547   2036341.26242  23722024.7694   23722021.6014
     -1929.6604
   2118078.14848   1639045.98843  22876170.3154   22876166.8974
     -1556.7834
  -5237906.31649  -4060203.46945  21303550.5114   21303548.0344
      3180.6094
 04  9 10 15 18 29.9990000  0  7G 1G11G14G15G19G22G25
  -5197197.41448  -4028572.66844  21655730.8554   21655728.7694
      3184.0564
  -4049038.46549  -3139082.98845  21330669.7614   21330666.7844
      2279.0734
   1491341.83649   1155093.11746  21010137.8004   21010134.0224
     -1235.5874
   4352743.71146   3370110.87142  23650383.6594   23650383.7534
     -3026.7014
   2660666.93047   2058919.78542  23727538.8084   23727534.7964
     -1931.7224
   2141463.87148   1657268.59843  22880620.0654   22880617.1204
     -1559.0484
  -5285516.48049  -4097302.28945  21294490.9804   21294488.5074
      3174.0114
 04  9 10 15 18 44.9990000  0  7G 1G11G14G15G19G22G25
  -5244887.77049  -4065733.97744  21646655.1904   21646653.0424
      3179.3574
  -4083105.55149  -3165628.78145  21324187.3864   21324183.8704
      2271.1394
   1509933.33249   1169579.97746  21013675.8004   21013672.3084
     -1239.4334
   4398169.59446   3405507.64842  23659028.2764   23659027.9444
     -3028.3924
   2689672.30147   2081521.33242  23733058.0894   23733054.9054
     -1933.6914
   2164882.66848   1675516.96943  22885077.1594   22885073.2694
     -1561.2534
  -5333028.46949  -4134324.59845  21285449.8554   21285447.4404
      3167.4664
 04  9 10 15 18 59.9990000  0  7G 1G11G14G15G19G22G25
  -5292506.74249  -4102839.66444  21637593.8234   21637591.7654
      3174.5984
  -4117052.74249  -3192081.14545  21317727.6984   21317723.8704
      2263.1464
   1528583.20349   1184112.32046  21017224.6984   21017221.3514
     -1243.3254
   4443621.56647   3440924.68042  23667677.9724   23667677.4174
     -3030.1324
   2718707.78547   2104146.39142  23738583.2304   23738579.8624
     -1935.6994
   2188335.32848   1693791.71943  22889540.0654   22889536.6364
     -1563.5114
  -5380441.03949  -4171269.44945  21276427.5194   21276424.4764
      3160.8384
 04  9 10 15 19 14.9990000  0  7G 1G11G14G15G19G22G25
  -5340054.58649  -4139889.92644  21628545.9404   21628544.0464
      3169.8564
  -4150880.06249  -3218440.10245  21311290.3314   21311286.7334
      2255.1554
   1547290.80149   1198689.64546  21020784.3084   21020781.1944
     -1247.1734
   4489098.94947   3476361.55942  23676331.3474   23676332.0154
     -3031.8264
   2747772.66447   2126794.31342  23744115.0114   23744111.4134
     -1937.6594
   2211821.53948   1712092.62143  22894009.4254   22894005.7724
     -1565.7474
  -5427754.23849  -4208136.86745  21267423.9094   21267421.5624
      3154.2134
 04  9 10 15 19 29.9990000  0  7G 1G11G14G19G22G25G20
  -5387531.95749  -4176885.27044  21619511.3004   21619509.2064
      3165.1584
  -4184588.12549  -3244706.14545  21304876.0584   21304871.9374
      2247.2044
   1566055.21549   1213311.24645  21024355.1124   21024351.7654
     -1250.9614
   2776865.89547   2149464.32842  23749651.1124   23749646.7724
     -1939.5494
   2235340.51648   1730419.05943  22898485.0974   22898481.8584
     -1567.9324
  -5474968.62949  -4244927.28145  21258439.4564   21258437.2494
      3147.6264
   -146021.48857   -107836.73852  23848376.5194   23848372.6204

 04  9 10 15 19 44.9990000  0  7G 1G11G14G19G22G25G20
  -5434939.28149  -4213826.02744  21610489.9484   21610487.6164
      3160.4884
  -4218177.10949  -3270879.39145  21298484.2224   21298480.1364
      2239.2664
   1584875.77349   1227976.59045  21027936.9014   21027933.2304
     -1254.7044
   2805986.53947   2172155.70342  23755192.5894   23755188.8704
     -1941.3764
   2258891.86748   1748770.71143  22902966.2534   22902963.7264
     -1570.0904
  -5522084.37949  -4281640.84445  21249473.0344   21249470.5464
      3141.0504
   -203968.05547   -152989.91842  23837349.1904   23837345.6874
      3863.1044
 04  9 10 15 19 59.9990000  0  7G 1G11G14G19G22G25G20
  -5482276.33248  -4250712.02044  21601481.9334   21601479.8624
      3155.8034
  -4251646.57449  -3296959.50445  21292115.5504   21292111.5074
      2231.2984
   1603752.45349   1242685.67645  21031528.7224   21031525.3354
     -1258.4454
   2835134.39547   2194868.28142  23760739.3784   23760735.2304
     -1943.1904
   2282475.70348   1767147.68843  22907454.2304   22907450.9174
     -1572.2564
  -5569101.17649  -4318277.29345  21240526.1594   21240524.1834
      3134.4534
   -261916.25447   -198144.36742  23826321.8554   23826318.3044
      3863.2134
 04  9 10 15 20 14.9990000  0  7G 1G11G14G19G22G25G20
  -5529542.50848  -4287542.80544  21592487.2534   21592484.9834
      3151.0784
  -4284995.78149  -3322945.91845  21285769.2764   21285764.9214
      2223.2804
   1622685.53549   1257438.69945  21035131.8864   21035128.4644
     -1262.2054
   2864309.61346   2217602.21142  23766290.3154   23766287.5584
     -1945.0154
   2306092.56648   1785550.38743  22911948.3154   22911945.2654
     -1574.4584
  -5616018.12149  -4354835.93745  21231598.8004   21231596.0774
      3127.7964
   -319865.46147   -243299.59042  23815294.2844   23815290.7144
      3863.2804
 04  9 10 15 20 29.9990000  0  7G 1G11G14G19G22G25G20
  -5576737.99248  -4324318.48444  21583506.3314   21583504.0504
      3146.3664
  -4318225.04349  -3348838.85245  21279445.9334   21279441.5304
      2215.2844
   1641674.47749   1272235.24645  21038745.3704   21038741.9994
     -1265.9294
   2893511.49646   2240356.87942  23771848.1594   23771844.6514
     -1946.7924
   2329742.03548   1803978.48443  22916449.0114   22916446.0774
     -1576.6314
  -5662835.21149  -4391316.78145  21222689.1444   21222686.8704
      3121.1394
   -377815.87547   -288455.77342  23804266.5114   23804262.9564
      3863.3614
 04  9 10 15 20 44.9990000  0  7G 1G11G14G19G22G25G20
  -5623862.41449  -4361038.80544  21574538.7224   21574536.8704
      3141.6284
  -4351333.79749  -3374637.89145  21273145.3154   21273141.5814
      2207.2504
   1660719.38349   1287075.41845  21042369.1674   21042366.0694
     -1269.6604
   2922740.02746   2263132.30542  23777409.7614   23777405.9914
     -1948.5694
   2353424.53148   1822432.34043  22920955.9174   22920952.1874
     -1578.8334
  -5709551.85549  -4427719.33645  21213799.4094   21213796.6714
      3114.4434
   -435767.08646   -333612.56242  23793239.1984   23793236.0264
      3863.4144
 04  9 10 15 20 59.9990000  0  7G 1G11G14G19G22G25G20
  -5670915.23848  -4397703.32044  21565585.0344   21565583.2804
      3136.8554
  -4384321.23449  -3400342.39545  21266867.8624   21266864.4374
      2199.1634
   1679820.50849   1301959.39145  21046004.2844   21046001.1084
     -1273.4084
   2951995.34846   2285928.62142  23782977.3624   23782974.2724
     -1950.3554
   2377140.51648   1840912.28543  22925468.4954   22925465.0264
     -1581.0664
  -5756167.30949  -4464043.04745  21204928.8704   21204926.3704
      3107.6974
   -493718.45746   -378769.47742  23782211.1754   23782208.5114
      3863.4254
 04  9 10 15 21 14.9990000  0  7G 1G11G14G19G22G25G20
  -5717897.10948  -4434312.55145  21556644.8704   21556643.1794
      3132.1254
  -4417187.93449  -3425952.81645  21260613.4564   21260610.5304
      2191.1134
   1698976.93049   1316886.44546  21049649.7844   21049646.5774
     -1277.0954
   2981276.35246   2308744.97342  23788549.0894   23788544.8434
     -1952.0674
   2400889.10248   1859417.64543  22929987.6204   22929984.3084
     -1583.2394
  -5802682.11749  -4500288.33245  21196077.7144   21196074.9134
      3100.9874
   -551670.74247   -423927.09042  23771183.0734   23771180.6904
      3863.4864
 04  9 10 15 21 29.9990000  0  7G 1G11G14G19G22G25G20
  -5764808.06648  -4470866.52744  21547717.7304   21547716.0194
      3127.3974
  -4449933.89849  -3451469.15245  21254382.4014   21254379.0654
      2183.0644
   1718188.27349   1331856.30145  21053305.0264   21053302.0344
     -1280.7564
   3010582.59845   2331580.93842  23794125.6444   23794122.0734
     -1953.7504
   2424670.34448   1877948.43443  22934513.6284   22934509.6554
     -1585.4164
  -5849095.86749  -4536454.88745  21187245.1284   21187243.0304
      3094.2504
   -609623.77347   -469085.28542  23760155.3314   23760152.6554
      3863.5354
 04  9 10 15 21 44.9990000  0  7G 1G11G14G19G22G25G20
  -5811647.80148  -4507365.01245  21538804.7764   21538802.9404
      3122.6494
  -4482558.69149  -3476891.07045  21248174.2454   21248171.0424
      2174.9864
   1737454.63749   1346869.02746  21056971.6364   21056968.5194
     -1284.4244
   3039913.93845   2354436.51642  23799707.6444   23799704.0854
     -1955.4234
   2448484.48848   1896504.85543  22939044.9404   22939041.4444
     -1587.6104
  -5895408.04349  -4572542.27345  21178432.4564   21178429.4134
      3087.4784
   -667577.30147   -514243.85942  23749127.4174   23749124.4564
      3863.5684
 04  9 10 15 21 59.9990000  0  6G 1G11G14G22G25G20
  -5858415.88748  -4543807.66845  21529904.5344   21529902.7374
      3117.8724
  -4515061.64549  -3502218.07045  21241988.8474   21241985.5774
      2166.8644
   1756776.16849   1361924.74645  21060648.4874   21060645.4134
     -1288.1024
   2472331.86748   1915087.18443  22943582.8784   22943578.9684
     -1589.8254
  -5941618.31648  -4608550.27745  21169638.8154   21169636.3084
      3080.6854
   -725530.82447   -559402.43442  23738099.0654   23738096.6014
      3863.5684
 04  9 10 15 22 14.9990000  0  6G 1G11G14G22G25G20
  -5905112.36347  -4580194.52744  21521018.6284   21521016.9294
      3113.0984
  -4547442.74649  -3527450.09445  21235827.3624   21235823.4334
      2158.7404
   1776152.53949   1377023.19146  21064335.4564   21064332.2694
     -1291.7584
   2496212.23848   1933695.22743  22948127.0504   22948124.1014
     -1592.0254
  -5987726.53947  -4644478.74245  21160864.5424   21160862.1054
      3073.8824
   -783484.36347   -604561.05142  23727071.5584   23727068.0504
      3863.5694
 04  9 10 15 22 29.9990000  0  6G 1G11G14G22G25G20
  -5951736.83247  -4616525.26644  21512146.4724   21512144.3514
      3108.2984
  -4579701.39148  -3552586.71545  21229688.6204   21229684.8154
      2150.5764
   1795583.95349   1392164.53145  21068033.1674   21068030.1594
     -1295.4284
   2520126.05548   1952329.32443  22952678.4874   22952674.7694
     -1594.2544
  -6033731.94548  -4680327.09045  21152110.1834   21152107.1944
      3067.0274
   -841437.32847   -649719.22342  23716043.0194   23716039.1124
      3863.5314
 04  9 10 15 22 44.9990000  0  6G 1G11G14G22G25G20
  -5998288.76247  -4652799.48445  21503287.9484   21503285.7224
      3103.4624
  -4611836.98448  -3577627.44945  21223573.4334   21223569.4994
      2142.3734
   1815070.50049   1407348.83645  21071741.3554   21071738.2574
     -1299.1034
   2544073.80148   1970989.88343  22957235.6204   22957231.8084
     -1596.5164
  -6079633.77748  -4716094.73445  21143375.4174   21143373.4644
      3060.1224
   -899389.36346   -694876.65642  23705014.6984   23705010.5384
      3863.4694
 04  9 10 15 22 59.9990000  0  6G 1G11G14G22G25G20
  -6044768.17247  -4689017.19944  21494442.7374   21494440.9254
      3098.6274
  -4643849.65248  -3602572.39845  21217481.3864   21217477.6364
      2134.1784
   1834611.90249   1422575.87545  21075460.0974   21075457.0894
     -1302.7604
   2568055.19548   1989676.64843  22961798.7144   22961795.5894
     -1598.7604
  -6125431.93448  -4751781.59845  21134659.8314   21134657.8624
      3053.2104
   -957340.38747   -740033.29342  23693986.8864   23693983.4564
      3863.4024
 04  9 10 15 23 14.9990000  0  6G 1G11G14G22G25G20
  -6091175.08648  -4725178.41845  21485612.2764   21485610.4014
      3093.7944
  -4675739.05949  -3627421.28145  21211413.0344   21211409.4834
      2125.9604
   1854207.82449   1437845.39845  21079189.0114   21079186.3864
     -1306.3954
   2592070.24648   2008389.63343  22966368.6904   22966365.9564
     -1601.0034
  -6171126.30549  -4787387.57845  21125964.3944   21125962.3624
      3046.2914
  -1015290.32046   -785189.10242  23682959.0974   23682956.0774
      3863.3294
 04  9 10 15 23 29.9990000  0  6G 1G11G14G22G25G20
  -6137509.52748  -4761283.16445  21476795.0654   21476793.0694
      3088.9634
  -4707505.18048  -3652174.10245  21205368.1054   21205363.9834
      2117.7414
   1873857.98849   1453157.18846  21082928.5974   21082925.4804
     -1310.0114
   2616118.86748   2027128.76243  22970945.4094   22970942.3474
     -1603.2414
  -6216716.68449  -4822912.53545  21117288.8314   21117287.0194
      3039.3594
  -1073239.12947   -830344.00442  23671931.9874   23671929.1124
      3863.2544
 04  9 10 15 23 44.9990000  0  6G 1G11G14G22G25G20
  -6183771.74648  -4797331.62945  21467991.2924   21467989.9254
      3084.1484
  -4739148.11349  -3676830.94945  21199346.7924   21199342.3744
      2109.5294
   1893561.93049   1468510.89146  21086677.8084   21086674.8004
     -1313.5964
   2640200.71948   2045893.80543  22975528.2924   22975524.5264
     -1605.4574
  -6262202.96149  -4858356.36745  21108633.2064   21108631.2414
      3032.4184
  -1131187.02347   -875498.19142  23660905.1834   23660902.8744
      3863.1934
 04  9 10 15 23 59.9990000  0  6G 1G11G14G22G25G20
  -6229961.83648  -4833323.89545  21459201.6364   21459200.2024
      3079.3394
  -4770667.81649  -3701391.76245  21193348.5424   21193344.6984
      2101.3144
   1913319.31649   1483906.23445  21090438.0034   21090434.5624
     -1317.1594
   2664315.57448   2064684.55943  22980116.9014   22980113.4134
     -1607.6574
  -6307585.24249  -4893719.16845  21099997.5264   21099995.1514
      3025.4854
  -1189134.06647   -920651.69942  23649878.7144   23649876.3194
      3863.1364
 04  9 10 15 24 14.9990000  0  6G 1G11G14G22G25G20
  -6276079.55148  -4869259.76244  21450425.5194   21450424.1474
      3074.5144
  -4802063.93449  -3725856.28145  21187374.6594   21187370.4914
      2093.0744
   1933130.09849   1499343.18845  21094207.5584   21094204.2804
     -1320.7194
   2688463.66848   2083501.22743  22984712.3084   22984708.3904
     -1609.8734
  -6352862.97348  -4929000.49645  21091381.4564   21091379.2924
      3018.5154
  -1247079.95347   -965804.34842  23638851.8864   23638849.4174
      3863.0594
 04  9 10 15 24 29.9990000  0  6G 1G11G14G22G25G20
  -6322125.76248  -4905139.91444  21441663.7304   21441661.7724
      3069.7474
  -4833337.23449  -3750225.09445  21181423.3704   21181419.3624
      2084.8874
   1952993.04349   1514820.78945  21097987.1444   21097984.4994
     -1324.1964
   2712644.08248   2102343.05943  22989313.5114   22989310.4294
     -1612.0284
  -6398036.79348  -4964200.87545  21082784.7614   21082782.8514
      3011.5884
  -1305025.48847  -1010956.71942  23627824.6754   23627822.2104
      3863.0364
 04  9 10 15 24 44.9990000  0  6G 1G11G14G22G25G20
  -6368099.96148  -4940963.96545  21432914.9564   21432912.8274
      3064.9474
  -4864487.19149  -3774497.79745  21175495.7844   21175491.7534
      2076.6644
   1972908.41049   1530339.22345  21101777.3234   21101774.4764
     -1327.6914
   2736857.14548   2121210.33643  22993920.9644   22993918.3154
     -1614.2044
  -6443106.09849  -4999319.79345  21074208.6754   21074206.2844
      3004.6204
  -1362970.18746  -1056108.40642  23616798.0264   23616795.2304
      3862.9804
 04  9 10 15 24 59.9990000  0  6G 1G11G14G22G25G20
  -6414002.83249  -4976732.42244  21424179.8394   21424178.0464
      3060.1914
  -4895514.15649  -3798674.65645  21169591.3624   21169587.6054
      2068.4644
   1992875.29749   1545897.81645  21105576.7694   21105573.6714
     -1331.1264
   2761102.19148   2140102.52743  22998534.8784   22998531.6634
     -1616.3364
  -6488071.41449  -5034357.69145  21065652.0344   21065649.5624
      2997.6884
  -1420914.52746  -1101259.83242  23605771.3234   23605768.9484
      3862.9564
 04  9 10 15 25 14.9990000  0  6G 1G11G14G22G25G20
  -6459834.57849  -5012445.45345  21415458.5974   21415456.5264
      3055.4504
  -4926418.37549  -3822755.87145  21163710.3704   21163706.0974
      2060.2814
   2012893.18449   1561496.14545  21109386.0734   21109382.8314
     -1334.5264
   2785378.90248   2159019.41043  23003154.0814   23003151.4294
     -1618.4474
  -6532932.73849  -5069314.54345  21057115.0424   21057112.5544
      2990.7554
  -1478858.80546  -1146411.18742  23594744.5734   23594741.9334
      3862.9524
 04  9 10 15 25 29.9990000  0  6G 1G11G14G22G25G20
  -6505593.97348  -5048102.11745  21406751.0114   21406749.0264
      3050.6264
  -4957198.40649  -3846740.31645  21157853.7614   21157849.4214
      2052.0024
   2032962.94149   1577134.89845  21113205.2064   21113201.9374
     -1337.9844
   2809688.50848   2177961.93843  23007780.1904   23007777.6714
     -1620.6404
  -6577688.59048  -5104189.22745  21048598.3004   21048595.7494
      2983.7234
  -1536801.66846  -1191561.52042  23583718.4094   23583715.5194
      3862.8584
 04  9 10 15 25 44.9990000  0  6G 1G11G14G22G25G20
  -6551281.84048  -5083703.03945  21398056.7064   21398054.1514
      3045.8584
  -4987855.00049  -3870628.58645  21152019.7374   21152015.8974
      2043.7734
   2053083.57449   1592813.29345  21117034.1674   21117031.1984
     -1341.3764
   2834030.07848   2196929.34043  23012412.5034   23012409.3864
     -1622.7714
  -6622339.48448  -5138982.11745  21040101.4254   21040099.0424
      2976.7264
  -1594743.94147  -1236711.34442  23572692.9644   23572689.6754
      3862.8184
 04  9 10 15 25 59.9990000  0  6G 1G11G14G22G25G20
  -6596897.67649  -5119247.83245  21389376.2694   21389374.0074
      3041.0564
  -5018387.71949  -3894420.33245  21146209.5424   21146206.0264
      2035.5154
   2073255.30149   1608531.50045  21120872.8394   21120869.9134
     -1344.7824
   2858403.87548   2215921.85243  23017050.5654   23017047.3584
     -1624.9204
  -6666884.90249  -5173692.81245  21031624.6984   21031622.9334
      2969.6954
  -1652685.06247  -1281860.27042  23561667.6754   23561664.7574
      3862.7414
 04  9 10 15 26 14.9990000  0  6G 1G11G14G22G25G20
  -6642442.41449  -5154737.23045  21380709.1284   21380707.0694
      3036.3164
  -5048797.21549  -3918116.04745  21140422.5194   21140419.0074
      2027.3004
   2093476.94549   1624288.60545  21124720.8864   21124717.8944
     -1348.1104
   2882809.02748   2234938.81343  23021694.9174   23021691.7024
     -1627.0104
  -6711325.45748  -5208321.78545  21023168.2924   21023165.6674
      2962.7044
  -1710625.91447  -1327009.00442  23550642.4334   23550639.1554
      3862.7234
 04  9 10 15 26 29.9990000  0  6G 1G11G14G22G25G20
  -6687915.09449  -5190170.46944  21372056.1444   21372054.2144
      3031.5124
  -5079082.46549  -3941714.94145  21134659.1594   21134655.8084
      2019.0174
   2113749.14849   1640085.10545  21128578.4484   21128575.7534
     -1351.4804
   2907246.54748   2253981.00043  23026344.8784   23026341.7884
     -1629.1684
  -6755660.05549  -5242868.21145  21014731.8314   21014728.7494
      2955.6404
  -1768565.37147  -1372156.60942  23539616.8864   23539613.7454
      3862.6304
 04  9 10 15 26 44.9990000  0  6G 1G11G14G22G25G20
  -6733317.34449  -5225548.83645  21363416.2764   21363414.1054
      3026.8174
  -5109244.94148  -3965218.18745  21128919.9254   21128916.1794
      2010.8324
   2134069.92649   1655919.44545  21132445.6754   21132442.6084
     -1354.7184
   2931714.59848   2273046.95743  23031001.3394   23030998.2144
     -1631.2034
  -6799890.16848  -5277333.22345  21006314.2064   21006312.1404
      2948.6744
  -1826505.02047  -1417304.39542  23528590.6444   23528588.7614
      3862.6434
 04  9 10 15 26 59.9990000  0  6G 1G11G14G22G25G20
  -6778648.23048  -5260871.57445  21354790.1204   21354788.1244
      3022.0594
  -5139283.54348  -3988624.88745  21123204.0894   21123200.1674
      2002.5734
   2154439.99249   1671792.21145  21136321.8554   21136318.7304
     -1358.0044
   2956214.08248   2292137.43043  23035663.3084   23035660.3314
     -1633.2994
  -6844014.63348  -5311715.89845  20997917.8944   20997915.6124
      2941.6314
  -1884443.93746  -1462451.59442  23517564.6514   23517563.1554
      3862.5954
 04  9 10 15 27 14.9990000  0  6G 1G11G14G22G25G20
  -6823907.89848  -5296138.82445  21346177.2614   21346175.0814
      3017.3114
  -5169198.41448  -4011935.19145  21117510.8864   21117507.4334
      1994.3254
   2174858.97349   1687703.08245  21140207.2694   21140204.3154
     -1361.2654
   2980744.75048   2311252.19143  23040331.5654   23040328.2534
     -1635.3784
  -6888033.39849  -5346016.22346  20989541.4254   20989538.8124
      2934.5844
  -1942382.13346  -1507598.18042  23506539.2304   23506537.2654
      3862.5464
 04  9 10 15 27 29.9990000  0  6G 1G11G14G22G25G20
  -6869095.95748  -5331350.28945  21337578.9334   21337576.5624
      3012.5374
  -5198988.96948  -4035148.60945  21111842.1594   21111838.6054
      1986.0374
   2195327.07849   1703652.23445  21144102.3784   21144099.3234
     -1364.5404
   3005306.93448   2330391.49643  23045005.8704   23045002.4724
     -1637.4794
  -6931945.91048  -5380233.73846  20981185.3784   20981182.7144
      2927.5014
  -2000319.21946  -1552743.95342  23495513.9014   23495512.2374
      3862.4724
 04  9 10 15 27 44.9990000  0  6G 1G11G14G22G25G20
  -6914212.93048  -5366506.35945  21328993.0424   21328991.2844
      3007.7984
  -5228655.69148  -4058265.53545  21106196.6284   21106192.7694
      1977.7824
   2215843.48849   1719639.02045  21148006.4174   21148003.3624
     -1367.7614
   3029900.17648   2349555.01243  23049685.7844   23049682.9404
     -1639.5494
  -6975752.48848  -5414368.71946  20972849.4404   20972846.5194
      2920.4394
  -2058255.64846  -1597889.22742  23484489.6054   23484486.5464
      3862.4294
 04  9 10 15 27 59.9990000  0  6G 1G11G14G22G25G20
  -6959259.46549  -5401607.52345  21320421.1124   21320419.1634
      3003.1024
  -5258199.13748  -4081286.40645  21100574.7144   21100570.8744
      1969.5634
   2236407.21549   1735662.68045  21151919.4954   21151916.8624
     -1370.9154
   3054523.64548   2368742.09043  23054371.1284   23054368.1984
     -1641.5654
  -7019453.65649  -5448421.56645  20964533.1054   20964530.4764
      2913.4114
  -2116191.91847  -1643034.38342  23473465.5504   23473461.7144
      3862.4184
 04  9 10 15 28 14.9990000  0  6G 1G11G14G22G25G20
  -7004234.48848  -5436652.98045  21311862.3864   21311860.4404
      2998.3354
  -5287618.01648  -4104210.21945  21094976.6674   21094972.7334
      1961.2594
   2257019.17249   1751723.91445  21155842.0814   21155838.9134
     -1374.1304
   3079178.36748   2387953.50843  23059063.1984   23059059.3584
     -1643.6484
  -7063048.05149  -5482391.20745  20956237.2534   20956234.8194
      2906.2934
  -2174126.80947  -1688178.45742  23462440.6754   23462437.6124
      3862.3264
 04  9 10 15 28 29.9990000  0  6G 1G11G14G22G25G20
  -7049137.94948  -5471642.66045  21303317.6674   21303315.4014
      2993.5644
  -5316912.23448  -4127036.88345  21089401.9564   21089398.2494
      1952.9484
   2277679.17649   1767822.59445  21159773.4094   21159770.5974
     -1377.3344
   3103864.28948   2407189.26243  23063760.4174   23063757.3864
     -1645.7284
  -7106535.52048  -5516277.52345  20947961.8314   20947959.1404
      2899.1654
  -2232060.42246  -1733321.53942  23451415.9484   23451413.8474
      3862.2414
 04  9 10 15 28 44.9990000  0  6G 1G11G14G22G25G20
  -7093969.47749  -5506576.30545  21294786.1514   21294784.1164
      2988.7684
  -5346081.31648  -4149766.03945  21083851.2534   21083847.8004
      1944.6054
   2298387.19949   1783958.69545  21163713.9254   21163711.3124
     -1380.5354
   3128581.75048   2426449.56643  23068464.2694   23068461.4094
     -1647.8314
  -7149915.49248  -5550080.09045  20939707.0584   20939704.2534
      2891.9984
  -2289992.30146  -1778463.24242  23440392.0894   23440389.9374
      3862.1254
 04  9 10 15 28 59.9990000  0  6G 1G11G14G22G25G20
  -7138729.83648  -5541454.47345  21286268.6124   21286266.7494
      2984.0244
  -5375125.90248  -4172398.19545  21078324.6984   21078320.6834
      1936.3064
   2319142.29349   1800131.46945  21167663.7304   21167660.5504
     -1383.6734
   3153329.92248   2445733.79343  23073173.9174   23073170.7414
     -1649.8784
  -7193188.62549  -5583799.39845  20931472.3944   20931469.7414
      2884.8764
  -2347923.07046  -1823604.09442  23429367.5424   23429366.1404
      3862.0514
 04  9 10 15 29 14.9990000  0  6G 1G11G14G22G25G20
  -7183419.36748  -5576277.46945  21277764.6514   21277762.5034
      2979.3024
  -5404046.25048  -4194933.53145  21072821.3864   21072817.3784
      1928.0234
   2339943.82449   1816340.42645  21171622.3004   21171618.9724
     -1386.7694
   3178108.36748   2465041.63343  23077889.3784   23077886.1754
     -1651.8964
  -7236354.96548  -5617435.49646  20923258.1834   20923255.2224
      2877.7564
  -2405852.94946  -1868744.21942  23418343.8944   23418342.3314
      3861.9924
 04  9 10 15 29 29.9990000  0  6G 1G11G14G22G25G20
  -7228038.61748  -5611045.70745  21269274.0584   21269272.2534
      2974.6174
  -5432842.76648  -4217372.38745  21067341.2534   21067337.9174
      1919.7684
   2360791.03549   1832584.98045  21175589.3784   21175586.0584
     -1389.8144
   3202916.42248   2484372.52343  23082609.2144   23082607.2184
     -1653.8704
  -7279414.77049  -5650988.57845  20915064.1204   20915061.7924
      2870.6544
  -2463782.43046  -1913884.06642  23407320.6674   23407318.3554
      3861.9654
 04  9 10 15 29 44.9990000  0  6G 1G11G14G22G25G20
  -7272586.43448  -5645758.26645  21260796.7144   21260795.0114
      2969.8544
  -5461514.29348  -4239713.83645  21061885.0504   21061881.6674
      1911.4354
   2381684.74649   1848865.76645  21179565.6444   21179562.4804
     -1392.9144
   3227755.18048   2503727.35543  23087336.4954   23087333.2534
     -1655.9174
  -7322366.81648  -5684457.68745  20906890.8624   20906887.8904
      2863.4704
  -2521710.46946  -1959022.79742  23396296.6674   23396294.9724
      3861.8694
 04  9 10 15 29 59.9990000  0  6G 1G11G14G22G25G20
  -7317062.97748  -5680415.29745  21252333.0114   21252331.5694
      2965.1034
  -5490060.90248  -4261957.95745  21056453.3784   21056449.2374
      1903.1074
   2402624.52349   1865182.45745  21183549.6284   21183546.9564
     -1395.9854
   3252624.44548   2523105.95342  23092069.1124   23092065.3044
     -1657.9514
  -7365211.11748  -5717842.84446  20898737.6364   20898735.1754
      2856.2874
  -2579637.06246  -2004160.38342  23385274.8944   23385271.9334
      3861.7734
 04  9 10 15 30 14.9990000  0  6G 1G11G14G22G25G20
  -7361468.61749  -5715017.07845  21243882.9254   21243881.2454
      2960.3764
  -5518482.96948  -4284105.03545  21051044.2694   21051040.7724
      1894.8044
   2423609.71949   1881534.53145  21187543.3084   21187540.1634
     -1399.0134
   3277523.79748   2542507.98843  23096806.9804   23096803.6984
     -1659.9574
  -7407947.82848  -5751144.16046  20890605.0504   20890602.8394
      2849.1144
  -2637562.39547  -2049297.01642  23374251.5894   23374248.9334
      3861.6894
 04  9 10 15 30 29.9990000  0  6G 1G11G14G22G25G20
  -7405803.35249  -5749563.61345  21235446.3624   21235444.0504
      2955.6494
  -5546780.04348  -4306154.70345  21045659.6984   21045656.0264
      1886.4724
   2444640.22349   1897921.91045  21191545.0894   21191542.1714
     -1402.0344
   3302453.19948   2561933.46143  23101551.1834   23101547.8194
     -1661.9604
  -7450576.75048  -5784361.48846  20882493.4484   20882490.5034
      2841.9284
  -2695486.34447  -2094432.55142  23363229.4954   23363226.2694
      3861.5974
 04  9 10 15 30 44.9990000  0  6G 1G11G14G22G25G20
  -7450067.22349  -5784054.93045  21227023.2844   21227021.4444
      2950.9254
  -5574952.24649  -4328107.07045  21040298.2924   21040295.1514
      1878.1474
   2465715.71949   1914344.35245  21195555.7374   21195552.7494
     -1405.0334
   3327412.54348   2581382.25043  23106300.7144   23106297.4874
     -1663.9564
  -7493097.82449  -5817494.78146  20874401.5424   20874399.1364
      2834.7384
  -2753409.00447  -2139567.10942  23352207.1674   23352203.5264
      3861.5114
 04  9 10 15 30 59.9990000  0  6G 1G11G14G22G25G20
  -7494258.78149  -5818489.89145  21218613.6124   21218611.8584
      2946.1044
  -5602997.99649  -4349960.91045  21034961.8474   21034958.0654
      1869.7174
   2486837.37149   1930802.75845  21199575.1904   21199572.3584
     -1408.1104
   3352403.25048   2600855.47743  23111056.3944   23111053.4334
     -1666.0474
  -7535509.19148  -5850542.57846  20866330.9804   20866328.6124
      2827.4244
  -2811328.89545  -2184699.47742  23341184.3084   23341182.2884
      3861.3264
 04  9 10 15 31 14.9990000  0  6G 1G11G14G22G25G20
  -7538379.47749  -5852869.64545  21210217.8624   21210215.8154
      2941.3804
  -5630918.56248  -4371717.20345  21029648.5114   21029645.2024
      1861.3714
   2508003.42249   1947295.75845  21203602.7924   21203599.8554
     -1411.0704
   3377423.73448   2620351.90243  23115817.9874   23115814.2494
     -1668.0324
  -7577812.25448  -5883505.99646  20858280.9254   20858278.4804
      2820.2044
  -2869247.34846  -2229830.75442  23330163.3234   23330160.2964
      3861.2304
 04  9 10 15 31 29.9990000  0  6G 1G11G14G22G25G20
  -7582428.12549  -5887193.24245  21201835.9174   21201833.7614
      2936.5774
  -5658712.61349  -4393374.91445  21024359.7224   21024356.2574
      1852.9374
   2529214.78949   1963824.07445  21207639.1054   21207636.0074
     -1414.0914
   3402475.10248   2639872.41043  23120585.1364   23120581.2964
     -1670.0914
  -7620005.76649  -5916384.03946  20850251.7764   20850249.5224
      2812.9014
  -2927163.12946  -2274959.89542  23319141.8084   23319139.1084
      3861.0524
 04  9 10 15 31 44.9990000  0  6G 1G11G14G22G25G20
  -7626404.96949  -5921460.90245  21193466.9874   21193465.2374
      2931.7904
  -5686380.52349  -4414934.33645  21019094.5504   21019091.4054
      1844.5274
   2550471.02049   1980387.35245  21211684.4094   21211681.1204
     -1417.0824
   3427557.14848   2659416.81343  23125358.5194   23125355.1794
     -1672.1364
  -7662089.77748  -5949176.75046  20842243.4724   20842240.8904
      2805.6014
  -2985076.32046  -2320087.05542  23308122.1984   23308119.4404
      3860.8794
 04  9 10 15 31 59.9990000  0  6G 1G11G14G22G25G20
  -7670310.16449  -5955672.73445  21185112.2844   21185110.5504
      2927.0134
  -5713922.30948  -4436395.47345  21013853.5034   21013850.3314
      1836.1194
   2571771.81649   1996985.34445  21215737.5424   21215734.6204
     -1420.0534
   3452669.56348   2678984.88743  23130136.4334   23130133.3624
     -1674.1614
  -7704064.17248  -5981884.06246  20834255.8314   20834252.9684
      2798.2934
  -3042986.94546  -2365212.21542  23297101.9094   23297100.3154
      3860.7084
 04  9 10 15 32 14.9990000  0  6G 1G11G14G22G25G20
  -7714145.32849  -5989829.98445  21176770.5194   21176768.8584
      2922.3444
  -5741339.37948  -4457759.42245  21008636.2454   21008632.9094
      1827.8054
   2593115.12949   2013616.48045  21219799.1444   21219795.8864
     -1422.8874
   3477810.60948   2698575.26643  23134920.5344   23134917.8394
     -1676.0704
  -7745930.30548  -6014507.00446  20826288.9484   20826286.5854
      2791.0764
  -3100896.71547  -2410336.70342  23286081.9564   23286079.8864
      3860.6514
 04  9 10 15 32 29.9990000  0  6G 1G11G14G22G25G20
  -7757908.53549  -6023931.17245  21168442.9174   21168441.0734
      2917.5474
  -5768629.82048  -4479024.70345  21003443.2224   21003439.8004
      1819.3634
   2614502.74249   2030282.13345  21223869.1674   21223866.0464
     -1425.8414
   3502982.26648   2718189.50042  23139711.1054   23139708.2614
     -1678.1104
  -7787686.05549  -6047043.95345  20818343.3394   20818340.3704
      2783.7174
  -3158803.50047  -2455458.87543  23275062.9954   23275060.2264
      3860.4524
 04  9 10 15 32 44.9990000  0  6G 1G11G14G22G25G20
  -7801601.09849  -6057977.32845  21160128.4644   21160126.4444
      2912.8384
  -5795794.74248  -4500192.18445  20998274.0584   20998270.2534
      1810.9954
   2635933.06349   2046981.05545  21227947.1834   21227944.1874
     -1428.6884
   3528183.09448   2737826.45743  23144506.4954   23144503.5154
     -1680.0554
  -7829332.65248  -6079495.82045  20810418.4334   20810415.5504
      2776.4404
  -3216708.55946  -2500579.71542  23264043.8864   23264041.1874
      3860.3374
 04  9 10 15 32 59.9980000  0  6G 1G11G14G22G25G20
  -7845220.15649  -6091966.19145  21151828.0374   21151825.6504
      2907.9374
  -5822832.39549  -4521260.47345  20993128.7564   20993125.0254
      1802.5104
   2657404.35549   2063711.90645  21232033.1544   21232030.1664
     -1431.4204
   3553411.37548   2757484.80543  23149306.6544   23149303.7954
     -1681.8854
  -7870867.06249  -6111860.29745  20802514.4124   20802511.6784
      2768.9614
  -3274607.94546  -2545696.12542  23253025.4284   23253022.9554
      3859.9594
 04  9 10 15 33 14.9980000  0  6G 1G11G14G22G25G20
  -7888770.89149  -6125901.82045  21143540.1074   21143538.4944
      2903.3824
  -5849745.57449  -4542231.78945  20988007.5614   20988003.8304
      1794.2124
   2678919.89149   2080477.23445  21236127.1624   21236124.2954
     -1434.3694
   3578671.08648   2777167.65242  23154113.9284   23154111.0884
     -1683.9814
  -7912294.19548  -6144141.15245  20794631.2724   20794628.2444
      2761.8094
  -3332508.68047  -2590813.58642  23242007.2324   23242004.4864
      3860.0494
 04  9 10 15 33 29.9980000  0  6G 1G11G14G22G25G20
  -7932251.34848  -6159782.68045  21135266.1934   21135264.6974
      2898.6974
  -5876533.30148  -4563105.34845  20982909.9204   20982905.9514
      1785.8484
   2700477.12949   2097275.06645  21240229.4044   21240226.6044
     -1437.1494
   3603959.43448   2796872.80142  23158926.4904   23158922.7994
     -1685.8904
  -7953611.96548  -6176336.82445  20786768.6074   20786765.4984
      2754.5184
  -3390407.67246  -2635929.65642  23230989.2794   23230985.9904
      3859.9334
 04  9 10 15 33 44.9980000  0  6G 1G11G14G22G25G20
  -7975660.92649  -6193608.31245  21127005.9434   21127004.4754
      2893.9724
  -5903194.96948  -4583880.67245  20977836.0374   20977832.2994
      1777.4454
   2722076.33249   2114105.58645  21244339.7954   21244336.5184
     -1439.9474
   3629276.93448   2816600.66843  23163744.0454   23163741.3934
     -1687.8334
  -7994819.80548  -6208446.80546  20778927.2404   20778924.2484
      2747.1894
  -3448304.41047  -2681044.00042  23219971.7094   23219968.8304
      3859.7834
 04  9 10 15 33 59.9980000  0  6G 1G11G14G22G25G20
  -8018998.56649  -6227377.88745  21118759.0844   21118757.7364
      2889.1764
  -5929729.40648  -4604556.86345  20972786.7174   20972783.1394
      1768.9634
   2743718.28949   2130969.43045  21248458.4754   21248455.1504
     -1442.7974
   3654624.60948   2836352.03942  23168567.5924   23168564.7294
     -1689.8454
  -8035916.30548  -6240470.06246  20771106.6704   20771103.9044
      2739.7674
  -3506197.70747  -2726155.65642  23208955.7094   23208952.1824
      3859.5534
 04  9 10 15 34 14.9980000  0  6G 1G11G14G22G25G20
  -8062265.61349  -6261092.45345  21110525.8034   21110523.5644
      2884.4704
  -5956137.86749  -4625134.89545  20967761.4514   20967757.9514
      1760.5644
   2765401.44149   2147865.37145  21252583.9204   21252581.4714
     -1445.5434
   3680001.05548   2856125.82043  23173396.4284   23173394.1154
     -1691.7634
  -8076902.50849  -6272407.34046  20763307.3504   20763303.9594
      2732.4144
  -3564088.75447  -2771265.56642  23197939.6394   23197936.5804
      3859.4034
 04  9 10 15 34 29.9980000  0  6G 1G11G14G22G25G20
  -8105462.20749  -6294752.12545  21102305.4754   21102303.8654
      2879.7734
  -5982420.36348  -4645614.75845  20962760.2564   20962756.6074
      1752.1664
   2787125.47349   2164793.16045  21256718.3344   21256715.3224
     -1448.2694
   3705406.19148   2875921.99643  23178230.7324   23178228.2014
     -1693.6764
  -8117778.35949  -6304258.65246  20755528.5374   20755525.8464
      2725.0574
  -3621977.62547  -2816373.76243  23186923.6934   23186920.4284
      3859.2584
 04  9 10 15 34 44.9980000  0  6G 1G11G14G22G25G20
  -8148587.46149  -6328356.21545  21094098.7874   21094096.7874
      2875.0174
  -6008576.02349  -4665995.80145  20957782.8424   20957779.3654
      1743.7114
   2808891.00449   2181753.29345  21260860.0294   21260857.0494
     -1451.0354
   3730840.73447   2895741.06643  23183070.7404   23183068.5144
     -1695.6364
  -8158542.96549  -6336023.26246  20747771.7724   20747768.8424
      2717.6404
  -3679863.33247  -2861479.47742  23175908.2644   23175905.4244
      3859.0474
 04  9 10 15 34 59.9980000  0  6G 1G11G14G22G25G20
  -8191641.45349  -6361904.76245  21085905.9044   21085903.9714
      2870.2664
  -6034604.66848  -4686277.87145  20952829.7324   20952825.9824
      1735.2434
   2830697.71949   2198745.51645  21265009.7644   21265006.9364
     -1453.7814
   3756304.62948   2915583.00442  23187916.7794   23187913.9084
     -1697.5934
  -8199196.14848  -6367701.07046  20740035.1704   20740032.4794
      2710.2124
  -3737745.81247  -2906582.68742  23164893.4904   23164889.6114
      3858.8324
 04  9 10 15 35 14.9980000  0  6G 1G11G14G22G25G20
  -8234623.66449  -6395397.37945  21077726.7794   21077725.2484
      2865.4814
  -6060505.82849  -4706460.60545  20947901.3504   20947897.0884
      1726.7444
   2852545.82049   2215769.98045  21269167.7404   21269164.5334
     -1456.5404
   3781798.19948   2935448.07443  23192768.2794   23192765.9204
     -1699.5714
  -8239737.37149  -6399291.61346  20732320.8184   20732317.6624
      2702.7484
  -3795624.49647  -2951682.96142  23153878.6314   23153875.6894
      3858.5794
 04  9 10 15 35 29.9980000  0  6G 1G11G14G22G25G20
  -8277534.57449  -6428834.43445  21069561.1864   21069558.7444
      2860.7274
  -6086279.85249  -4726544.26645  20942996.3814   20942992.6894
      1718.2684
   2874434.64849   2232826.19145  21273332.9124   21273329.8424
     -1459.2554
   3807321.01248   2955335.93443  23197625.2094   23197621.9864
     -1701.5214
  -8280166.75849  -6430795.03546  20724626.9594   20724625.0024
      2695.2924
  -3853499.79746  -2996780.60242  23142865.8974   23142862.6234
      3858.3534
 04  9 10 15 35 44.9980000  0  6G 1G11G14G22G25G20
  -8320374.83649  -6462216.44545  21061408.8264   21061406.6074
      2856.0174
  -6111927.33649  -4746529.32445  20938116.1704   20938112.4284
      1709.8324
   2896363.30949   2249913.43445  21277505.6074   21277503.0144
     -1461.9114
   3832872.32448   2975245.96942  23202487.7484   23202485.4204
     -1703.4214
  -8320484.87149  -6462211.73046  20716955.0764   20716952.4244
      2687.8744
  -3911372.35247  -3041876.05942  23131853.4594   23131849.9474
      3858.1704
 04  9 10 15 35 59.9980000  0  6G 1G11G14G22G25G20
  -8363143.85549  -6495542.95345  21053270.3034   21053268.5334
      2851.2684
  -6137447.36748  -4766415.06645  20933259.5294   20933256.1274
      1701.3354
   2918332.23849   2267032.05145  21281686.3344   21281683.2994
     -1464.5954
   3858452.69948   2995178.66042  23207355.1004   23207352.2094
     -1705.3584
  -8360691.02048  -6493541.19546  20709303.9754   20709301.2834
      2680.4104
  -3969241.29747  -3086968.75442  23120841.9204   23120838.6934
      3857.9304
 04  9 10 15 36 14.9980000  0  6G 1G11G14G22G25G20
  -8405841.05949  -6528813.50445  21045145.1474   21045143.4824
      2846.4804
  -6162839.49649  -4786201.14545  20928427.5294   20928424.2644
      1692.8094
   2940341.68849   2284182.25044  21285874.4364   21285871.7524
     -1467.2974
   3884062.68448   3015134.44142  23212228.4124   23212225.6894
     -1707.3324
  -8400784.33649  -6524782.72346  20701674.3574   20701671.7404
      2672.8884
  -4027106.02047  -3132058.15642  23109830.5064   23109826.7364
      3857.6484
 04  9 10 15 36 29.9980000  0  6G 1G11G14G22G25G20
  -8448466.72349  -6562028.29345  21037033.8184   21037032.0804
      2841.7114
  -6188103.84849  -4805887.66045  20923619.9984   20923616.6934
      1684.2904
   2962391.15649   2301363.63745  21290070.5374   21290067.4944
     -1469.9654
   3909701.85947   3035112.94142  23217106.9204   23217104.9864
     -1709.2784
  -8440764.93049  -6555936.42246  20694066.3184   20694063.7754
      2665.3734
  -4084966.70747  -3177144.42642  23098819.9984   23098815.5574
      3857.3794
 04  9 10 15 36 44.9980000  0  6G 1G11G14G22G25G20
  -8491020.98049  -6595187.44545  21028935.9434   21028934.2564
      2836.9514
  -6213240.54749  -4825474.70745  20918836.6704   20918833.3654
      1675.7804
   2984480.31349   2318575.94145  21294273.8574   21294270.8114
     -1472.6104
   3935370.05148   3055114.07042  23221991.8504   23221989.6234
     -1711.2134
  -8480632.85248  -6587002.32046  20686479.6704   20686476.9434
      2657.8614
  -4142823.40247  -3222227.53542  23087809.6544   23087806.5614
      3857.1134
 04  9 10 15 36 59.9980000  0  6G 1G11G14G22G25G20
  -8533504.64849  -6628291.59045  21020851.6624   21020849.4904
      2832.2454
  -6238250.28949  -4844962.82045  20914077.4044   20914073.7364
      1667.3164
   3006608.05949   2335818.31645  21298485.0064   21298481.4474
     -1475.1834
   3961066.46148   3075137.17642  23226882.3034   23226878.9634
     -1713.0944
  -8520388.66049  -6617980.86346  20678914.5224   20678911.6784
      2650.3874
  -4200676.75847  -3267308.08242  23076800.6394   23076797.0144
      3856.8904
 04  9 10 15 37 14.9980000  0  6G 1G11G14G22G25G20
  -8575917.63349  -6661340.66445  21012780.7254   21012778.5724
      2827.5324
  -6263132.97749  -4864351.93045  20909342.5224   20909338.8114
      1658.8464
   3028774.22349   2353090.63744  21302702.8504   21302699.4084
     -1477.7444
   3986791.10547   3095182.30542  23231777.1004   23231774.5764
     -1714.9764
  -8560032.10949  -6648871.85946  20671370.3264   20671368.0724
      2642.8974
  -4258526.68746  -3312385.93042  23065791.8034   23065788.5184
      3856.6624
 04  9 10 15 37 29.9980000  0  6G 1G11G14G22G25G20
  -8618259.70349  -6694334.45345  21004723.2954   21004720.9754
      2822.8054
  -6287888.19948  -4883641.71145  20904631.4044   20904628.2564
      1650.3484
   3050978.85949   2370392.91845  21306928.2564   21306925.1354
     -1480.3094
   4012544.14547   3115249.52742  23236677.8264   23236675.2324
     -1716.8694
  -8599562.98048  -6679675.12146  20663848.0924   20663845.1664
      2635.3914
  -4316372.92647  -3357460.91842  23054784.4204   23054780.9984
      3856.4164
 04  9 10 15 37 44.9980000  0  6G 1G11G14G22G25G20
  -8660530.52349  -6727272.73845  20996679.5534   20996677.6274
      2818.0554
  -6312515.63749  -4902831.93045  20899945.2644   20899941.3304
      1641.8294
   3073222.05149   2387725.25845  21311161.1544   21311158.1434
     -1482.8794
   4038325.65647   3135338.95342  23241583.7794   23241581.6274
     -1718.7674
  -8638980.63749  -6710390.18046  20656346.8574   20656344.3544
      2627.8444
  -4374214.93747  -3402532.62542  23043777.7794   23043774.0334
      3856.1344
 04  9 10 15 37 59.9980000  0  6G 1G11G14G22G25G20
  -8702730.82849  -6760156.08645  20988649.1074   20988646.8224
      2813.3544
  -6337015.78149  -4921922.96545  20895283.1624   20895279.5574
      1633.3434
   3095502.72349   2405086.78945  21315400.9594   21315398.0144
     -1485.3784
   4064134.97347   3155450.02042  23246495.3894   23246492.6274
     -1720.6214
  -8678285.60549  -6741017.41046  20648867.3034   20648865.0024
      2620.3314
  -4432053.34447  -3447601.52042  23032771.2484   23032767.4394
      3855.8944
 04  9 10 15 38 14.9980000  0  6G 1G11G14G22G25G20
  -8744859.83249  -6792983.86345  20980631.8264   20980630.3574
      2808.6004
  -6361387.84449  -4940914.17645  20890645.3734   20890642.0804
      1624.8044
   3117821.57049   2422478.07844  21319648.0924   21319645.2294
     -1487.9234
   4089972.89848   3175583.40642  23251412.5764   23251409.8814
     -1722.5284
  -8717476.98849  -6771556.14546  20641409.6474   20641407.2444
      2612.7594
  -4489887.23847  -3492666.89542  23021766.7724   23021762.3344
      3855.5934
 04  9 10 15 38 29.9980000  0  6G 1G11G14G22G25G20
  -8786917.70749  -6825756.20745  20972628.7724   20972626.6154
      2803.8584
  -6385632.03149  -4959805.76245  20886031.6474   20886028.0964
      1616.2794
   3140178.11749   2439898.73844  21323902.2324   21323899.6194
     -1490.4364
   4115839.18847   3195738.87942  23256334.8574   23256332.3854
     -1724.4194
  -8756554.84049  -6802006.41046  20633973.2954   20633970.8974
      2605.1904
  -4547716.67647  -3537728.82442  23010761.2094   23010757.3544
      3855.2964
 04  9 10 15 38 44.9980000  0  6G 1G11G14G22G25G20
  -8828905.16049  -6858473.68445  20964638.8034   20964636.7054
      2799.1644
  -6409748.87949  -4978598.10946  20881442.1154   20881438.9124
      1607.7904
   3162571.58649   2457348.16844  21328163.7644   21328160.6544
     -1492.8984
   4141733.09447   3215915.87542  23261261.7724   23261260.1434
     -1726.2604
  -8795519.52049  -6832368.49246  20626558.4674   20626556.0884
      2597.6454
  -4605542.33247  -3582787.77742  22999757.5224   22999753.9794
      3855.0444
 04  9 10 15 38 59.9980000  0  6G 1G11G14G22G25G20
  -8870821.93049  -6891136.09445  20956662.3264   20956660.0884
      2794.4514
  -6433738.01649  -4997290.95746  20876877.6234   20876873.8734
      1599.2764
   3185001.94549   2474826.35245  21332431.6544   21332428.9204
     -1495.3574
   4167654.95748   3236114.67642  23266195.0454   23266192.8344
     -1728.1244
  -8834370.63349  -6862642.08246  20619165.4754   20619163.0144
      2590.0744
  -4663363.67647  -3627843.35542  22988753.6544   22988751.1154
      3854.7564
 04  9 10 15 39 14.9980000  0  6G 1G11G14G22G25G20
  -8912667.73849  -6923743.20345  20948699.2644   20948697.0964
      2789.7214
  -6457599.11749  -5015884.02345  20872336.5454   20872333.2094
      1590.7404
   3207469.26649   2492333.32445  21336707.8034   21336704.4944
     -1497.8214
   4193604.86347   3256335.30542  23271133.4364   23271130.8694
     -1729.9944
  -8873107.82449  -6892826.89146  20611793.9434   20611791.3774
      2582.4794
  -4721180.50847  -3672895.42642  22977751.7174   22977748.9284
      3854.4554
 04  9 10 15 39 29.9980000  0  6G 1G11G14G22G25G20
  -8954443.05949  -6956295.39145  20940749.3264   20940747.6664
      2785.0214
  -6481332.49249  -5034377.57446  20867820.5224   20867817.1194
      1582.2254
   3229972.72348   2509868.46545  21340989.8034   21340987.1154
     -1500.2304
   4219582.25847   3276577.36742  23276076.3504   23276074.2604
     -1731.8264
  -8911731.41849  -6922923.18446  20604444.2794   20604441.6704
      2574.9064
  -4778993.07448  -3717944.16442  22966751.2174   22966747.6354
      3854.1714
 04  9 10 15 39 44.9980000  0  6G 1G11G14G22G25G20
  -8996147.55149  -6988792.39145  20932813.6314   20932811.6504
      2780.2994
  -6504937.64149  -5052771.20345  20863328.2724   20863325.0334
      1573.6774
   3252512.52048   2527431.91844  21345278.4904   21345276.0184
     -1502.6534
   4245587.38748   3296841.05942  23281025.7484   23281023.2954
     -1733.6754
  -8950240.78949  -6952930.48446  20597116.2174   20597113.4904
      2567.2914
  -4836800.92647  -3762989.23042  22955750.4364   22955747.3184
      3853.8574
 04  9 10 15 39 59.9980000  0  6G 1G11G14G22G25G20
  -9037781.39849  -7021234.32445  20924890.5614   20924888.6154
      2775.5904
  -6528414.96149  -5071065.23445  20858860.9284   20858857.4674
      1565.1554
   3275088.25048   2545023.36744  21349574.8034   21349572.0454
     -1505.0494
   4271620.02348   3317126.17642  23285979.2324   23285977.3504
     -1735.5094
  -8988635.96549  -6982848.78546  20589809.8814   20589807.3224
      2559.6784
  -4894604.11347  -3808030.67642  22944750.8504   22944747.6824
      3853.5464
 04  9 10 15 40 14.9980000  0  6G 1G11G14G22G25G20
  -9079342.71549  -7053619.75845  20916982.0374   20916979.4554
      2770.7544
  -6551762.40248  -5089258.05945  20854418.1704   20854414.4244
      1556.4964
   3297701.69148   2562644.20345  21353878.3734   21353875.1544
     -1507.5634
   4297682.23048   3337434.35242  23290938.9594   23290936.9044
     -1737.4804
  -9026914.93749  -7012676.55146  20582525.4514   20582522.8114
      2551.9324
  -4952400.60247  -3853066.89142  22933752.2794   22933749.2914
      3853.0994
 04  9 10 15 40 29.9980000  0  6G 1G11G14G22G25G20
  -9120833.65249  -7085950.34445  20909086.5374   20909084.5804
      2766.0634
  -6574981.98449  -5107351.25045  20849999.4824   20849995.9944
      1547.9724
   3320350.39548   2580292.52044  21358188.1394   21358185.3384
     -1509.9144
   4323771.60548   3357763.66443  23295903.4824   23295901.2364
     -1739.2924
  -9065079.85249  -7042415.44146  20575262.7644   20575260.2684
      2544.3284
  -5010192.50847  -3898099.54342  22922754.7324   22922751.6394
      3852.7944
 04  9 10 15 40 44.9980000  0  6G 1G11G14G22G25G20
  -9162253.75449  -7118225.73445  20901204.4674   20901202.9554
      2761.3404
  -6598073.14149  -5125344.36345  20845605.4594   20845602.2684
      1539.4104
   3343034.62948   2597968.52344  21362505.2324   21362502.0884
     -1512.2824
   4349888.57048   3378114.47742  23300873.3504   23300870.8974
     -1741.1314
  -9103130.00849  -7072064.91046  20568022.4124   20568019.5644
      2536.6774
  -5067979.23447  -3943128.18742  22911757.8114   22911754.6004
      3852.4484
 04  9 10 15 40 59.9980000  0  6G 1G11G14G22G25G20
  -9203603.21949  -7150446.08645  20893335.9514   20893334.1154
      2756.6314
  -6621036.07049  -5143237.55945  20841235.4984   20841232.9324
      1530.8624
   3365753.84448   2615671.78544  21366827.9044   21366825.2014
     -1514.6144
   4376032.91048   3398486.63742  23305848.3114   23305846.1784
     -1742.9564
  -9141065.41449  -7101624.95746  20560803.3034   20560800.5144
      2529.0274
  -5125760.89147  -3988152.84442  22900762.8734   22900759.4044
      3852.1104
 04  9 10 15 41 14.9980000  0  6G 1G11G14G22G25G20
  -9244881.52049  -7182610.97745  20885480.8734   20885479.0024
      2751.8874
  -6643870.19149  -5161030.38745  20836890.4434   20836887.0964
      1522.2754
   3388508.37148   2633402.56344  21371158.2174   21371155.1194
     -1516.9684
   4402205.10948   3418880.51242  23310829.2954   23310826.3224
     -1744.8134
  -9178885.48849  -7131095.12946  20553606.5144   20553603.9084
      2521.3384
  -5183536.98047  -4033173.14142  22889768.2874   22889765.7094
      3851.7394
 04  9 10 15 41 29.9980000  0  6G 1G11G14G22G25G20
  -9286089.07049  -7214720.75045  20877639.2954   20877637.2324
      2747.1704
  -6666575.81648  -5178723.08245  20832569.9124   20832566.5844
      1513.7084
   3411297.58248   2651160.36344  21375494.9984   21375491.8424
     -1519.2814
   4428404.61347   3439295.64542  23315814.6394   23315811.9714
     -1746.6344
  -9216590.37549  -7160475.56246  20546431.2644   20546428.9794
      2513.6594
  -5241307.51248  -4078189.15642  22878774.7724   22878771.7834
      3851.3694
 04  9 10 15 41 44.9980000  0  6G 1G11G14G22G25G20
  -9327227.08249  -7246776.33245  20869811.0144   20869809.1504
      2742.5344
  -6689153.99649  -5196316.48046  20828273.4284   20828270.3184
      1505.2124
   3434120.20348   2668944.19144  21379838.3264   21379835.1434
     -1521.5084
   4454630.25047   3459731.14542  23320804.6784   23320802.2994
     -1748.3764
  -9254181.13349  -7189767.04346  20539278.4364   20539275.6824
      2506.0514
  -5299073.66848  -4123201.72743  22867782.9514   22867780.4364
      3851.0774
 04  9 10 15 41 59.9980000  0  6G 1G11G14G22G25G20
  -9368294.64149  -7278777.01245  20861995.8114   20861994.5844
      2737.8374
  -6711603.89849  -5213809.91846  20824001.2644   20823997.9794
      1496.6604
   3456976.84848   2686754.55144  21384187.1544   21384184.2404
     -1523.7764
   4480882.86747   3480187.67642  23325800.3894   23325798.9794
     -1750.1744
  -9291656.59849  -7218968.71146  20532146.7484   20532144.2254
      2498.3644
  -5356834.43748  -4168210.12143  22856791.3114   22856788.5334
      3850.7184
 04  9 10 15 42 14.9980000  0  6G 1G11G14G22G25G20
  -9409291.04349  -7310722.23445  20854194.6544   20854193.2364
      2733.0934
  -6733924.64849  -5231202.71145  20819753.9824   20819750.8034
      1488.0504
   3479867.96548   2704591.75044  21388543.8654   21388540.4864
     -1526.0744
   4507163.18847   3500665.79342  23330801.5144   23330799.7564
     -1752.0214
  -9329015.98849  -7248079.91846  20525037.4824   20525034.6544
      2490.6264
  -5414589.15648  -4213213.78142  22845800.7094   22845797.7484
      3850.3154
 04  9 10 15 42 29.9980000  0  6G 1G11G14G22G25G20
  -9450217.38349  -7342612.87145  20846406.7404   20846405.1394
      2728.4234
  -6756117.08649  -5248495.52746  20815530.6004   20815527.5454
      1479.4964
   3502792.37949   2722454.90244  21392905.8814   21392902.4364
     -1528.2944
   4533469.96147   3521164.53942  23335808.0144   23335806.0224
     -1753.7854
  -9366260.25449  -7277101.41446  20517950.2954   20517947.5724
      2482.9514
  -5472338.55948  -4258213.28942  22834810.9984   22834807.7754
      3849.9604
 04  9 10 15 42 44.9980000  0  6G 1G11G14G22G25G20
  -9491073.21149  -7374448.57445  20838632.1314   20838629.9754
      2723.7224
  -6778180.94549  -5265688.16045  20811331.9044   20811328.7324
      1470.9244
   3525750.13749   2740344.04344  21397274.7954   21397271.5104
     -1530.5174
   4559803.62147   3541684.21142  23340818.9984   23340817.5764
     -1755.5774
  -9403388.92249  -7306032.84846  20510885.1474   20510882.3544
      2475.2454
  -5530082.05147  -4303208.23042  22823822.5144   22823819.0374
      3849.5664
 04  9 10 15 42 59.9980000  0  6G 1G11G14G22G25G20
  -9531857.63749  -7406228.64845  20830871.3184   20830868.9714
      2718.9624
  -6800115.39149  -5282779.94946  20807158.0764   20807154.9714
      1462.2964
   3548742.01648   2758259.76244  21401649.8894   21401646.7644
     -1532.7924
   4586165.05547   3562225.52342  23345835.3264   23345833.4474
     -1757.4294
  -9440400.78149  -7334873.24646  20503841.9204   20503838.6584
      2467.4574
  -5587818.70348  -4348197.81642  22812836.3034   22812832.2014
      3849.1104
 04  9 10 15 43 14.9980000  0  6G 1G11G14G22G25G20
  -9572571.64849  -7437953.84445  20823122.9904   20823121.2134
      2714.2674
  -6821921.22749  -5299771.52045  20803008.5614   20803005.1194
      1453.7224
   3571766.81348   2776201.13744  21406031.5534   21406028.0964
     -1534.9864
   4612553.12947   3582787.60942  23350856.5534   23350854.8734
     -1759.2054
  -9477296.59449  -7363623.23446  20496820.5294   20496818.1434
      2459.7214
  -5645549.51648  -4393182.87142  22801850.2324   22801847.7294
      3848.7214
 04  9 10 15 43 29.9980000  0  6G 1G11G14G22G25G20
  -9613215.25449  -7469624.17245  20815389.3734   20815386.7644
      2709.5744
  -6843598.29749  -5316662.75446  20798883.6074   20798880.0884
      1445.1384
   3594824.34448   2794168.01244  21410419.1784   21410415.9004
     -1537.1694
   4638967.87147   3603370.46542  23355883.6004   23355881.5924
     -1760.9834
  -9514076.37149  -7392282.78946  20489821.8034   20489819.0374
      2451.9854
  -5703274.19548  -4438163.12143  22790865.6784   22790862.9124
      3848.3124
 04  9 10 15 43 44.9980000  0  6G 1G11G14G22G25G20
  -9653788.13349  -7501239.40245  20807668.3734   20807666.0534
      2704.8594
  -6865146.33249  -5333453.44545  20794783.1864   20794780.0224
      1436.5364
   3617914.65648   2812160.44544  21414813.1624   21414810.2054
     -1539.3544
   4665409.45747   3623974.21542  23360915.0144   23360913.4084
     -1762.7724
  -9550739.62949  -7420851.55946  20482845.1234   20482842.1154
      2444.2174
  -5760992.33248  -4483138.29343  22779882.6394   22779879.2604
      3847.8764
 04  9 10 15 43 59.9980000  0  6G 1G11G14G22G25G20
  -9694290.00449  -7532799.28546  20799961.1314   20799959.6584
      2700.1254
  -6886564.98048  -5350143.31246  20790707.2324   20790704.1894
      1427.9104
   3641037.87548   2830178.50444  21419213.0064   21419210.4434
     -1541.5484
   4691878.18048   3644599.14142  23365951.7094   23365950.6744
     -1764.5824
  -9587285.90249  -7449329.16846  20475890.4904   20475887.8184
      2436.4184
  -5818703.48847  -4528108.04743  22768899.9204   22768897.6274
      3847.4104
 04  9 10 15 44 14.9980000  0  6G 1G11G14G22G25G20
  -9734721.94549  -7564304.68045  20792267.3974   20792264.9824
      2695.4634
  -6907855.31649  -5366733.18746  20786655.7644   20786652.2564
      1419.3564
   3664192.73847   2848221.23044  21423619.2644   21423616.3854
     -1543.6584
   4718372.93847   3665244.34842  23370993.9754   23370991.5374
     -1766.3174
  -9623716.23849  -7477716.43046  20468958.3264   20468955.0964
      2428.6894
  -5876408.73848  -4573073.13343  22757919.1074   22757916.5414
      3847.0174
 04  9 10 15 44 29.9980000  0  6G 1G11G14G22G25G20
  -9775083.78149  -7595755.45345  20784586.0764   20784584.7644
      2690.7894
  -6929016.88749  -5383222.73845  20782629.2564   20782625.6704
      1410.7714
   3687379.17648   2866288.55944  21428031.5294   21428028.7684
     -1545.7624
   4744893.81347   3685909.89842  23376040.6704   23376038.9714
     -1768.0584
  -9660030.18749  -7506013.01246  20462047.4674   20462044.7364
      2420.9304
  -5934107.69147  -4618033.34842  22746938.8264   22746936.7134
      3846.5974
 04  9 10 15 44 44.9980000  0  6G 1G11G14G22G25G20
  -9815374.03549  -7627150.43445  20776919.6234   20776917.7404
      2686.0174
  -6950048.21148  -5399610.78946  20778627.0294   20778623.5224
      1402.0884
   3710598.45748   2884381.47744  21432450.1074   21432447.3264
     -1547.9524
   4771442.36747   3706597.02742  23381092.4434   23381091.3854
     -1769.9044
  -9696226.19548  -7534217.68446  20455159.7174   20455156.7834
      2413.0674
  -5991798.69548  -4662987.36742  22735961.0294   22735957.9824
      3846.0674
 04  9 10 15 44 59.9980000  0  6G 1G11G14G22G25G20
  -9855594.42249  -7658490.98846  20769266.0844   20769264.2524
      2681.3594
  -6970950.98848  -5415898.67646  20774649.0924   20774646.0844
      1393.5184
   3733848.69548   2902498.51244  21436874.6704   21436871.9394
     -1550.0164
   4798016.76247   3727304.27742  23386150.0144   23386147.9554
     -1771.6264
  -9732305.80548  -7562331.66046  20448294.0614   20448291.1744
      2405.3074
  -6049483.32848  -4707936.44543  22724983.6074   22724981.2174
      3845.6424
 04  9 10 15 45 14.9980000  0  6G 1G11G14G22G25G20
  -9895745.78149  -7689777.75045  20761625.4754   20761623.3224
      2676.7574
  -6991726.10549  -5432087.09446  20770695.4984   20770692.6974
      1385.0084
   3757128.88348   2920638.88744  21441305.1074   21441301.6274
     -1552.0124
   4824616.04747   3748030.94942  23391211.1624   23391209.3074
     -1773.2864
  -9768269.59849  -7590355.38746  20441450.4594   20441447.4124
      2397.5864
  -6107162.39148  -4752881.16442  22714008.4594   22714005.3694
      3845.2714
 04  9 10 15 45 29.9980000  0  6G 1G11G14G22G25G20
  -9935826.55149  -7721009.52045  20753998.3974   20753996.7014
      2672.0514
  -7012371.91849  -5448174.74645  20766767.0144   20766764.2214
      1376.3884
   3780440.20348   2938803.53544  21445740.6864   21445738.1354
     -1554.0884
   4851241.76647   3768778.21142  23396278.5224   23396275.3734
     -1775.0484
  -9804115.85249  -7618287.51646  20434629.0844   20434625.9824
      2389.7504
  -6164834.11748  -4797820.16043  22703033.9754   22703029.8694
      3844.7824
 04  9 10 15 45 44.9980000  0  6G 1G11G14G22G25G20
  -9975837.02749  -7752186.50446  20746384.3974   20746382.5534
      2667.3654
  -7032888.49649  -5464161.69546  20762863.1074   20762859.7874
      1367.7724
   3803782.28548   2956992.14844  21450182.1004   21450179.6894
     -1556.1394
   4877893.53547   3789545.78942  23401349.7324   23401347.4124
     -1776.7854
  -9839844.86349  -7646128.30946  20427830.3344   20427827.4674
      2381.9344
  -6222498.72748  -4842753.63343  22692060.0064   22692057.5884
      3844.3074
 04  9 10 15 45 59.9980000  0  6G 1G11G14G22G25G20
 -10015778.00849  -7783309.34045  20738784.0844   20738782.0334
      2662.7324
  -7053276.66848  -5480048.59046  20758983.6154   20758979.9904
      1359.2114
   3827154.14148   2975203.95344  21454630.1934   21454627.2954
     -1558.1244
   4904570.62947   3810333.04742  23406426.2874   23406424.8144
     -1778.4734
  -9875457.28148  -7673878.24246  20421053.1704   20421050.5614
      2374.1614
  -6280156.87548  -4887682.06243  22681088.0614   22681086.4824
      3843.8774
 04  9 10 15 46 14.9980000  0  6G 1G11G14G22G25G20
 -10055649.12549  -7814377.73845  20731196.8734   20731194.3264
      2658.0744
  -7073535.94549  -5495835.05545  20755128.1234   20755125.1234
      1350.6184
   3850556.01248   2993439.14144  21459083.2484   21459080.6004
     -1560.1254
   4931273.37147   3831140.32042  23411507.2874   23411505.9714
     -1780.1834
  -9910952.39849  -7701536.76646  20414298.5294   20414295.9824
      2366.3414
  -6337808.02748  -4932605.02742  22670117.5534   22670115.1504
      3843.4104
 04  9 10 15 46 29.9980000  0  6G 1G11G14G22G25G20
 -10095449.40649  -7845390.93745  20723622.8184   20723620.6194
      2653.3524
  -7093665.50849  -5511520.43446  20751297.7724   20751294.2874
      1341.9714
   3873988.55148   3011698.24244  21463542.2094   21463539.6234
     -1562.1694
   4958002.53547   3851968.18042  23416594.4514   23416592.6584
     -1781.9444
  -9946329.29349  -7729103.17646  20407566.4594   20407564.2834
      2358.4604
  -6395451.10948  -4977521.69543  22659148.1234   22659146.0534
      3842.8724
 04  9 10 15 46 44.9980000  0  6G 1G11G14G22G25G20
 -10135179.80549  -7876349.68745  20716062.3654   20716060.6864
      2648.6934
  -7113666.07849  -5527105.30546  20747491.5844   20747488.4554
      1333.3714
   3897450.62548   3029980.35544  21468007.1154   21468004.2254
     -1564.1384
   4984757.24247   3872815.96142  23421685.2874   23421683.9634
     -1783.6474
  -9981588.69548  -7756578.02346  20400856.9674   20400854.3184
      2350.6274
  -6453086.84848  -5022432.64543  22648181.1004   22648178.3974
      3842.3834
 04  9 10 15 46 59.9980000  0  6G 1G11G14G22G25G20
 -10174840.05149  -7907253.75845  20708516.0224   20708513.6314
      2644.0164
  -7133537.58249  -5542589.59846  20743710.2174   20743706.9244
      1324.7674
   3920942.30148   3048285.52744  21472477.2874   21472474.8034
     -1566.1124
   5011537.64547   3893683.75842  23426781.7014   23426779.2834
     -1785.3604
 -10016730.16849  -7783960.97746  20394169.9044   20394167.1314
      2342.7654
  -6510714.84848  -5067337.59043  22637214.5764   22637212.0884
      3841.8674
 04  9 10 15 47 14.9980000  0  6G 1G11G14G22G25G20
 -10214430.02749  -7938103.09445  20700981.8504   20700979.6704
      2639.3324
  -7153279.61749  -5557973.01646  20739953.4044   20739950.1114
      1316.1364
   3944463.59849   3066613.77744  21476953.4824   21476950.8774
     -1568.0864
   5038343.94147   3914571.71942  23431882.9904   23431881.0414
     -1787.0864
 -10051753.60249  -7811251.96946  20387505.4514   20387502.6114
      2334.8964
  -6568334.84848  -5112236.27743  22626249.9284   22626247.0294
      3841.3334
 04  9 10 15 47 29.9980000  0  6G 1G11G14G22G25G20
 -10253950.67649  -7968898.39845  20693461.1934   20693458.9164
      2634.7104
  -7172893.11749  -5573256.27046  20736220.8344   20736217.6394
      1307.5674
   3968013.29749   3084964.16044  21481434.3574   21481432.0224
     -1569.9804
   5065175.11347   3935479.09042  23436989.2094   23436987.0724
     -1788.7454
 -10086659.76249  -7838451.56246  20380862.8344   20380859.7214
      2327.0774
  -6625947.65248  -5157129.37542  22615287.1624   22615283.2404
      3840.8544
 04  9 10 15 47 44.9980000  0  6G 1G11G14G22G25G20
 -10293401.95749  -7999639.65245  20685954.2404   20685951.3934
      2630.0854
  -7192377.93448  -5588439.25045  20732513.1394   20732509.7214
      1298.9884
   3991591.24249   3103336.55544  21485921.6704   21485919.0184
     -1571.8634
   5092031.13747   3956405.80142  23442099.7324   23442097.9714
     -1790.4024
 -10121448.35548  -7865559.55546  20374242.7014   20374239.6824
      2319.2404
  -6683553.05948  -5202016.71143  22604324.2724   22604321.5684
      3840.3604
 04  9 10 15 47 59.9980000  0  6G 1G11G14G22G25G20
 -10332783.44949  -8030326.52045  20678460.2014   20678457.7524
      2625.4334
  -7211733.60549  -5603521.60245  20728829.7014   20728826.1934
      1290.3784
   4015197.65648   3121731.13344  21490413.6004   21490411.4474
     -1573.7614
   5118912.34047   3977352.14842  23447214.2794   23447212.9824
     -1792.0804
 -10156118.85949  -7892575.52046  20367645.2564   20367642.0804
      2311.3674
  -6741150.57848  -5246897.86343  22593363.7564   22593361.5294
      3839.8354
 04  9 10 15 48 14.9980000  0  6G 1G11G14G22G25G20
 -10372095.49249  -8060959.26246  20670979.0764   20670976.9124
      2620.8034
  -7230960.36348  -5618503.50446  20725171.1234   20725167.7094
      1281.7844
   4038832.12149   3140147.57044  21494911.0064   21494908.5374
     -1575.6314
   5145818.31647   3998317.79342  23452334.5454   23452333.4124
     -1793.7324
 -10190671.46949  -7919499.62946  20361069.6154   20361067.4044
      2303.5074
  -6798740.45348  -5291773.10943  22582404.7404   22582401.9124
      3839.3254
 04  9 10 15 48 29.9980000  0  6G 1G11G14G22G25G20
 -10411337.23049  -8091537.23445  20663511.4984   20663509.4794
      2616.1164
  -7250057.52349  -5633384.41446  20721537.3264   20721533.8734
      1273.1444
   4062495.13749   3158586.25044  21499414.3654   21499411.6934
     -1577.5344
   5172749.89146   4019303.37942  23457459.2324   23457458.0884
     -1795.4384
 -10225105.23449  -7946331.12146  20354517.3034   20354514.2724
      2295.5844
  -6856321.56648  -5336641.50043  22571447.7954   22571445.5024
      3838.7414
 04  9 10 15 48 44.9980000  0  6G 1G11G14G22G25G20
 -10450509.66049  -8122061.20345  20656057.0844   20656055.2644
      2611.4954
  -7269025.92648  -5648165.00045  20717927.6784   20717924.8934
      1264.5604
   4086185.60249   3177046.33244  21503922.2954   21503919.7174
     -1579.3644
   5199706.00446   4040308.11342  23462589.0924   23462587.0924
     -1797.0744
 -10259420.98048  -7973070.65646  20347987.2254   20347984.6234
      2287.7164
  -6913894.77048  -5381503.72743  22560491.5294   22560489.3384
      3838.2144
 04  9 10 15 48 59.9980000  0  6G 1G11G14G22G25G20
 -10489612.21549  -8152530.71145  20648616.5374   20648614.0104
      2606.8374
  -7287864.95749  -5662844.77746  20714342.9754   20714339.6664
      1255.9354
   4109903.98048   3195528.16044  21508436.0924   21508433.4324
     -1581.2254
   5226687.32046   4061332.45342  23467723.7014   23467721.8034
     -1798.7544
 -10293617.93449  -7999717.63346  20341479.9754   20341477.1234
      2279.7974
  -6971459.35948  -5426359.24243  22549537.9284   22549535.3544
      3837.6394
 04  9 10 15 49 14.9980000  0  6G 1G11G14G22G25G20
 -10528644.96149  -8182945.84446  20641188.5844   20641186.6154
      2602.1834
  -7306574.76649  -5677423.86346  20710782.3264   20710778.8384
      1247.3214
   4133649.90648   3214031.44944  21512954.7644   21512951.8854
     -1583.0624
   5253693.66846   4082376.32042  23472863.1234   23472861.3384
     -1800.4234
 -10327696.18049  -8026272.10546  20334995.2174   20334992.2404
      2271.8834
  -7029015.33648  -5471208.03943  22538585.3734   22538582.2524
      3837.0654
 04  9 10 15 49 29.9980000  0  6G 1G11G14G22G25G20
 -10567608.89549  -8213307.34046  20633773.9364   20633771.6974
      2597.5964
  -7325156.18049  -5691902.89546  20707246.4674   20707243.2444
      1238.7614
   4157422.19949   3232555.28944  21517478.5534   21517475.6934
     -1584.8204
   5280723.99646   4103438.86342  23478007.1544   23478004.8854
     -1802.0224
 -10361656.41449  -8052734.61346  20328532.3974   20328529.8654
      2264.0164
  -7086563.45748  -5516050.72342  22527634.3034   22527631.3264
      3836.5414
 04  9 10 15 49 44.9980000  0  6G 1G11G14G22G25G20
 -10606503.48849  -8243614.79345  20626372.8114   20626370.8774
      2592.9734
  -7343608.65248  -5706281.45745  20703734.9594   20703731.7054
      1230.1654
   4181221.16049   3251099.90644  21522007.2324   21522004.5374
     -1586.5974
   5307778.71146   4124520.41842  23483154.9284   23483153.9944
     -1803.6484
 -10395498.16049  -8079104.80946  20322092.5294   20322090.0294
      2256.1164
  -7144103.07448  -5560886.78943  22516684.9754   22516681.7174
      3835.9744
 04  9 10 15 49 59.9980000  0  6G 1G11G14G22G25G20
 -10645327.97749  -8273867.64545  20618984.7014   20618982.3974
      2588.2994
  -7361931.38748  -5720558.92246  20700248.3114   20700245.1074
      1221.5164
   4205047.49249   3269665.85244  21526541.1474   21526539.0334
     -1588.4224
   5334858.59845   4145621.55942  23488307.5454   23488306.7874
     -1805.3264
 -10429220.46149  -8105381.91446  20315675.2724   20315673.2834
      2248.1534
  -7201633.27048  -5605715.53143  22505737.1864   22505734.3224
      3835.3464
 04  9 10 15 50 14.9980000  0  6G 1G11G14G22G25G20
 -10684082.53549  -8304065.98046  20611609.7644   20611607.2444
      2583.6374
  -7380124.48448  -5734735.36345  20696786.3814   20696782.3464
      1212.8734
   4228900.75449   3288252.77744  21531080.5844   21531077.5534
     -1590.2174
   5361963.41846   4166742.16042  23493465.7324   23493464.1824
     -1806.9884
 -10462823.30548  -8131565.94146  20309281.0684   20309278.5064
      2240.1904
  -7259154.12548  -5650536.95743  22494791.1154   22494789.0294
      3834.7244
 04  9 10 15 50 29.9980000  0  6G 1G11G14G22G25G20
 -10722767.44949  -8334210.05146  20604248.5294   20604246.3144
      2578.9944
  -7398188.12549  -5748810.93745  20693348.6624   20693345.0534
      1204.2434
   4252780.50049   3306860.33644  21535624.6154   21535621.9044
     -1591.9834
   5389092.94146   4187881.99642  23498628.7174   23498626.9634
     -1808.6354
 -10496306.87149  -8157657.03946  20302909.1474   20302906.6584
      2232.2384
  -7316665.56648  -5695351.05943  22483847.6154   22483844.7754
      3834.0964
 04  9 10 15 50 44.9980000  0  6G 1G11G14G22G25G20
 -10761383.28549  -8364300.31646  20596900.2254   20596897.9984
      2574.3894
  -7416122.91849  -5762786.10945  20689936.0294   20689932.9004
      1195.6534
   4276686.01249   3325487.98044  21540173.4364   21540171.1314
     -1593.7014
   5416246.57046   4209040.62142  23503795.8424   23503793.6934
     -1810.2424
 -10529671.61749  -8183655.52346  20296560.1474   20296557.7484
      2224.3164
  -7374168.03548  -5740158.18043  22472905.7174   22472902.3544
      3833.4984
 04  9 10 15 50 59.9980000  0  6G 1G11G14G22G25G20
 -10799929.51249  -8394336.34046  20589564.9124   20589562.7834
      2569.7484
  -7433928.32048  -5776660.46145  20686547.8114   20686544.7174
      1187.0274
   4300617.64148   3344135.98844  21544727.5924   21544724.6234
     -1595.4424
   5443424.67646   4230218.32842  23508968.2954   23508966.2214
     -1811.8744
 -10562916.69949  -8209560.77746  20290234.0764   20290230.8504
      2216.3394
  -7431661.02748  -5784957.91443  22461964.3264   22461962.0254
      3832.8664
 04  9 10 15 51 14.9980000  0  6G 1G11G14G22G25G20
 -10838406.75849  -8424318.59046  20582242.9824   20582240.8074
      2565.1504
  -7451604.89148  -5790434.42245  20683183.7644   20683180.7724
      1178.4384
   4324574.54748   3362803.66444  21549286.4984   21549283.7644
     -1597.1274
   5470626.64146   4251414.62542  23514143.8814   23514143.3384
     -1813.4644
 -10596042.72748  -8235373.25846  20283930.1154   20283927.7324
      2208.4024
  -7489144.95748  -5829750.61343  22451025.1624   22451022.6234
      3832.2624
 04  9 10 15 51 29.9980000  0  6G 1G11G14G22G25G20
 -10876815.09449  -8454247.16046  20574934.2484   20574931.8344
      2560.5564
  -7469152.54748  -5804107.92646  20679844.8654   20679841.7094
      1169.8444
   4348556.52348   3381490.88344  21553849.8264   21553847.3814
     -1598.7984
   5497852.35946   4272629.41442  23519325.5374   23519323.9324
     -1815.0484
 -10629049.63748  -8261092.93046  20277649.2794   20277646.4244
      2200.4614
  -7546619.60248  -5874536.01643  22440088.4904   22440085.6744
      3831.6434
 04  9 10 15 51 44.9980000  0  6G 1G11G14G22G25G20
 -10915153.77349  -8484121.44946  20567638.6314   20567635.8694
      2555.9124
  -7486570.61348  -5817680.44546  20676529.9124   20676526.7484
      1161.2044
   4372564.09849   3400198.06344  21558418.7954   21558415.8574
     -1600.5054
   5525102.59046   4293863.31642  23524510.8894   23524509.6744
     -1816.6824
 -10661936.59848  -8286719.12146  20271391.0374   20271388.2604
      2192.4644
  -7604084.12148  -5919313.57843  22429153.8114   22429151.2094
      3830.9684
 04  9 10 15 51 59.9980000  0  6G 1G11G14G22G25G20
 -10953422.68749  -8513941.38346  20560356.0064   20560353.4084
      2551.2614
  -7503858.93049  -5831151.87146  20673240.2564   20673236.9984
      1152.5544
   4396597.25849   3418925.17244  21562992.2174   21562989.5224
     -1602.2114
   5552377.39546   4315116.36342  23529701.4044   23529698.9284
     -1818.3204
 -10694703.35949  -8312251.66446  20265156.0534   20265153.3144
      2184.4514
  -7661538.28548  -5964083.03543  22418220.4044   22418217.2604
      3830.2784
 04  9 10 15 52 14.9980000  0  6G 1G11G14G22G25G20
 -10991622.21549  -8543707.23846  20553087.1624   20553085.0064
      2546.6354
  -7521017.90649  -5844522.50846  20669975.1074   20669971.8934
      1143.9324
   4420655.41048   3437671.75844  21567569.8734   21567567.7054
     -1603.8774
   5579676.28946   4336388.19942  23534896.3654   23534893.7914
     -1819.9264
 -10727350.26249  -8337690.80146  20258943.4904   20258940.4824
      2176.4604
  -7718982.41048  -6008844.71143  22407289.0924   22407285.8774
      3829.6084
 04  9 10 15 52 29.9980000  0  6G 1G11G14G22G25G20
 -11029751.57049  -8573418.41846  20545831.4984   20545829.7364
      2541.9574
  -7538046.67248  -5857791.68045  20666734.3974   20666731.5614
      1135.2514
   4444739.21148   3456438.32444  21572153.3894   21572150.3574
     -1605.5874
   5606999.96946   4357679.34442  23540095.0924   23540093.2444
     -1821.5794
 -10759876.34848  -8363035.79746  20252753.6864   20252751.4004
      2168.4064
  -7776415.46548  -6053597.73043  22396360.2254   22396357.3344
      3828.8704
 04  9 10 15 52 44.9980000  0  6G 1G11G14G22G25G20
 -11067813.19949  -8603076.82846  20538588.2484   20538586.2404
      2537.4424
  -7554947.73048  -5870961.34046  20663518.6784   20663515.6864
      1126.7374
   4468845.86348   3475222.70744  21576740.5374   21576737.7684
     -1607.1104
   5634345.96946   4378987.87542  23545298.9434   23545296.9004
     -1823.0674
 -10792284.02748  -8388288.52746  20246586.6394   20246584.3344
      2160.5124
  -7833839.77048  -6098343.94143  22385431.7014   22385429.5964
      3828.2874
 04  9 10 15 52 59.9980000  0  6G 1G11G14G22G25G20
 -11105805.17649  -8632680.94946  20531358.8034   20531356.6894
      2532.7984
  -7571719.02348  -5884029.87945  20660326.9984   20660324.0144
      1118.0864
   4492977.28548   3494026.38344  21581332.6784   21581330.0574
     -1608.7614
   5661716.30946   4400315.36342  23550508.4204   23550505.3574
     -1824.6894
 -10824571.09849  -8413447.28146  20240442.5614   20240440.4044
      2152.4714
  -7891253.12948  -6143081.61343  22374506.8424   22374503.9904
      3827.5574
 04  9 10 15 53 14.9980000  0  6G 1G11G14G22G25G20
 -11143728.18749  -8662231.33646  20524142.0224   20524139.8734
      2528.2014
  -7588361.27348  -5896997.87145  20657160.3184   20657157.0294
      1109.4834
   4517132.59848   3512848.67244  21585929.3114   21585926.6544
     -1610.3544
   5689110.12546   4421661.15242  23555721.3504   23555719.2094
     -1826.2544
 -10856738.30149  -8438512.62946  20234321.3264   20234319.0494
      2144.4804
  -7948656.10248  -6187811.19543  22363583.1394   22363580.7994
      3826.8654
 04  9 10 15 53 29.9980000  0  5G 1G11G14G25G20
 -11181582.14549  -8691727.93046  20516938.7404   20516936.2874
      2523.5974
  -7604874.36348  -5909865.22345  20654017.9434   20654014.4394
      1100.8734
   4541311.67248   3531689.47744  21590530.2404   21590527.8264
     -1611.9384
 -10888785.26248  -8463484.27346  20228223.1314   20228220.7214
      2136.4644
  -8006048.43448  -6232532.50043  22352662.3814   22352658.8974
      3826.1554
 04  9 10 15 53 44.9980000  0  5G 1G11G14G25G20
 -11219367.13749  -8721170.77346  20509748.4364   20509746.2794
      2518.9994
  -7621258.32448  -5922631.95345  20650900.3344   20650896.6974
      1092.2644
   4565514.21948   3550548.57444  21595136.1474   21595133.9394
     -1613.5034
 -10920711.86348  -8488362.14846  20222147.3344   20222144.9794
      2128.4404
  -8063430.16448  -6277245.53143  22341742.3424   22341739.9244
      3825.4494
 04  9 10 15 53 59.9980000  0  5G 1G11G14G25G20
 -11257082.68049  -8750559.49646  20502571.8264   20502569.2134
      2514.3704
  -7637512.48849  -5935297.53945  20647807.1784   20647803.2914
      1083.6114
   4589740.57848   3569426.23844  21599746.1234   21599743.9164
     -1615.0914
 -10952517.59849  -8513145.82846  20216095.1234   20216092.6274
      2120.3824
  -8120800.51648  -6321949.70343  22330825.9124   22330822.1114
      3824.6904
 04  9 10 15 54 14.9980000  0  5G 1G11G14G25G20
 -11294727.86749  -8779893.40646  20495408.0764   20495405.4434
      2509.6794
  -7653635.95349  -5947861.29345  20644738.8504   20644735.1074
      1074.8984
   4613991.59448   3588323.10244  21604360.7404   21604358.2364
     -1616.7344
 -10984201.31248  -8537834.43446  20210066.1234   20210063.1784
      2112.2484
  -8178158.39148  -6366644.14543  22319910.9044   22319908.1704
      3823.8584
 04  9 10 15 54 29.9980000  0  5G 1G11G14G25G20
 -11332302.49649  -8809172.32846  20488257.6784   20488255.0964
      2504.9754
  -7669628.59848  -5960323.10245  20641695.4904   20641692.1784
      1066.1764
   4638267.27348   3607239.19144  21608980.2254   21608977.8144
     -1618.3794
 -11015762.82848  -8562427.80946  20204060.1074   20204057.4044
      2104.1014
  -8235503.48048  -6411328.62943  22308997.8504   22308995.6584
      3823.0064
 04  9 10 15 54 44.9980000  0  5G 1G11G14G25G20
 -11369807.03149  -8838396.64846  20481120.8734   20481118.2134
      2500.3024
  -7685490.93448  -5972683.37546  20638676.9204   20638673.6704
      1057.4894
   4662566.91848   3626173.95744  21613604.3574   21613601.9944
     -1619.9764
 -11047202.57049  -8586926.30546  20198077.5764   20198074.5454
      2095.9834
  -8292836.06648  -6456003.36743  22298088.2014   22298085.5964
      3822.1724
 04  9 10 15 54 59.9980000  0  5G 1G11G14G25G20
 -11407239.52049  -8867564.81246  20473997.7174   20473995.4514
      2495.4994
  -7701221.04748  -5984940.60545  20635683.8184   20635680.2564
      1048.6744
   4686892.36348   3645128.81344  21618233.4044   21618230.7684
     -1621.6964
 -11078518.48049  -8611328.30946  20192118.1784   20192115.7484
      2087.7274
  -8350153.94148  -6500666.65643  22287180.5294   22287178.4714
      3821.1924
 04  9 10 15 55 14.9980000  0  5G 1G11G14G25G20
 -11444600.83649  -8896677.52046  20466888.1314   20466885.7754
      2490.7544
  -7716819.68449  -5997095.39846  20632715.2014   20632711.8774
      1039.9094
   4711242.49648   3664102.91444  21622866.9754   21622865.2834
     -1623.3424
 -11109711.34849  -8635634.43446  20186182.1934   20186179.7364
      2079.5244
  -8407457.88348  -6545319.05943  22276276.5844   22276273.9474
      3820.2634
 04  9 10 15 55 29.9980000  0  5G 1G11G14G25G20
 -11481892.14549  -8925735.66846  20459791.7564   20459789.2404
      2486.0874
  -7732287.97348  -6009148.60946  20629771.8424   20629768.7444
      1031.2194
   4735615.97748   3683095.21544  21627505.2874   21627502.9674
     -1624.8994
 -11140782.10248  -8659845.40646  20180269.8654   20180267.1274
      2071.3844
  -8464749.02048  -6589961.50843  22265374.2324   22265371.3074
      3819.4094
 04  9 10 15 55 44.9980000  0  5G 1G11G14G25G20
 -11519112.68449  -8954738.67646  20452708.7484   20452706.7094
      2481.3694
  -7747625.13348  -6021099.65646  20626853.6154   20626850.0254
      1022.4774
   4760013.43048   3702106.18044  21632148.2564   21632145.9554
     -1626.4974
 -11171729.91449  -8683960.57446  20174380.6314   20174377.8504
      2063.1884
  -8522026.33648  -6634593.20743  22254474.4434   22254471.9244
      3818.4884
 04  9 10 15 55 59.9980000  0  5G 1G11G14G25G20
 -11556262.48849  -8983686.57046  20445639.3424   20445636.8464
      2476.6544
  -7762831.10249  -6032948.47345  20623960.0294   20623956.3654
      1013.7314
   4784434.68448   3721135.70744  21636795.3184   21636793.1864
     -1628.0844
 -11202554.69948  -8707979.88346  20168515.1864   20168512.0454
      2054.9864
  -8579289.60248  -6679213.92243  22243577.7174   22243574.9004
      3817.5514
 04  9 10 15 56 14.9980000  0  5G 1G11G14G25G20
 -11593342.82449  -9012580.32846  20438583.1074   20438581.2754
      2472.0224
  -7777907.19548  -6044696.09045  20621091.0684   20621087.2794
      1005.0734
   4808878.42648   3740182.74644  21641446.6154   21641444.1194
     -1629.5834
 -11233257.41848  -8731904.07446  20162672.2174   20162669.2914
      2046.8484
  -8636539.86348  -6723824.50843  22232683.4754   22232680.6784
      3816.6844
 04  9 10 15 56 29.9980000  0  5G 1G11G14G25G20
 -11630353.80949  -9041420.04746  20431540.2254   20431538.2134
      2467.3994
  -7792853.46549  -6056342.53545  20618246.8504   20618243.6864
       996.4184
   4833344.27748   3759247.02744  21646102.4824   21646100.0924
     -1631.0574
 -11263838.27349  -8755733.31246  20156852.8264   20156850.3114
      2038.7244
  -8693777.11348  -6768424.94943  22221791.9044   22221789.1474
      3815.8174
 04  9 10 15 56 44.9980000  0  5G 1G11G14G25G20
 -11667294.16449  -9070204.72746  20424510.6934   20424508.3934
      2462.6904
  -7807668.84849  -6067887.00045  20615427.4514   20615424.2724
       987.6924
   4857833.23448   3778329.31344  21650762.9674   21650759.9004
     -1632.5974
 -11294295.93748  -8779466.53946  20151056.7724   20151054.2644
      2030.5114
  -8750999.95348  -6813014.19143  22210902.4594   22210900.0334
      3814.8564
 04  9 10 15 56 59.9980000  0  5G 1G11G14G25G20
 -11704165.12149  -9098935.34046  20417494.5144   20417491.7174
      2458.0644
  -7822354.30549  -6079330.21546  20612633.0294   20612629.5144
       979.0304
   4882344.03148   3797428.60544  21655427.3814   21655424.2724
     -1634.0534
 -11324631.38749  -8803104.55946  20145284.3734   20145281.9044
      2022.3634
  -8808209.42248  -6857592.99243  22200016.2174   22200012.8854
      3813.9654
 04  9 10 15 57 14.9980000  0  5G 1G11G14G25G20
 -11740966.42649  -9127611.66846  20410491.2724   20410488.9554
      2453.4204
  -7836909.65648  -6090672.05546  20609863.3574   20609859.5964
       970.3574
   4906876.81348   3816545.02744  21660095.5614   21660093.0184
     -1635.5194
 -11354844.27748  -8826647.07046  20139535.0764   20139532.2794
      2014.1934
  -8865405.05148  -6902161.00843  22189131.3574   22189129.0884
      3813.0424
 04  9 10 15 57 29.9980000  0  5G 1G11G14G25G20
 -11777699.10549  -9156234.52346  20403501.3034   20403499.0454
      2448.8454
  -7851335.93749  -6101913.32045  20607118.0844   20607114.0924
       961.7524
   4931430.34048   3835677.61344  21664768.3184   21664765.8184
     -1636.9024
 -11384935.62948  -8850094.85946  20133808.6154   20133805.8894
      2006.0904
  -8922587.69548  -6946718.90643  22178250.6004   22178247.3114
      3812.1764
 04  9 10 15 57 44.9980000  0  5G 1G11G14G25G20
 -11814361.77749  -9184802.82446  20396524.7564   20396522.5924
      2444.1784
  -7865631.78148  -6113052.94145  20604397.3574   20604393.9124
       953.0564
   4956005.78548   3854827.27344  21669444.4284   21669442.2054
     -1638.3634
 -11414903.89848  -8873446.75446  20128105.8894   20128103.6434
      1997.8854
  -8979755.83248  -6991265.51643  22167371.2254   22167368.3114
      3811.2094
 04  9 10 15 57 59.9980000  0  5G 1G11G14G25G20
 -11850955.61749  -9213317.51246  20389561.1004   20389558.7684
      2439.5894
  -7879798.31249  -6124091.80146  20601701.6704   20601697.8694
       944.4354
   4980601.78948   3873992.96544  21674124.6864   21674122.3384
     -1639.7344
 -11444750.08649  -8896703.52046  20122426.5144   20122423.4004
      1989.7464
  -9036910.34848  -7035801.48443  22156496.2014   22156492.8934
      3810.3014
 04  9 10 15 58 14.9980000  0  5G 1G11G14G25G20
 -11887480.31649  -9241778.31646  20382610.3574   20382608.0804
      2434.9804
  -7893835.06248  -6135029.53945  20599030.3734   20599026.8144
       935.7834
   5005218.64548   3893174.89144  21678809.1154   21678806.8934
     -1641.1244
 -11474473.84848  -8919864.87946  20116770.4754   20116767.5804
      1981.5844
  -9094050.81248  -7080326.53143  22145622.3504   22145618.8144
      3809.3644
 04  9 10 15 58 29.9980000  0  5G 1G11G14G25G20
 -11923936.27749  -9270185.55146  20375673.2324   20375670.9634
      2430.3974
  -7907742.65649  -6145866.63745  20596384.1544   20596380.2604
       927.1734
   5029855.74248   3912372.60244  21683497.6934   21683495.2094
     -1642.4734
 -11504075.47349  -8942931.07846  20111137.3184   20111134.8224
      1973.4424
  -9151177.46948  -7124840.80943  22134750.9284   22134748.4824
      3808.4444
 04  9 10 15 58 44.9980000  0  5G 1G11G14G25G20
 -11960322.98449  -9298538.82046  20368749.4364   20368746.7874
      2425.7804
  -7921520.51249  -6156602.62945  20593762.0534   20593758.3894
       918.5244
   5054513.30948   3931586.25444  21688190.1154   21688187.9594
     -1643.8384
 -11533554.42249  -8965901.68046  20105527.5534   20105524.9124
      1965.2634
  -9208289.66048  -7169343.80543  22123883.4594   22123880.2954
      3807.4794
 04  9 10 15 58 59.9980000  0  5G 1G11G14G25G20
 -11996641.29749  -9326838.79746  20361837.9984   20361836.1704
      2421.2214
  -7935169.43448  -6167238.17245  20591165.0614   20591161.1504
       909.9284
   5079190.46948   3950815.18044  21692885.3974   21692883.0574
     -1645.1444
 -11562911.35548  -8988777.19946  20099941.1004   20099938.4864
      1957.1294
  -9265388.04348  -7213836.04743  22113017.4754   22113014.7524
      3806.5594
 04  9 10 15 59 14.9980000  0  5G 1G11G14G25G20
 -12032891.17649  -9355085.44146  20354940.1234   20354937.4904
      2416.6594
  -7948689.35249  -6177773.18045  20588592.3034   20588588.5374
       901.3284
   5103887.12148   3970059.30144  21697585.3184   21697582.8144
     -1646.4434
 -11592146.14849  -9011557.55146  20094377.8894   20094374.9754
      1948.9864
  -9322472.42248  -7258317.36743  22102155.2874   22102152.5884
      3805.6254
 04  9 10 15 59 29.9980000  0  6G 1G11G14G23G25G20
 -12069072.50049  -9383278.68046  20348055.1394   20348052.5294
      2412.0884
  -7962080.29349  -6188207.69146  20586044.0844   20586040.5614
       892.7294
   5128603.18848   3989318.53944  21702289.0294   21702286.5804
     -1647.7384
   -148865.14556   -105040.37952  23412284.5374   23412280.1394

 -11621258.61749  -9034242.58646  20088838.1074   20088834.9124
      1940.8314
  -9379542.30948  -7302787.39843  22091294.8654   22091291.5724
      3804.6594
 04  9 10 15 59 44.9980000  0  6G 1G11G14G23G25G20
 -12105185.05549  -9411418.33246  20341182.7954   20341180.6004
      2407.5044
  -7975341.99649  -6198541.49645  20583520.1864   20583516.8384
       884.1144
   5153338.72348   4008592.94944  21706995.4124   21706993.6824
     -1649.0364
   -208135.13346   -151224.76242  23401006.0294   23401000.8774
      3951.3334
 -11650248.51249  -9056832.10546  20083321.5924   20083318.4084
      1932.6604
  -9436597.47748  -7347245.98443  22080437.9434   22080434.4754
      3803.6784
 04  9 10 15 59 59.9980000  0  6G 1G11G14G23G25G20
 -12141230.63749  -9439505.78946  20334323.5764   20334321.0964
      2403.0394
  -7988476.12149  -6208775.88345  20581020.9434   20581018.0294
       875.6084
   5178091.87148   4027881.07044  21711706.3114   21711703.7684
     -1650.2104
   -267383.00846   -197391.94542  23389730.6474   23389726.8224
      3949.8584
 -11679117.39148  -9079327.34046  20077828.0144   20077825.0454
      1924.5924
  -9493639.48048  -7391694.30143  22069583.0224   22069580.2404
      3802.8004
 04  9 10 16  0 14.9980000  0  6G 1G11G14G23G25G20
 -12177209.78149  -9467541.48446  20327476.9044   20327474.6004
      2398.6104
  -8001483.14848  -6218911.23846  20578545.9824   20578542.6194
       867.1354
   5202861.92248   4047182.37144  21716419.3974   21716417.4164
     -1651.3374
   -326609.05146   -243542.15242  23378460.9434   23378456.1544
      3948.4034
 -11707865.66448  -9101728.57446  20072357.0064   20072354.4794
      1916.5524
  -9550668.56647  -7436132.53143  22058730.8894   22058728.4714
      3801.9394
 04  9 10 16  0 29.9980000  0  6G 1G11G14G23G25G20
 -12213122.80949  -9495525.64546  20320642.8734   20320640.9204
      2394.2024
  -8014363.43049  -6228947.84445  20576095.0684   20576091.2834
       858.6854
   5227648.37948   4066496.46144  21721136.3344   21721133.9554
     -1652.4304
   -385813.69546   -289675.59042  23367194.7724   23367190.3184
      3946.9764
 -11736493.59849  -9124036.05146  20066909.6474   20066906.6394
      1908.5294
  -9607684.93448  -7480560.85543  22047881.0454   22047877.5494
      3801.0914
 04  9 10 16  0 44.9980000  0  6G 1G11G14G23G25G20
 -12248969.18449  -9523457.87946  20313821.4514   20313819.4084
      2389.7584
  -8027116.72748  -6238885.48446  20573668.2014   20573664.3854
       850.2204
   5252451.63348   4085823.63344  21725856.5144   21725853.8344
     -1653.5504
   -444996.16046   -335791.80542  23355932.6074   23355927.9634
      3945.4984
 -11765000.63348  -9146249.31646  20061484.7404   20061482.0024
      1900.4694
  -9664687.80948  -7524978.68443  22037033.6314   22037031.2094
      3800.1924
 04  9 10 16  0 59.9980000  0  6G 1G11G14G23G25G20
 -12284748.36349  -9551337.76246  20307012.6154   20307010.7834
      2385.2794
  -8039742.26249  -6248723.57045  20571265.4364   20571261.9244
       841.7024
   5277272.11348   4105164.22744  21730579.7174   21730577.0064
     -1654.6994
   -504155.82447   -381890.21542  23344674.5614   23344671.3974
      3943.9784
 -11793386.11349  -9168367.87146  20056083.0924   20056080.1434
      1892.3654
  -9721676.54347  -7569385.46543  22026189.0224   22026186.2754
      3799.2494
 04  9 10 16  1 14.9970000  0  6G 1G11G14G23G25G20
 -12320459.12149  -9579164.32046  20300217.5174   20300215.3724
      2380.7174
  -8052240.41849  -6258462.40246  20568887.2824   20568883.9384
       833.2104
   5302106.82048   4124515.92644  21735305.2904   21735302.7634
     -1655.6474
   -563289.87946   -427968.69942  23333422.0954   23333418.0874
      3942.2704
 -11821649.16849  -9190391.02046  20050704.7984   20050702.1224
      1884.2044
  -9778648.27048  -7613779.03943  22015347.1184   22015344.2474
      3798.1154
 04  9 10 16  1 29.9970000  0  6G 1G11G14G23G25G20
 -12356104.83649  -9606940.19546  20293434.5564   20293432.0564
      2376.3814
  -8064611.60949  -6268102.30945  20566532.7594   20566529.4664
       824.7464
   5326960.28548   4143882.23043  21740034.8534   21740032.2084
     -1656.8984
   -622404.83647   -474032.24642  23322172.9784   23322168.6614
      3940.9974
 -11849792.07849  -9212320.55946  20045349.3294   20045346.5714
      1876.1944
  -9835609.03947  -7658164.04343  22004508.5094   22004504.6854
      3797.3854
 04  9 10 16  1 44.9970000  0  6G 1G11G14G23G25G20
 -12391684.07849  -9634664.28946  20286663.8454   20286661.7634
      2371.9494
  -8076855.82449  -6277643.27746  20564202.9934   20564199.4034
       816.2814
   5351829.83248   4163261.06344  21744767.5564   21744765.4034
     -1657.9704
   -681497.44147   -520078.44542  23310928.0794   23310923.7594
      3939.5074
 -11877813.97749  -9234155.80146  20040017.1884   20040014.1424
      1868.1274
  -9892555.77048  -7702538.13743  21993671.1884   21993668.6304
      3796.4494
 04  9 10 16  1 59.9970000  0  6G 1G11G14G23G25G20
 -12427196.68049  -9662336.44546  20279905.9314   20279903.8924
      2367.5074
  -8088972.75449  -6287085.04345  20561897.5564   20561893.5994
       807.7954
   5376715.43448   4182652.41044  21749503.1184   21749500.8994
     -1659.0404
   -740567.57047   -566107.10942  23299687.1184   23299683.4354
      3938.0094
 -11905714.58249  -9255896.52046  20034707.7594   20034705.0284
      1860.0404
  -9949488.12948  -7746901.01243  21982837.2354   21982834.2554
      3795.4914
 04  9 10 16  2 14.9970000  0  6G 1G11G14G23G25G20
 -12462641.60249  -9689955.84846  20273160.8684   20273158.4814
      2362.9954
  -8100961.41048  -6296426.86745  20559615.6814   20559612.7084
       799.2444
   5401617.90648   4202056.89844  21754241.9384   21754239.6854
     -1660.1654
   -799613.96947   -612117.31642  23288450.6884   23288447.0244
      3936.4274
 -11933492.74648  -9277541.84046  20029421.8684   20029419.2864
      1851.8784
 -10006404.91447  -7791251.75843  21972006.3994   21972003.9584
      3794.4524
 04  9 10 16  2 29.9970000  0  6G 1G11G14G23G25G20
 -12498019.08649  -9717522.72746  20266429.0244   20266426.2594
      2358.4994
  -8112822.15249  -6305669.00845  20557358.8064   20557355.5284
       790.7164
   5426536.98048   4221474.32444  21758983.8374   21758982.0364
     -1661.2724
   -858636.79347   -658109.10542  23277218.6964   23277215.1964
      3934.8554
 -11961148.39849  -9299091.69546  20024159.0564   20024156.4034
      1843.7104
 -10063306.09448  -7835590.30543  21961179.0094   21961176.6424
      3793.4124
 04  9 10 16  2 44.9970000  0  6G 1G11G14G23G25G20
 -12533329.27049  -9745037.14546  20259709.8134   20259707.8844
      2354.0124
  -8124555.14149  -6314811.61745  20555126.3134   20555122.7674
       782.1994
   5451472.44948   4240904.51244  21763729.2514   21763727.0404
     -1662.3654
   -917635.96147   -704082.43742  23265992.5794   23265988.6494
      3933.2784
 -11988681.68749  -9320546.19946  20018919.7744   20018916.9544
      1835.5534
 -10120191.61347  -7879916.67243  21950354.1734   21950350.7204
      3792.3684
 04  9 10 16  2 59.9970000  0  6G 1G11G14G23G25G20
 -12568572.91049  -9772499.71546  20253003.0014   20253001.0054
      2349.5764
  -8136160.99249  -6323855.14145  20552917.5874   20552914.4154
       773.7234
   5476423.38748   4260346.78143  21768477.2514   21768474.6814
     -1663.3964
   -976612.27347   -750037.97342  23254769.0794   23254765.8104
      3931.7544
 -12016093.35949  -9341905.93746  20013703.4074   20013700.5134
      1827.4454
 -10177061.92647  -7924231.21943  21939532.4074   21939528.6924
      3791.3544
 04  9 10 16  3 14.9970000  0  6G 1G11G14G23G25G20
 -12603748.67649  -9799909.39546  20246309.2674   20246306.8494
      2345.0514
  -8147638.56249  -6332798.71545  20550733.6034   20550730.1224
       765.1714
   5501390.95348   4279802.00043  21773228.3844   21773225.9034
     -1664.5044
  -1035564.33247   -795974.66442  23243550.8684   23243547.1854
      3930.1374
 -12043381.98449  -9363169.79746  20008510.3994   20008507.5444
      1819.2424
 -10233915.66847  -7968532.84443  21928712.4154   21928710.7514
      3790.2494
 04  9 10 16  3 29.9970000  0  6G 1G11G14G23G25G20
 -12638856.48049  -9827266.12546  20239628.6424   20239626.0874
      2340.5204
  -8158987.73048  -6341642.23845  20548573.8374   20548570.3604
       756.6114
   5526374.97348   4299270.03943  21777982.8064   21777980.1034
     -1665.6014
  -1094491.97347   -841892.29742  23232336.9234   23232333.6144
      3928.5094
 -12070547.34849  -9384337.60546  20003341.0094   20003338.3334
      1811.0244
 -10290752.51247  -8012821.28543  21917897.1574   21917894.2554
      3789.1234
 04  9 10 16  3 44.9970000  0  6G 1G11G14G23G25G20
 -12673897.46549  -9854570.78946  20232960.7514   20232957.7204
      2336.0664
  -8170209.59048  -6350386.54746  20546438.4464   20546434.9854
       748.1244
   5551374.33648   4318750.03543  21782739.3994   21782737.2204
     -1666.6244
  -1153396.13347   -887791.64143  23221129.0634   23221124.7714
      3926.9444
 -12097590.43449  -9405410.14146  19998194.8214   19998192.3024
      1802.8724
 -10347573.28947  -8057097.23043  21907084.3534   21907081.7244
      3788.0524
 04  9 10 16  3 59.9970000  0  6G 1G11G14G23G25G20
 -12708871.87149  -9881823.56646  20226305.1814   20226302.4584
      2331.6274
  -8181304.47749  -6359031.93445  20544327.0794   20544323.7124
       739.6594
   5576388.60248   4338241.63343  21787499.4784   21787497.7744
     -1667.6184
  -1212276.98447   -933672.82442  23209923.6814   23209919.7554
      3925.3904
 -12124511.52349  -9426387.60546  19993071.8994   19993069.6144
      1794.7394
 -10404378.11747  -8101360.71144  21896274.7904   21896273.2904
      3786.9894
 04  9 10 16  4 14.9970000  0  6G 1G11G14G23G25G20
 -12743778.75449  -9909023.72746  20219662.4464   20219660.3924
      2327.1264
  -8192271.26648  -6367577.48445  20542240.0874   20542237.0524
       731.1194
   5601418.71148   4357745.58243  21792262.5484   21792260.9194
     -1668.6744
  -1271133.50447   -979535.05942  23198724.1814   23198720.5874
      3923.7684
 -12151309.62549  -9447269.23846  19987972.3924   19987970.0794
      1786.5404
 -10461165.82847  -8145610.87143  21885469.3994   21885466.0834
      3785.8474
 04  9 10 16  4 29.9970000  0  6G 1G11G14G23G25G20
 -12778618.95749  -9936171.93446  20213032.5094   20213030.5674
      2322.6804
  -8203111.02048  -6376024.05945  20540177.4234   20540174.1924
       722.6504
   5626463.42248   4377260.89543  21797028.7434   21797026.4314
     -1669.6474
  -1329966.50847  -1025378.93042  23187528.5484   23187524.6384
      3922.2004
 -12177985.44149  -9468055.58246  19982895.9934   19982893.6264
      1778.3884
 -10517937.18447  -8189848.28944  21874665.4784   21874663.1494
      3784.7574
 04  9 10 16  4 44.9970000  0  6G 1G11G14G23G25G20
 -12813393.02349  -9963268.59846  20206415.3604   20206412.5794
      2318.2714
  -8213824.23849  -6384372.03545  20538138.8454   20538135.7674
       714.2154
   5651522.28548   4396787.25043  21801797.7204   21801795.1344
     -1670.5914
  -1388776.27047  -1071204.70742  23176336.4314   23176333.5484
      3920.6514
 -12204539.40249  -9488746.98046  19977843.1964   19977840.6264
      1770.2644
 -10574692.36747  -8234073.11743  21863865.0244   21863863.1734
      3783.6794
 04  9 10 16  4 59.9970000  0  6G 1G11G14G23G25G20
 -12848099.41049  -9990312.53946  20199810.8374   20199808.0174
      2313.7594
  -8224409.38349  -6392620.21546  20536125.0244   20536121.4074
       705.6764
   5676596.61348   4416325.65644  21806569.1734   21806566.5484
     -1671.6224
  -1447561.26647  -1117011.19542  23165150.7434   23165146.9114
      3919.0004
 -12230969.85249  -9509342.12546  19972813.8064   19972810.8174
      1762.0304
 -10631429.58648  -8278283.91443  21853068.1574   21853065.2984
      3782.4814
 04  9 10 16  5 14.9970000  0  6G 1G11G14G23G25G20
 -12882738.55149 -10017304.06246  20193219.2354   20193217.2744
      2309.2764
  -8234866.85949  -6400768.89545  20534134.6104   20534131.5754
       697.1654
   5701686.01648   4435875.81343  21811343.1494   21811341.1774
     -1672.6274
  -1506321.78947  -1162798.58642  23153968.5954   23153964.2354
      3917.3684
 -12257277.24649  -9529841.39146  19967807.6104   19967804.9814
      1753.8264
 -10688149.14147  -8322480.96543  21842275.0714   21842272.2204
      3781.3044
 04  9 10 16  5 29.9970000  0  6G 1G11G14G23G25G20
 -12917310.12549 -10044242.94546  20186640.7354   20186638.7044
      2304.7724
  -8245196.52749  -6408818.00445  20532169.1104   20532165.8924
       688.6454
   5726790.50848   4455437.72343  21816120.0174   21816118.2554
     -1673.6334
  -1565057.55147  -1208566.70742  23142791.8764   23142787.6814
      3915.7174
 -12283461.25449  -9550244.50846  19962825.1264   19962822.2594
      1745.6014
 -10744850.57048  -8366663.89543  21831485.0874   21831482.7124
      3780.0954
 04  9 10 16  5 44.9970000  0  6G 1G11G14G23G25G20
 -12951814.55149 -10071129.50846  20180074.5244   20180072.1814
      2300.2954
  -8255398.77348  -6416767.81246  20530227.5484   20530224.4424
       680.1504
   5751909.52348   4475010.94143  21820899.9854   21820898.3334
     -1674.6014
  -1623768.76247  -1254315.71142  23131618.9074   23131614.9664
      3914.0814
 -12309522.23848  -9570551.76246  19957865.6964   19957863.1264
      1737.3994
 -10801534.02048  -8410832.82843  21820698.6424   21820696.1814
      3778.8974
 04  9 10 16  5 59.9970000  0  6G 1G11G14G23G25G20
 -12986252.86349 -10097964.55146  20173521.0564   20173518.8844
      2295.8884
  -8265474.47349  -6424619.02046  20528310.3764   20528306.9544
       671.7134
   5777041.94948   4494594.62143  21825683.0484   21825680.7594
     -1675.4954
  -1682456.35247  -1300046.27742  23120451.4384   23120447.6304
      3912.5064
 -12335461.00449  -9590763.78546  19952929.6494   19952926.8564
      1729.2514
 -10858200.30947  -8454988.37143  21809915.1494   21809913.2354
      3777.7534
 04  9 10 16  6 14.9970000  0  6G 1G11G14G23G25G20
 -13020623.51249 -10124746.86746  20166980.4624   20166978.2284
      2291.3774
  -8275422.16849  -6432370.48446  20526417.1184   20526413.9314
       663.1804
   5802189.23448   4514189.86743  21830468.7044   21830466.2284
     -1676.4864
  -1741118.68747  -1345757.16442  23109287.9854   23109284.9154
      3910.8224
 -12361275.94949  -9610879.32046  19948017.2124   19948014.4584
      1720.9964
 -10914847.71948  -8499129.20743  21799135.6424   21799133.5054
      3776.4944
 04  9 10 16  6 29.9970000  0  6G 1G11G14G23G25G20
 -13054926.94949 -10151476.81246  20160452.8214   20160450.6464
      2286.8964
  -8285242.52348  -6440022.71945  20524548.8374   20524545.2124
       654.6904
   5827350.78548   4533796.23443  21835256.9154   21835254.3994
     -1677.4374
  -1799756.07047  -1391448.62142  23098129.7744   23098126.9384
      3909.1594
 -12386967.51249  -9630898.71146  19943128.3214   19943125.5834
      1712.7714
 -10971476.51648  -8543255.51243  21788359.7354   21788357.0874
      3775.2534
 04  9 10 16  6 44.9970000  0  6G 1G11G14G23G25G20
 -13089163.77749 -10178154.87546  20153937.8214   20153935.7824
      2282.4554
  -8294936.14849  -6447576.21546  20522703.9544   20522700.2314
       646.2424
   5852525.81648   4553413.10243  21840047.1964   21840045.2784
     -1678.3354
  -1858369.05147  -1437121.08642  23086976.0874   23086972.9424
      3907.5324
 -12412536.09849  -9650822.27046  19938262.6964   19938259.8214
      1704.5724
 -11028087.03948  -8587367.62143  21777587.0954   21777584.0914
      3774.0354
 04  9 10 16  6 59.9970000  0  6G 1G11G14G23G25G20
 -13123333.80549 -10204780.85946  20147435.2824   20147433.1534
      2278.0024
  -8304502.71149  -6455030.68045  20520883.2744   20520879.8294
       637.7714
   5877714.44148   4573040.57043  21844840.5794   21844838.2284
     -1679.2424
  -1916957.34847  -1482774.28943  23075827.4704   23075823.3254
      3905.8864
 -12437981.52049  -9670649.87546  19933420.7984   19933417.8724
      1696.3614
 -11084678.89848  -8631465.19543  21766818.2204   21766815.3964
      3772.7914
 04  9 10 16  7 14.9970000  0  6G 1G11G14G23G25G20
 -13157436.38749 -10231354.29346  20140946.0564   20140943.7594
      2273.5054
  -8313941.63749  -6462385.70745  20519087.3454   20519083.7634
       629.2624
   5902917.12548   4592678.99243  21849636.7044   21849634.5244
     -1680.1794
  -1975520.27347  -1528407.73042  23064682.8374   23064679.7944
      3904.1954
 -12463303.16049  -9690381.02046  19928602.2744   19928599.0754
      1688.1094
 -11141251.19948  -8675547.49643  21756053.0404   21756050.1344
      3771.4874
 04  9 10 16  7 29.9970000  0  6G 1G11G14G23G25G20
 -13191472.58649 -10257876.00846  20134468.9934   20134466.8374
      2269.0804
  -8323254.06249  -6469642.14845  20517315.2204   20517311.4194
       620.8284
   5928132.68848   4612327.44943  21854435.3214   21854432.3564
     -1681.0374
  -2034058.77347  -1574022.14542  23053543.7284   23053539.8254
      3902.5674
 -12488501.98849  -9710016.46546  19923806.9624   19923804.3174
      1679.9224
 -11197804.85948  -8719615.28143  21745290.4624   21745287.9544
      3770.2444
 04  9 10 16  7 44.9970000  0  6G 1G11G14G23G25G20
 -13225441.29349 -10284345.13346  20128004.8764   20128002.9274
      2264.5804
  -8332438.86749  -6476799.14145  20515567.3604   20515563.7944
       612.3204
   5953362.25848   4631986.81643  21859235.9314   21859233.7514
     -1681.9714
  -2092571.62547  -1619616.55142  23042409.3064   23042405.0134
      3900.8574
 -12513576.74649  -9729555.23446  19919035.3294   19919032.6224
      1671.6514
 -11254338.46948  -8763667.43743  21734532.9624   21734530.4814
      3768.9074
 04  9 10 16  7 59.9970000  0  6G 1G11G14G23G25G20
 -13259343.50049 -10310762.43746  20121553.7824   20121551.7044
      2260.1474
  -8341497.12949  -6483857.54745  20513843.5954   20513840.0874
       603.8844
   5978604.59447   4651656.12943  21864039.6034   21864037.1384
     -1682.8224
  -2151059.67647  -1665191.63742  23031279.2594   23031275.3454
      3899.2034
 -12538528.34049  -9748998.02746  19914287.2984   19914284.5674
      1663.4404
 -11310852.83648  -8807704.60543  21723778.1494   21723775.7514
      3767.6244
 04  9 10 16  8 14.9970000  0  6G 1G11G14G23G25G20
 -13293178.19549 -10337127.13346  20115115.0404   20115113.0014
      2255.6464
  -8350427.85248  -6490816.56245  20512144.1964   20512140.4854
       595.3824
   6003860.61748   4671336.10943  21868846.0484   21868843.2394
     -1683.7354
  -2209521.81247  -1710746.53942  23020154.0714   23020150.3104
      3897.4764
 -12563355.68448  -9768344.01246  19909562.6184   19909559.8884
      1655.1564
 -11367346.70348  -8851725.79744  21713028.2284   21713025.7124
      3766.2584
 04  9 10 16  8 29.9970000  0  6G 1G11G14G23G25G20
 -13326945.88349 -10363439.61346  20108689.5324   20108686.8294
      2251.1794
  -8359231.54748  -6497676.60245  20510468.7984   20510465.5914
       586.9134
   6029129.75847   4691026.32443  21873654.4234   21873651.9314
     -1684.6094
  -2267958.53147  -1756281.63742  23009034.1184   23009029.5994
      3895.7814
 -12588059.21948  -9787593.51246  19904861.7044   19904859.4154
      1646.9024
 -11423820.34448  -8895731.22344  21702281.9544   21702279.1534
      3764.9094
 04  9 10 16  8 44.9970000  0  6G 1G11G14G23G25G20
 -13360647.05149 -10389700.27746  20102276.8064   20102273.8764
      2246.7454
  -8367908.84849  -6504438.14845  20508818.0484   20508814.2904
       578.4874
   6054411.35948   4710726.23043  21878465.1424   21878462.3174
     -1685.4404
  -2326370.17247  -1801797.17242  22997918.6184   22997914.9154
      3894.1094
 -12612639.46549  -9806746.94146  19900184.0874   19900181.8844
      1638.6834
 -11480274.14148  -8939721.19943  21691538.6574   21691536.0174
      3763.5864
 04  9 10 16  8 59.9970000  0  6G 1G11G14G23G25G20
 -13394281.53149 -10415908.96546  20095875.7904   20095873.4464
      2242.2994
  -8376459.50849  -6511101.02345  20507190.4784   20507187.1884
       570.0444
   6079705.49248   4730435.91843  21883278.7514   21883275.7634
     -1686.2764
  -2384756.21547  -1847292.77742  22986808.2044   22986804.2004
      3892.4034
 -12637096.19949  -9825804.12546  19895530.3604   19895527.7164
      1630.4494
 -11536707.57448  -8983695.30544  21680799.7904   21680796.5324
      3762.2294
 04  9 10 16  9 14.9970000  0  6G 1G11G14G23G25G20
 -13427849.28149 -10442065.64546  20089488.0794   20089486.0014
      2237.8504
  -8384883.52749  -6517665.20345  20505587.4784   20505584.1654
       561.6014
   6105011.97748   4750155.21543  21888094.3064   21888091.9704
     -1687.0994
  -2443116.77747  -1892768.53942  22975702.7284   22975698.9974
      3890.7044
 -12661429.29749  -9844764.98446  19890899.8134   19890897.1884
      1622.2074
 -11593120.40648  -9027653.34844  21670064.7124   21670062.1614
      3760.8554
 04  9 10 16  9 29.9970000  0  6G 1G11G14G23G25G20
 -13461350.48849 -10468170.48046  20083113.3134   20083110.8644
      2233.4144
  -8393181.14849  -6524130.90645  20504008.7284   20504005.0014
       553.1754
   6130330.64148   4769884.02043  21892911.8134   21892909.7284
     -1687.9114
  -2501452.07047  -1938224.57442  22964601.1814   22964597.6924
      3889.0204
 -12685638.71949  -9863629.46146  19886293.2744   19886290.1534
      1613.9614
 -11649512.68748  -9071595.39144  21659333.2514   21659331.0954
      3759.4854
 04  9 10 16  9 44.9970000  0  6G 1G11G14G23G25G20
 -13494784.91849 -10494223.28546  20076750.5094   20076748.2944
      2228.9624
  -8401352.09849  -6530497.90645  20502453.7514   20502450.3534
       544.7304
   6155661.60948   4789622.39543  21897732.3924   21897730.0214
     -1688.7314
  -2559761.46947  -1983660.47742  22953504.7674   22953501.5284
      3887.2934
 -12709724.31649  -9882397.45346  19881709.6884   19881706.5954
      1605.7074
 -11705883.79748  -9115520.91444  21648606.6034   21648604.4504
      3758.0744
 04  9 10 16  9 59.9970000  0  6G 1G11G14G23G25G20
 -13528153.56649 -10520224.84046  20070401.1654   20070398.4464
      2224.5774
  -8409397.43048  -6536767.01645  20500923.2124   20500919.4194
       536.3554
   6181003.79348   4809369.50843  21902555.1424   21902552.7124
     -1689.4794
  -2618046.01647  -2029076.98842  22942413.9314   22942410.1774
      3885.6364
 -12733687.08248  -9901069.73846  19877149.7044   19877146.8804
      1597.5184
 -11762234.65248  -9159430.66444  21637883.2434   21637880.5404
      3756.7244
 04  9 10 16 10 14.9970000  0  6G 1G11G14G23G25G20
 -13561456.46549 -10546175.14146  20064063.7904   20064061.3534
      2220.1934
  -8417317.25449  -6542938.32045  20499415.3924   20499412.1574
       527.9884
   6206356.95748   4829125.19943  21907379.5094   21907377.3564
     -1690.2114
  -2676305.67247  -2074474.14142  22931327.3454   22931323.8494
      3883.9774
 -12757526.89849  -9919646.21146  19872612.9854   19872610.2554
      1589.3214
 -11818564.96948  -9203324.42644  21627164.1574   21627161.1304
      3755.3544
 04  9 10 16 10 29.9970000  0  6G 1G11G14G23G25G20
 -13594692.56649 -10572073.40646  20057739.0404   20057736.8254
      2215.7404
  -8425110.68048  -6549011.13746  20497932.5484   20497929.3534
       519.5624
   6231721.94148   4848890.08243  21912206.2824   21912204.6424
     -1690.9994
  -2734539.33247  -2119850.99242  22920246.3684   22920242.7824
      3882.2444
 -12781242.79348  -9938126.12546  19868099.8764   19868097.2164
      1581.0604
 -11874873.62548  -9247201.29344  21616448.8064   21616446.2744
      3753.9104
 04  9 10 16 10 44.9970000  0  6G 1G11G14G23G25G20
 -13627862.07449 -10597919.77046  20051427.1734   20051424.9814
      2211.3014
  -8432777.84449  -6554985.56645  20496473.6494   20496470.1574
       511.1444
   6257098.46548   4868663.97743  21917035.3064   21917033.3724
     -1691.7684
  -2792747.05147  -2165207.65642  22909169.5174   22909165.8104
      3880.5154
 -12804834.81249  -9956509.51246  19863610.7824   19863607.9504
      1572.8014
 -11931160.52748  -9291061.22344  21605737.2824   21605734.8844
      3752.4604
 04  9 10 16 10 59.9970000  0  6G 1G11G14G23G25G20
 -13660964.62549 -10623713.97746  20045127.6814   20045125.3644
      2206.8374
  -8440318.56249  -6560861.46145  20495038.7044   20495035.8334
       502.7154
   6282486.89848   4888447.12543  21921865.7124   21921864.8254
     -1692.5624
  -2850928.38747  -2210543.75842  22898098.7904   22898093.8454
      3878.7564
 -12828302.49249  -9974796.01646  19859144.9624   19859142.1384
      1564.5124
 -11987425.11348  -9334903.76244  21595030.8294   21595027.9584
      3750.9724
 04  9 10 16 11 14.9970000  0  6G 1G11G14G23G25G20
 -13694001.24649 -10649456.79346  20038841.1034   20038839.0014
      2202.4414
  -8447733.98049  -6566639.71946  20493627.9624   20493624.2864
       494.3614
   6307885.97748   4908238.57043  21926700.1184   21926697.7944
     -1693.2724
  -2909084.23047  -2255860.01242  22887031.7674   22887027.5094
      3877.0564
 -12851646.82849  -9992986.41046  19854702.7434   19854699.5954
      1556.2894
 -12043668.12948  -9378729.48444  21584328.5874   21584325.8684
      3749.5344
 04  9 10 16 11 29.9970000  0  6G 1G11G14G23G25G20
 -13726972.10949 -10675148.37146  20032566.5794   20032565.0634
      2198.0584
  -8455023.94148  -6572320.22345  20492240.4704   20492237.1344
       485.9974
   6333295.54748   4928038.20743  21931535.7984   21931533.2714
     -1693.9714
  -2967214.56647  -2301156.38342  22875969.7434   22875965.2824
      3875.3564
 -12874867.88349 -10011080.72746  19850284.1034   19850281.0014
      1548.0704
 -12099889.48848  -9422538.32044  21573629.9154   21573626.9784
      3748.0914
 04  9 10 16 11 44.9970000  0  6G 1G11G14G23G25G20
 -13759876.90649 -10700788.47346  20026305.6884   20026303.0324
      2193.6534
  -8462188.28949  -6577902.84845  20490876.9854   20490873.7864
       477.6234
   6358715.74248   4947846.11343  21936372.5404   21936370.1924
     -1694.6804
  -3025319.04347  -2346432.59042  22864913.4784   22864909.1734
      3873.6324
 -12897965.35249 -10029078.75446  19845888.6884   19845885.7354
      1539.8314
 -12156088.61348  -9466329.84844  21562935.7514   21562932.5054
      3746.6084
 04  9 10 16 11 59.9970000  0  6G 1G11G14G23G25G20
 -13792715.55549 -10726377.02746  20020056.3534   20020053.9974
      2189.2434
  -8469227.02049  -6583387.59045  20489537.5324   20489534.3134
       469.2494
   6384146.54748   4967662.28143  21941212.2594   21941209.6964
     -1695.3874
  -3083397.49247  -2391688.52342  22853860.9544   22853857.0994
      3871.8974
 -12920939.14849 -10046980.41446  19841516.9234   19841513.7744
      1531.5864
 -12212265.33248  -9510103.91844  21552245.2044   21552242.5754
      3745.1154
 04  9 10 16 12 14.9970000  0  6G 1G11G14G23G25G20
 -13825487.71549 -10751913.78146  20013820.0404   20013817.9384
      2184.8114
  -8476139.81649  -6588774.19145  20488222.1034   20488218.9504
       460.8534
   6409588.28548   4987486.99243  21946052.8684   21946051.9114
     -1696.1164
  -3141449.51647  -2436923.85543  22842814.0094   22842810.2474
      3870.1354
 -12943788.73449 -10064785.28546  19837168.5714   19837165.7744
      1523.3064
 -12268418.96548  -9553859.97343  21541559.5954   21541556.8804
      3743.5764
 04  9 10 16 12 29.9970000  0  6G 1G11G14G23G25G20
 -13858194.23049 -10777399.37546  20007596.1264   20007593.7434
      2180.4344
  -8482927.73848  -6594063.50845  20486930.6264   20486927.5794
       452.5284
   6435040.03148   5007319.47743  21950896.4234   21950894.8884
     -1696.7834
  -3199475.80147  -2482139.12942  22831771.9314   22831768.3534
      3868.4194
 -12966515.03149 -10082494.07846  19832844.1184   19832841.0284
      1515.0864
 -12324550.06248  -9597598.49644  21530878.1034   21530875.0094
      3742.0734
 04  9 10 16 12 44.9970000  0  6G 1G11G14G23G25G20
 -13890835.74649 -10802834.32446  20001384.7594   20001382.3334
      2176.1014
  -8489591.50849  -6599256.06245  20485662.4384   20485658.8994
       444.2514
   6460500.89548   5027159.07443  21955741.2434   21955739.8134
     -1697.3914
  -3257476.82847  -2527334.72342  22820735.0094   22820730.5754
      3866.7354
 -12989118.62549 -10100107.27346  19828542.8374   19828539.9424
      1506.9064
 -12380659.14148  -9641319.85244  21520201.2044   21520198.2944
      3740.6054
 04  9 10 16 12 59.9970000  0  6G 1G11G14G23G25G20
 -13923411.48849 -10828218.00846  19995185.3764   19995183.1344
      2171.7164
  -8496130.10249  -6604351.09045  20484418.1104   20484415.0444
       435.9064
   6485971.67248   5047006.39843  21960588.9934   21960586.8924
     -1698.0524
  -3315451.75847  -2572510.00042  22809702.8454   22809697.6884
      3864.9954
 -13011598.63349 -10117624.15646  19824265.0714   19824261.9384
      1498.6674
 -12436745.09848  -9685023.19144  21509528.6424   21509525.1064
      3739.0644
 04  9 10 16 13 14.9970000  0  6G 1G11G14G23G25G20
 -13955921.79349 -10853550.71546  19988999.4074   19988996.7744
      2167.3544
  -8502543.96549  -6609348.92645  20483197.8374   20483194.4424
       427.5914
   6511451.89547   5066861.07043  21965437.5634   21965436.0174
     -1698.6824
  -3373400.94147  -2617665.19143  22798675.2984   22798671.4814
      3863.2794
 -13033955.30549 -10135044.93446  19820010.4544   19820007.5954
      1490.4454
 -12492808.17649  -9728708.71144  21498859.9784   21498856.9154
      3737.5394
 04  9 10 16 13 29.9970000  0  6G 1G11G14G23G25G20
 -13988366.52049 -10878832.32846  19982825.2124   19982822.8134
      2162.9824
  -8508833.18749  -6614249.61745  20482000.6424   20481997.3764
       419.2824
   6536941.50448   5086723.07043  21970288.3924   21970286.0994
     -1699.3074
  -3431324.04347  -2662800.03942  22787653.1964   22787648.7394
      3861.5404
 -13056188.62549 -10152369.59846  19815779.6034   19815776.7824
      1482.2214
 -12548847.91048  -9772376.01644  21488195.8374   21488193.0014
      3735.9824
 04  9 10 16 13 44.9970000  0  6G 1G11G14G23G25G20
 -14020745.96149 -10904063.05546  19976663.5874   19976661.6344
      2158.6294
  -8514998.00049  -6619053.37945  20480827.8134   20480824.1734
       410.9884
   6562440.09848   5106592.07043  21975140.2904   21975138.3844
     -1699.9064
  -3489221.31247  -2707914.77743  22776635.5404   22776631.1144
      3859.8184
 -13078298.78149 -10169598.28546  19811572.4154   19811569.5914
      1474.0104
 -12604864.40648  -9816025.22344  21477536.3454   21477533.2434
      3734.4334
 04  9 10 16 13 59.9970000  0  6G 1G11G14G23G25G20
 -14053060.44949 -10929243.17646  19970514.4234   19970512.0994
      2154.2994
  -8521038.84449  -6623760.53945  20479678.3604   20479674.8214
       402.7234
   6587947.34848   5126467.80943  21979993.6264   21979992.1264
     -1700.4834
  -3547092.98447  -2753009.59043  22765622.2984   22765618.7674
      3858.1114
 -13100286.10949 -10186731.27346  19807388.3134   19807385.4504
      1465.8224
 -12660857.74249  -9859656.40244  21466881.3064   21466878.3644
      3732.8894
 04  9 10 16 14 14.9970000  0  6G 1G11G14G23G25G20
 -14085309.51249 -10954372.30946  19964377.1964   19964375.4504
      2149.9384
  -8526955.38349  -6628370.84845  20478552.4704   20478549.3294
       394.4364
   6613463.58247   5146350.55143  21984849.1344   21984847.7824
     -1701.0824
  -3604938.39548  -2798083.92242  22754615.2124   22754610.8684
      3856.3614
 -13122149.98849 -10203768.05546  19803227.6654   19803224.7554
      1457.5924
 -12716827.22749  -9903268.98044  21456230.9464   21456227.1464
      3731.2994
 04  9 10 16 14 29.9970000  0  6G 1G11G14G23G25G20
 -14117493.29349 -10979450.58646  19958253.3374   19958251.0524
      2145.5854
  -8532747.68749  -6632884.34845  20477450.2434   20477446.6344
       386.1544
   6638988.59047   5166240.14843  21989706.1264   21989704.9154
     -1701.6674
  -3662757.59448  -2843137.83242  22743612.1964   22743608.2474
      3854.6134
 -13143890.51249 -10220708.72346  19799090.6734   19799087.7514
      1449.3684
 -12772772.73848  -9946862.89144  21445584.1964   21445580.7204
      3729.7014
 04  9 10 16 14 44.9970000  0  6G 1G11G14G23G25G20
 -14149611.64849 -11004477.87146  19952141.3764   19952139.1064
      2141.2244
  -8538415.77049  -6637301.05146  20476371.7514   20476368.1304
       377.8724
   6664522.32447   5186136.51243  21994565.8214   21994564.3214
     -1702.2494
  -3720550.33647  -2888171.11742  22732614.3604   22732610.4664
      3852.8494
 -13165507.66049 -10237553.25046  19794976.9784   19794973.8684
      1441.1434
 -12828693.84048  -9990437.76244  21434943.2354   21434940.5364
      3728.0734
 04  9 10 16 14 59.9970000  0  6G 1G11G14G23G25G20
 -14181664.95749 -11029454.48446  19946041.7354   19946039.5174
      2136.8874
  -8543959.98449  -6641621.21945  20475316.5244   20475313.1654
       369.6144
   6690064.46147   5206039.43443  21999425.9234   21999424.2674
     -1702.8094
  -3778316.91047  -2933184.00843  22721622.3374   22721618.1264
      3851.1054
 -13187001.59849 -10254301.77346  19790886.9784   19790883.8644
      1432.9294
 -12884590.67249 -10033993.71144  21424306.7744   21424303.1854
      3726.4554
 04  9 10 16 15 14.9970000  0  6G 1G11G14G23G25G20
 -14213653.24649 -11054380.42246  19939954.5014   19939952.6574
      2132.5534
  -8549380.62148  -6645845.10945  20474284.9314   20474281.5994
       361.3764
   6715614.80547   5225948.75842  22004288.9384   22004286.7434
     -1703.3564
  -3836057.26247  -2978176.50043  22710634.5794   22710630.0634
      3849.3574
 -13208372.37949 -10270954.32846  19786819.9704   19786816.8414
      1424.7194
 -12940463.12949 -10077530.69544  21413674.1654   21413671.1964
      3724.8304
 04  9 10 16 15 29.9970000  0  6G 1G11G14G23G25G20
 -14245577.41449 -11079256.38746  19933879.5954   19933877.2394
      2128.2784
  -8554678.34848  -6649973.22345  20473276.7434   20473273.4234
       353.1824
   6741172.24247   5245863.62943  22009151.8134   22009150.0564
     -1703.8294
  -3893772.20348  -3023149.16443  22699651.4624   22699648.1144
      3847.6634
 -13229620.79749 -10287511.53946  19782776.6574   19782773.8414
      1416.5614
 -12996311.82449 -10121049.15244  21403045.9544   21403043.3764
      3723.2464
 04  9 10 16 15 44.9970000  0  6G 1G11G14G23G25G20
 -14277436.66049 -11104081.77046  19927816.9154   19927814.9154
      2123.9504
  -8559852.59049  -6654005.11345  20472292.4234   20472288.9784
       344.9494
   6766737.58247   5265784.62143  22014016.7354   22014015.0094
     -1704.3564
  -3951460.87947  -3068101.34843  22688674.1184   22688670.5874
      3845.9124
 -13250746.14149 -10303972.84446  19778756.4154   19778753.2984
      1408.3564
 -13052135.68749 -10164548.27044  21392422.8604   21392419.3134
      3721.5914
 04  9 10 16 15 59.9970000  0  6G 1G11G14G23G25G20
 -14309230.75449 -11128856.37946  19921767.1884   19921764.7394
      2119.6064
  -8564903.22349  -6657940.68745  20471331.5014   20471328.3214
       336.7094
   6792310.96547   5285711.90643  22018883.7124   22018881.5174
     -1704.8924
  -4009122.91447  -3113032.77343  22677700.7044   22677697.3374
      3844.1364
 -13271748.12549 -10320338.02346  19774760.0244   19774756.8804
      1400.1324
 -13107934.28148 -10208027.68444  21381805.2284   21381802.4744
      3719.9064
 04  9 10 16 16 14.9970000  0  6G 1G11G14G23G25G20
 -14340960.16049 -11153580.59846  19915728.6034   19915726.6694
      2115.2944
  -8569830.70348  -6661780.30546  20470393.7514   20470390.5094
       328.4994
   6817891.84847   5305645.03143  22023752.2354   22023749.6104
     -1705.3924
  -4066758.64147  -3157943.71942  22666733.2904   22666729.3334
      3842.3824
 -13292627.10249 -10336607.34846  19770787.0634   19770783.6064
      1391.9324
 -13163707.82849 -10251487.57844  21371191.3764   21371188.9234
      3718.2364
 04  9 10 16 16 29.9970000  0  6G 1G11G14G23G25G20
 -14372624.97749 -11178254.48446  19909703.4384   19909701.2004
      2110.9884
  -8574635.16449  -6665524.05945  20469479.5404   20469476.0954
       320.2974
   6843479.97347   5325583.79743  22028620.0324   22028618.7044
     -1705.8754
  -4124368.06647  -3202834.14543  22655770.4854   22655766.1494
      3840.6284
 -13313383.23849 -10352780.96546  19766837.2744   19766834.2594
      1383.7424
 -13219456.13349 -10294927.81644  21360583.3764   21360580.2904
      3716.5544
 04  9 10 16 16 44.9970000  0  6G 1G11G14G23G25G20
 -14404224.76649 -11202877.69546  19903690.2594   19903688.2044
      2106.6534
  -8579316.32049  -6669171.74245  20468588.8924   20468585.5954
       312.0774
   6869075.70747   5345528.49243  22033491.2824   22033489.5244
     -1706.3824
  -4181950.65647  -3247703.66843  22644813.6964   22644808.5364
      3838.8394
 -13334016.03549 -10368858.46546  19762910.9934   19762907.9234
      1375.5204
 -13275178.55149 -10338347.87944  21349979.8924   21349977.2044
      3714.8284
 04  9 10 16 16 59.9970000  0  6G 1G11G14G23G25G20
 -14435759.13749 -11227449.92646  19897689.1654   19897687.1424
      2102.2914
  -8583873.83248  -6672723.07045  20467721.4854   20467718.5874
       303.8344
   6894679.30147   5365479.30543  22038364.1964   22038361.5674
     -1706.9064
  -4239505.92248  -3292551.93443  22633860.6184   22633856.7824
      3837.0184
 -13354525.18049 -10384839.61746  19759008.1964   19759005.3064
      1367.2764
 -13330874.47748 -10381747.29344  21339380.8764   21339378.4784
      3713.0624
 04  9 10 16 17 14.9970000  0  6G 1G11G14G23G25G20
 -14467229.23449 -11251972.07446  19891700.4314   19891698.1464
      2098.0074
  -8588308.84448  -6676178.93445  20466877.2204   20466874.7004
       295.6674
   6920289.58647   5385435.34843  22043237.1734   22043235.1304
     -1707.3524
  -4297034.87948  -3337379.66043  22622913.2984   22622909.3764
      3835.2644
 -13374911.69949 -10400725.21547  19755128.8064   19755125.9234
      1359.1014
 -13386544.79348 -10425126.74644  21328787.1424   21328784.5564
      3711.3544
 04  9 10 16 17 29.9970000  0  6G 1G11G14G23G25G20
 -14498635.50049 -11276444.50046  19885724.2354   19885722.0604
      2093.7514
  -8592621.90649  -6679539.77045  20466056.9544   20466053.8254
       287.5384
   6945905.93047   5405396.10543  22048111.9624   22048109.6104
     -1707.7564
  -4354537.91047  -3382187.18743  22611971.1184   22611967.2474
      3833.5354
 -13395175.91049 -10416515.50846  19751272.4624   19751269.9544
      1350.9474
 -13442189.62549 -10468486.35544  21318198.5794   21318195.0524
      3709.6554
 04  9 10 16 17 44.9970000  0  6G 1G11G14G23G25G20
 -14529977.42649 -11300866.77346  19879759.9464   19879757.9194
      2089.4624
  -8596812.59849  -6682805.26246  20465259.1814   20465256.2124
       279.3794
   6971528.85247   5425361.98042  22052987.7514   22052986.0564
     -1708.1954
  -4412014.36747  -3426974.01643  22601033.8454   22601029.2124
      3831.7644
 -13415317.27749 -10432210.07446  19747439.6104   19747436.8134
      1342.7584
 -13497808.22348 -10511825.51644  21307614.4464   21307611.7284
      3707.9074
 04  9 10 16 17 59.9970000  0  6G 1G11G14G23G25G20
 -14561255.31249 -11325239.15247  19873808.2044   19873806.1814
      2085.1924
  -8600881.19549  -6685975.60945  20464484.9314   20464481.8334
       271.2404
   6997158.00846   5445332.72343  22057864.8214   22057862.7354
     -1708.6104
  -4469464.52748  -3471740.38743  22590101.2514   22590096.5054
      3830.0114
 -13435336.09049 -10447809.14546  19743630.3214   19743627.5244
      1334.5884
 -13553400.67649 -10555144.31644  21297036.0244   21297032.9704
      3706.1644
 04  9 10 16 18 14.9970000  0  6G 1G11G14G23G25G20
 -14592468.98049 -11349561.48446  19867868.4464   19867866.1534
      2080.9114
  -8604827.79748  -6689050.90245  20463733.9624   20463730.8884
       263.1074
   7022793.47747   5465308.37143  22062743.1184   22062741.1614
     -1709.0314
  -4526887.93048  -3516485.85943  22579173.8134   22579169.7314
      3828.2274
 -13455232.32449 -10463312.70746  19739844.1964   19739841.4274
      1326.4164
 -13608966.67648 -10598442.47344  21286462.0404   21286459.3294
      3704.4004
 04  9 10 16 18 29.9970000  0  6G 1G11G14G23G25G20
 -14623618.73849 -11373834.02346  19861940.7354   19861938.1774
      2076.6514
  -8608652.64549  -6692031.32045  20463005.9384   20463002.9664
       254.9904
   7048434.74246   5485288.55143  22067622.6494   22067620.8604
     -1709.4184
  -4584284.90247  -3561210.76643  22568251.5324   22568246.9504
      3826.4654
 -13475006.09449 -10478720.83246  19736081.5244   19736078.5914
      1318.2514
 -13664506.10949 -10641719.94544  21275893.2744   21275889.8104
      3702.6294
 04  9 10 16 18 44.9970000  0  6G 1G11G14G23G25G20
 -14654704.54749 -11398056.72746  19856025.4934   19856022.8174
      2072.3874
  -8612355.80549  -6694916.91445  20462301.1104   20462298.1614
       246.8774
   7074081.91047   5505273.32043  22072502.8994   22072501.4034
     -1709.8114
  -4641655.28147  -3605914.94142  22557334.1264   22557328.9624
      3824.6924
 -13494657.28549 -10494033.45346  19732341.7744   19732338.8454
      1310.0794
 -13720018.78148 -10684976.57044  21265329.7354   21265326.9354
      3700.8454
 04  9 10 16 18 59.9970000  0  6G 1G11G14G23G25G20
 -14685725.67249 -11422229.03146  19850122.2284   19850119.9894
      2068.0754
  -8615936.66048  -6697707.21545  20461619.7984   20461616.9744
       238.7244
   7099735.55547   5525263.13743  22077384.5874   22077383.1464
     -1710.2434
  -4698998.14147  -3650597.67643  22546422.6344   22546418.3684
      3822.8574
 -13514185.17248 -10509249.98846  19728625.7044   19728622.8294
      1301.8594
 -13775503.56649 -10728211.46944  21254770.8924   21254768.0994
      3698.9864
 04  9 10 16 19 14.9970000  0  6G 1G11G14G23G25G20
 -14716682.78149 -11446351.45746  19844231.1884   19844228.5364
      2063.8074
  -8619395.96548  -6700402.80145  20460961.8064   20460958.8494
       230.6204
   7125394.94947   5545257.43843  22082267.4784   22082265.9744
     -1710.6264
  -4756314.11748  -3695259.44943  22535515.4464   22535511.1734
      3821.0654
 -13533590.38349 -10524370.93446  19724933.0564   19724930.2864
      1293.6814
 -13830960.99249 -10771425.03544  21244218.0014   21244215.1534
      3697.1624
 04  9 10 16 19 29.9970000  0  6G 1G11G14G23G25G20
 -14747576.89549 -11470424.78146  19838352.4384   19838349.7944
      2059.6084
  -8622734.78549  -6703004.50445  20460326.2354   20460323.3174
       222.5884
   7151059.02747   5565255.37143  22087151.2594   22087149.3104
     -1710.9394
  -4813604.19548  -3739901.05943  22524612.9854   22524608.6104
      3819.3394
 -13552874.00049 -10539397.12946  19721263.4314   19721260.7084
      1285.5744
 -13886391.71149 -10814617.79744  21233670.1104   21233666.5244
      3695.3814
 04  9 10 16 19 44.9970000  0  6G 1G11G14G23G25G20
 -14778407.48849 -11494448.62946  19832485.4854   19832483.1064
      2055.3734
  -8625952.64148  -6705511.94145  20459714.2744   20459711.2594
       214.5244
   7176728.18047   5585257.27743  22092036.1424   22092034.2474
     -1711.2774
  -4870867.76648  -3784521.98843  22513716.4234   22513712.0674
      3817.5714
 -13572035.52748 -10554328.18047  19717617.4074   19717614.6144
      1277.4354
 -13941795.09849 -10857789.26644  21223126.5324   21223123.3254
      3693.5594
 04  9 10 16 19 59.9970000  0  6G 1G11G14G23G25G20
 -14809174.98849 -11518423.29346  19826630.5794   19826628.2554
      2051.1674
  -8629049.97348  -6707925.48445  20459124.6104   20459121.7714
       206.4894
   7202401.88347   5605262.71943  22096921.2514   22096920.1064
     -1711.5804
  -4928105.04748  -3829122.45343  22502824.0794   22502820.3644
      3815.8194
 -13591075.18448 -10569164.28146  19713994.0954   19713991.4814
      1269.3104
 -13997171.28949 -10900939.52744  21212589.0014   21212586.5244
      3691.7464
 04  9 10 16 20 14.9970000  0  6G 1G11G14G23G25G20
 -14839879.31249 -11542348.75046  19820787.4464   19820785.1184
      2046.9554
  -8632026.94149  -6710245.22745  20458558.3994   20458555.2434
       198.4654
   7228080.14547   5625271.72743  22101808.1814   22101806.7514
     -1711.8844
  -4985315.86347  -3873702.28942  22491937.0014   22491932.9194
      3814.0544
 -13609993.15649 -10583905.55946  19710394.4314   19710391.3064
      1261.1984
 -14052519.98049 -10944068.37944  21202056.2434   21202053.7204
      3689.9134
 04  9 10 16 20 29.9970000  0  6G 1G11G14G23G25G20
 -14870519.67249 -11566224.35246  19814956.7984   19814954.8174
      2042.6914
  -8634882.82449  -6712470.62545  20458014.8534   20458011.8334
       190.3924
   7253763.69147   5645284.84042  22106695.3924   22106694.3844
     -1712.2364
  -5042499.39547  -3918260.87942  22481055.0324   22481051.0914
      3812.2354
 -13628788.46949 -10598551.25846  19706817.7204   19706814.7864
      1253.0214
 -14107840.06249 -10987174.93044  21191529.7594   21191526.5484
      3688.0054
 04  9 10 16 20 44.9970000  0  6G 1G11G14G23G25G20
 -14901097.40649 -11590051.15646  19809138.2434   19809136.1814
      2038.5164
  -8637619.01249  -6714602.75045  20457493.9624   20457491.1734
       182.4134
   7279451.10247   5665300.96143  22111583.9854   22111582.3494
     -1712.4944
  -5099656.74247  -3962799.04742  22470179.2434   22470174.8414
      3810.4904
 -13647462.42249 -10613102.39146  19703263.7434   19703261.2354
      1244.9304
 -14163132.55949 -11030259.98444  21181007.5324   21181005.0634
      3686.1664
 04  9 10 16 20 59.9970000  0  6G 1G11G14G23G25G20
 -14931611.85249 -11613828.64546  19803331.3924   19803329.3804
      2034.2964
  -8640234.91048  -6716641.13345  20456996.0244   20456993.5484
       174.3934
   7305142.80947   5685320.43042  22116473.0954   22116471.2824
     -1712.7804
  -5156787.33647  -4007316.36342  22459307.0874   22459303.4154
      3808.7064
 -13666014.36749 -10627558.45346  19699734.0874   19699731.2004
      1236.7964
 -14218396.73849 -11073322.97744  21170491.2824   21170487.7864
      3684.2794
 04  9 10 16 21 14.9970000  0  6G 1G11G14G23G25G20
 -14962062.83249 -11637556.67246  19797536.9384   19797534.2744
      2030.0654
  -8642730.42248  -6718585.71145  20456521.2124   20456518.7244
       166.3674
   7330839.02047   5705343.41843  22121362.7124   22121361.0914
     -1713.0814
  -5213890.80548  -4051812.59443  22448441.3374   22448436.9584
      3806.8984
 -13684444.09048 -10641919.27346  19696226.7284   19696223.5914
      1228.6484
 -14273631.99649 -11116363.43744  21159980.4544   21159977.2984
      3682.3514
 04  9 10 16 21 29.9970000  0  6G 1G11G14G23G25G20
 -14992451.09049 -11661235.84846  19791754.1344   19791751.9114
      2025.8844
  -8645106.18448  -6720436.97745  20456069.4544   20456066.3804
       158.3844
   7356539.00448   5725369.34043  22126252.7514   22126251.3414
     -1713.3324
  -5270967.78148  -4096288.12143  22437579.4234   22437575.7124
      3805.1324
 -13702752.40249 -10656185.49246  19692742.6654   19692739.6964
      1220.5544
 -14328838.92649 -11159381.82844  21149474.9074   21149472.2434
      3680.4624
 04  9 10 16 21 44.9970000  0  6G 1G11G14G23G25G20
 -15022776.66449 -11684866.16046  19785983.7204   19785981.3534
      2021.7054
  -8647362.50449  -6722195.15645  20455640.1814   20455637.3254
       150.4214
   7382242.67247   5745398.12943  22131144.2824   22131142.9234
     -1713.5784
  -5328018.18447  -4140742.97343  22426723.4384   22426719.2044
      3803.3604
 -13720939.18449 -10670357.01246  19689281.5174   19689278.8644
      1212.4524
 -14384017.19549 -11202377.86344  21138974.7674   21138971.8564
      3678.5514
 04  9 10 16 21 59.9970000  0  6G 1G11G14G23G25G20
 -15053038.54749 -11708446.84446  19780224.7674   19780222.5914
      2017.4594
  -8649498.56249  -6723859.62945  20455233.7044   20455230.7474
       142.4044
   7407950.90247   5765430.47743  22136036.3214   22136035.2554
     -1713.8824
  -5385040.93447  -4185176.25843  22415872.2514   22415868.7314
      3801.5174
 -13739003.48049 -10684433.09046  19685844.3214   19685841.2004
      1204.2864
 -14439165.45749 -11245350.52344  21128480.5404   21128476.8724
      3676.5514
 04  9 10 16 22 14.9970000  0  6G 1G11G14G23G25G20
 -15083237.83649 -11731978.75046  19774478.4464   19774475.6854
      2013.2864
  -8651515.49248  -6725431.28545  20454849.8924   20454846.8804
       134.4624
   7433662.49247   5785465.44143  22140929.1654   22140927.9624
     -1714.1064
  -5442036.98447  -4229588.76243  22405026.2204   22405022.3804
      3799.7374
 -13756946.46549 -10698414.63346  19682429.6424   19682427.1574
      1196.1994
 -14494284.74249 -11288300.60944  21117991.6734   21117988.1344
      3674.6194
 04  9 10 16 22 29.9970000  0  6G 1G11G14G23G25G20
 -15113374.74649 -11755462.05946  19768743.3064   19768740.8134
      2009.1274
  -8653413.44548  -6726910.22345  20454488.8534   20454485.9274
       126.5304
   7459377.07048   5805502.73443  22145823.3214   22145821.2714
     -1714.3054
  -5499006.46148  -4273980.53143  22394185.6184   22394181.3174
      3797.9654
 -13774768.24648 -10712301.73846  19679038.6264   19679035.4354
      1188.1194
 -14549374.98849 -11331228.07444  21107508.0634   21107505.2904
      3672.6834
 04  9 10 16 22 44.9970000  0  6G 1G11G14G23G25G20
 -15143447.84849 -11778895.63746  19763020.2284   19763018.6654
      2004.8734
  -8655191.31249  -6728295.59045  20454149.9384   20454147.7204
       118.5244
   7485096.09048   5825543.48042  22150716.6034   22150715.3494
     -1714.6014
  -5555947.81248  -4318350.39843  22383349.3604   22383345.7434
      3796.0904
 -13792467.57849 -10726093.43046  19675670.5174   19675667.4974
      1179.9554
 -14604434.41849 -11374131.51244  21097030.7824   21097027.8604
      3670.6294
 04  9 10 16 22 59.9970000  0  6G 1G11G14G23G25G20
 -15173458.02349 -11802280.19546  19757309.6964   19757307.5444
      2000.6784
  -8656849.93749  -6729588.05945  20453834.8064   20453831.7354
       110.5754
   7510818.59448   5845586.96543  22155610.9934   22155610.2004
     -1714.8344
  -5612861.78948  -4362698.92642  22372519.7434   22372514.5214
      3794.2654
 -13810045.07849 -10739790.18746  19672325.4854   19672322.5174
      1171.8334
 -14659463.68449 -11417011.45744  21086559.3844   21086556.0054
      3668.6184
 04  9 10 16 23 14.9970000  0  6G 1G11G14G23G25G20
 -15203406.30549 -11825616.51646  19751610.7434   19751608.4464
      1996.5524
  -8658390.55149  -6730788.55545  20453541.8844   20453538.5564
       102.7084
   7536543.40648   5865632.21543  22160507.2204   22160505.3804
     -1714.9874
  -5669749.35248  -4407026.87943  22361693.8064   22361689.1854
      3792.5044
 -13827501.96149 -10753392.94946  19669003.4464   19669000.4784
      1163.7924
 -14714463.57449 -11459868.52344  21076092.9314   21076089.1344
      3666.6594
 04  9 10 16 23 29.9970000  0  6G 1G11G14G23G25G20
 -15233292.25849 -11848904.26646  19745923.5174   19745921.0174
      1992.3974
  -8659812.83249  -6731896.84045  20453270.8454   20453267.8564
        94.8194
   7562271.03948   5885679.69943  22165403.3534   22165401.1264
     -1715.1764
  -5726609.95348  -4451333.85543  22350874.0714   22350869.1884
      3790.7074
 -13844837.71549 -10766901.33646  19665704.6184   19665702.1854
      1155.7174
 -14769433.30149 -11502702.09044  21065632.3924   21065629.9114
      3664.6484
 04  9 10 16 23 44.9970000  0  6G 1G11G14G23G25G20
 -15263115.31249 -11872143.00446  19740248.5954   19740246.1494
      1988.2044
  -8661116.35548  -6732912.59845  20453022.9074   20453019.5444
        86.9024
   7588001.79348   5905729.58242  22170299.0484   22170297.6184
     -1715.3844
  -5783442.93447  -4495619.27043  22340058.9934   22340054.6654
      3788.8654
 -13862051.79749 -10780314.90246  19662428.8844   19662425.9624
      1147.6054
 -14824372.20749 -11545511.59044  21055178.2204   21055175.4194
      3662.5944
 04  9 10 16 23 59.9970000  0  6G 1G11G14G23G25G20
 -15292875.46149 -11895332.73446  19734585.2434   19734583.3964
      1984.0104
  -8662300.95748  -6733835.70345  20452797.7044   20452794.4744
        78.9734
   7613735.68447   5925781.93843  22175196.3994   22175195.0634
     -1715.5934
  -5840248.23848  -4539883.13743  22329249.6424   22329244.7984
      3787.0204
 -13879144.12949 -10793633.60246  19659176.2514   19659173.4424
      1139.4894
 -14879279.96549 -11588296.86344  21044729.2904   21044726.6104
      3660.5174
 04  9 10 16 24 14.9970000  0  6G 1G11G14G23G25G20
 -15322573.71149 -11918474.22346  19728934.1884   19728931.6814
      1979.8834
  -8663367.94949  -6734667.14845  20452594.5954   20452591.3254
        71.1334
   7639471.51648   5945835.79743  22180093.4074   22180092.1574
     -1715.7224
  -5897026.75847  -4584126.12943  22318444.3454   22318440.2164
      3785.2354
 -13896115.77349 -10806858.26246  19655947.1424   19655943.8924
      1131.4434
 -14934157.21549 -11631058.35244  21034286.2824   21034283.1264
      3658.4834
 04  9 10 16 24 29.9970000  0  6G 1G11G14G23G25G20
 -15352209.97749 -11941567.41846  19723294.4934   19723291.9034
      1975.7514
  -8664317.43449  -6735407.05945  20452414.3764   20452410.9704
        63.2994
   7665209.48047   5965891.29743  22184991.9314   22184990.1854
     -1715.8644
  -5953778.35548  -4628348.12543  22307644.7514   22307640.6964
      3783.4404
 -13912966.65649 -10819988.82046  19652739.8994   19652737.4034
      1123.3924
 -14989003.70349 -11673795.87944  21023849.5174   21023846.3684
      3656.4334
 04  9 10 16 24 44.9970000  0  6G 1G11G14G23G25G20
 -15381783.88349 -11964612.02346  19717666.7674   19717664.5094
      1971.5944
  -8665149.07048  -6736055.10945  20452255.8924   20452252.7124
        55.4424
   7690949.71548   5985948.59842  22189889.7044   22189888.4814
     -1716.0164
  -6010502.50047  -4672548.74243  22296850.4704   22296846.1144
      3781.6104
 -13929696.53149 -10833025.09046  19649556.7434   19649553.8454
      1115.3254
 -15043818.75449 -11716508.89544  21013418.6344   21013416.1104
      3654.3374
 04  9 10 16 24 59.9970000  0  6G 1G11G14G23G25G20
 -15411296.25449 -11987608.66446  19712050.6574   19712048.3684
      1967.4914
  -8665863.68448  -6736611.98445  20452119.8534   20452116.6304
        47.6414
   7716691.46947   6006007.07843  22194788.2354   22194787.1734
     -1716.1174
  -6067199.78148  -4716728.41443  22286061.7204   22286057.2904
      3779.8194
 -13946305.96948 -10845967.51247  19646395.8604   19646393.3214
      1107.2964
 -15098602.89849 -11759197.82844  21002993.5244   21002990.6144
      3652.2764
 04  9 10 16 25 14.9970000  0  6G 1G11G14G23G25G20
 -15440746.73449 -12010557.09446  19706446.6494   19706444.3174
      1963.3654
  -8666461.07048  -6737077.51245  20452005.8294   20452003.2594
        39.8264
   7742435.05547   6026066.96143  22199687.2824   22199685.4624
     -1716.2394
  -6123869.82848  -4760886.89143  22275277.4704   22275273.2354
      3778.0034
 -13962794.83649 -10858815.97747  19643258.1184   19643255.2714
      1099.2584
 -15153355.59849 -11801862.26644  20992574.4154   20992571.1344
      3650.1804
 04  9 10 16 25 29.9970000  0  6G 1G11G14G23G25G20
 -15470134.83649 -12033456.91446  19700854.0244   19700851.7084
      1959.2074
  -8666940.55148  -6737451.16445  20451914.7904   20451911.6384
        31.9654
   7768180.87547   6046128.61342  22204586.5954   22204584.8374
     -1716.3884
  -6180512.10948  -4805023.70343  22264499.1814   22264495.5874
      3776.1524
 -13979162.62949 -10871570.09446  19640143.4074   19640140.8534
      1091.1864
 -15208076.00049 -11844501.54344  20982161.3684   20982158.2634
      3648.0274
 04  9 10 16 25 44.9970000  0  6G 1G11G14G23G25G20
 -15499460.41449 -12056308.01646  19695273.2284   19695271.1464
      1955.0394
  -8667302.42649  -6737733.17645  20451845.8534   20451842.8684
        24.1254
   7793929.06347   6066192.09842  22209485.6654   22209484.7124
     -1716.5464
  -6237126.32848  -4849138.67243  22253725.8214   22253721.1344
      3774.2814
 -13995409.13749 -10884229.71546  19637051.9314   19637049.1884
      1083.1014
 -15262763.69949 -11887115.31644  20971754.6344   20971751.8134
      3645.8474
 04  9 10 16 25 59.9970000  0  6G 1G11G14G23G25G20
 -15528724.04349 -12079110.82846  19689704.8534   19689702.6384
      1950.9094
  -8667547.22348  -6737923.96145  20451799.1424   20451796.2744
        16.3204
   7819678.83647   6086256.83643  22214385.9854   22214384.7984
     -1716.6524
  -6293712.88748  -4893232.07843  22242957.4154   22242953.4194
      3772.4374
 -14011534.88349 -10896795.23446  19633983.4234   19633980.2284
      1075.0504
 -15317418.96549 -11929703.82044  20961354.2984   20961351.4034
      3643.6844
 04  9 10 16 26 14.9970000  0  6G 1G11G14G23G25G20
 -15557926.35549 -12101865.88346  19684147.8924   19684145.8134
      1946.8214
  -8667675.78948  -6738024.16845  20451774.7124   20451772.0994
         8.5714
   7845429.44948   6106322.20743  22219286.0094   22219284.9894
     -1716.7084
  -6350272.30548  -4937304.33643  22232194.5404   22232191.3174
      3770.6284
 -14027540.58649 -10909267.20746  19630937.4074   19630934.5794
      1067.0474
 -15372042.25449 -11972267.41044  20950959.4544   20950956.5754
      3641.5534
 04  9 10 16 26 29.9970000  0  6G 1G11G14G23G25G20
 -15587067.02749 -12124572.90646  19678602.4464   19678600.1654
      1942.7114
  -8667687.95348  -6738033.66845  20451772.7204   20451769.5914
         0.8114
   7871181.37547   6126388.60943  22224187.0634   22224185.7434
     -1716.7954
  -6406804.36748  -4981355.29343  22221436.5094   22221433.3024
      3768.8044
 -14043425.93749 -10921645.40246  19627914.5564   19627911.8174
      1059.0234
 -15426632.98049 -12014805.65244  20940571.8064   20940568.0364
      3639.3824
 04  9 10 16 26 44.9970000  0  6G 1G11G14G23G25G20
 -15616146.41449 -12147232.16046  19673069.0634   19673066.8374
      1938.6264
  -8667584.15248  -6737952.81245  20451792.1574   20451789.3024
        -6.9204
   7896934.14148   6146455.66443  22229087.4624   22229086.2554
     -1716.8514
  -6463309.22348  -5025385.04743  22210684.4624   22210680.7864
      3766.9904
 -14059191.24649 -10933930.05946  19624914.4544   19624911.5634
      1051.0214
 -15481191.21549 -12057318.55144  20930189.1034   20930186.5444
      3637.2164
 04  9 10 16 26 59.9970000  0  6G 1G11G14G23G25G20
 -15645163.44949 -12169842.84846  19667547.2984   19667545.2004
      1934.4694
  -8667363.48848  -6737780.87945  20451834.3534   20451831.2354
       -14.7114
   7922688.64847   6166524.07442  22233988.3604   22233987.5524
     -1716.9674
  -6519785.69948  -5069392.68043  22199937.1884   22199933.7784
      3765.0984
 -14074835.51649 -10946120.39846  19621937.5244   19621934.4704
      1042.9514
 -15535715.53949 -12099805.02044  20919813.7434   20919810.9354
      3634.9554
 04  9 10 16 27 14.9960000  0  6G 1G11G14G23G25G20
 -15674117.06249 -12192404.10246  19662037.7704   19662035.6294
      1930.2414
  -8667026.80948  -6737518.55145  20451898.4184   20451895.5594
       -22.4454
   7948442.31648   6186591.81342  22238888.8404   22238887.9304
     -1716.9114
  -6576230.79747  -5113375.85243  22189195.4884   22189191.6724
      3763.0074
 -14090358.48449 -10958216.21946  19618983.7624   19618980.7344
      1034.8654
 -15590202.87149 -12142262.68044  20909444.9884   20909441.8284
      3632.4894
 04  9 10 16 27 29.9960000  0  6G 1G11G14G23G25G20
 -15703010.80149 -12214918.70747  19656538.9574   19656537.1414
      1926.2494
  -8666573.85548  -6737165.63745  20451984.9104   20451981.6844
       -30.1974
   7974198.89547   6206661.85242  22243790.7774   22243788.9614
     -1717.1054
  -6632651.55547  -5157340.03943  22178459.6064   22178456.3054
      3761.3844
 -14105762.03149 -10970218.98046  19616052.2934   19616049.4814
      1026.9034
 -15644660.05949 -12184696.84844  20899082.4264   20899078.5594
      3630.4794
 04  9 10 16 27 44.9960000  0  6G 1G11G14G23G25G20
 -15731841.83648 -12237384.44546  19651052.6374   19651050.4814
      1922.0694
  -8666004.02048  -6736721.62945  20452093.3954   20452090.1214
       -37.9894
   7999957.43847   6226733.40643  22248691.9264   22248690.5824
     -1717.2364
  -6689043.16048  -5201281.54743  22167728.6604   22167724.9344
      3759.4404
 -14121044.23049 -10982127.19147  19613144.6134   19613141.7034
      1018.8134
 -15699082.17249 -12227103.69144  20888725.8014   20888723.0164
      3628.1414
 04  9 10 16 27 59.9960000  0  6G 1G11G14G23G25G20
 -15760611.57449 -12259802.42246  19645578.2464   19645575.7894
      1917.9834
  -8665318.83248  -6736187.72345  20452223.5744   20452220.5004
       -45.6794
   8025716.46547   6246805.33642  22253594.1214   22253592.8014
     -1717.2684
  -6745406.93448  -5245201.32443  22157002.3714   22156998.8674
      3757.5854
 -14136206.45349 -10993941.91047  19610258.8564   19610256.2074
      1010.8154
 -15753470.33249 -12269484.07044  20878376.2544   20878373.9384
      3625.8774
 04  9 10 16 28 14.9960000  0  6G 1G11G14G23G25G20
 -15789320.06249 -12282172.68046  19640115.1844   19640112.7624
      1913.8994
  -8664518.45348  -6735564.07845  20452376.1294   20452372.9774
       -53.3594
   8051475.94547   6266877.62542  22258495.6374   22258494.4734
     -1717.2994
  -6801742.81648  -5289099.40243  22146282.3484   22146278.1374
      3755.7264
 -14151248.64548 -11005663.10546  19607396.5984   19607393.9734
      1002.8134
 -15807824.30149 -12311837.79344  20868033.1374   20868030.3524
      3623.5984
 04  9 10 16 28 29.9960000  0  6G 1G11G14G23G25G20
 -15817966.18749 -12304494.33246  19634663.7854   19634661.5904
      1909.7424
  -8663601.75048  -6734849.79745  20452550.9734   20452547.3164
       -61.1144
   8077236.91847   6286951.07443  22263397.8564   22263396.5634
     -1717.3984
  -6858049.60548  -5332974.83243  22135567.7774   22135563.9614
      3753.7864
 -14166169.93049 -11017290.08246  19604557.3564   19604554.5204
       994.7524
 -15862142.69549 -12354163.80544  20857696.6764   20857693.4614
      3621.2264
 04  9 10 16 28 44.9960000  0  6G 1G11G14G23G25G20
 -15846550.38349 -12326767.73046  19629224.3954   19629222.0474
      1905.6134
  -8662569.17248  -6734045.21145  20452746.8404   20452744.0164
       -68.8394
   8102998.69148   6307025.13742  22268300.4574   22268299.3134
     -1717.4524
  -6914327.68748  -5376827.87143  22124858.8014   22124854.5004
      3751.8724
 -14180970.63749 -11028823.09846  19601740.8014   19601738.0084
       986.7144
 -15916425.76249 -12396462.28944  20847366.6764   20847363.7894
      3618.8714
 04  9 10 16 28 59.9960000  0  6G 1G11G14G23G25G20
 -15875073.14849 -12348993.27046  19623796.9734   19623794.4494
      1901.5184
  -8661421.51648  -6733150.96145  20452965.6134   20452962.3484
       -76.5104
   8128760.75047   6327099.41442  22273202.5274   22273201.5744
     -1717.4714
  -6970577.45348  -5420658.85243  22114154.6064   22114150.2194
      3749.9844
 -14195651.35549 -11040262.61746  19598946.9654   19598944.0744
       978.7154
 -15970673.69949 -12438733.41044  20837043.7384   20837041.1294
      3616.5294
 04  9 10 16 29 14.9960000  0  6G 1G11G14G23G25G20
 -15903534.25449 -12371170.75046  19618381.0124   19618378.7664
      1897.4074
  -8660158.64848  -6732166.93745  20453205.6294   20453202.6414
       -84.1914
   8154523.45348   6347174.21542  22278106.1524   22278104.1064
     -1717.5144
  -7026798.51648  -5464467.46143  22103455.6214   22103451.8914
      3748.0714
 -14210211.84049 -11051608.45346  19596176.3484   19596173.4264
       970.6994
 -16024885.87949 -12480976.64845  20826728.1764   20826725.0904
      3614.1454
 04  9 10 16 29 29.9960000  0  6G 1G11G14G23G25G20
 -15931932.73049 -12393299.44146  19612976.8014   19612974.5204
      1893.2324
  -8658779.82848  -6731092.54345  20453468.1214   20453465.1024
       -91.9214
   8180287.62548   6367250.15642  22283008.5664   22283006.6214
     -1717.6114
  -7082989.94147  -5508252.96543  22092762.3714   22092758.7624
      3746.0954
 -14224651.25849 -11062859.94946  19593428.3404   19593425.7034
       962.6284
 -16079061.20349 -12523191.17644  20816418.2314   20816415.2424
      3611.6884
 04  9 10 16 29 44.9960000  0  6G 1G11G14G23G25G20
 -15960269.73849 -12415380.22746  19607584.4264   19607582.2464
      1889.1344
  -8657286.18748  -6729928.68745  20453752.3714   20453749.7624
       -99.5764
   8206052.06648   6387326.29342  22287910.9964   22287909.3754
     -1717.6294
  -7139152.57848  -5552016.05543  22082074.8794   22082071.6994
      3744.1764
 -14238970.67249 -11074017.93446  19590703.5824   19590700.7814
       954.6284
 -16133200.47749 -12565377.62544  20806115.8794   20806112.7034
      3609.2854
 04  9 10 16 29 59.9960000  0  6G 1G11G14G23G25G20
 -15988545.24249 -12437413.08646  19602203.7934   19602201.3594
      1885.0344
  -8655677.82449  -6728675.43045  20454058.4344   20454055.8834
      -107.2244
   8231816.80547   6407402.67642  22292814.3874   22292812.9734
     -1717.6494
  -7195286.41047  -5595756.66443  22071393.5354   22071389.8834
      3742.2554
 -14253170.11349 -11085082.43746  19588001.5044   19587998.8244
       946.6294
 -16187303.43049 -12607535.75844  20795820.4414   20795817.6414
      3606.8644
 04  9 10 16 30 14.9960000  0  6G 1G11G14G23G25G20
 -16016759.27049 -12459398.05146  19596834.7704   19596832.5824
      1880.9354
  -8653955.03149  -6727333.02045  20454386.0984   20454383.7704
      -114.8534
   8257581.66447   6427479.16042  22297717.1994   22297715.5664
     -1717.6574
  -7251391.34848  -5639474.77043  22060717.4654   22060713.5204
      3740.3294
 -14267249.64149 -11096053.50047  19585322.4024   19585319.5394
       938.6354
 -16241369.77749 -12649665.37145  20785532.3404   20785528.8754
      3604.4234
 04  9 10 16 30 29.9960000  0  6G 1G11G14G23G25G20
 -16044911.90649 -12481335.16446  19591477.7544   19591475.0984
      1876.8424
  -8652118.00048  -6725901.58645  20454736.0274   20454733.0314
      -122.4694
   8283346.66847   6447555.75442  22302619.6454   22302618.8164
     -1717.6674
  -7307467.37547  -5683170.36343  22050046.1844   22050042.3714
      3738.4024
 -14281209.36748 -11106931.21546  19582665.8954   19582663.1764
       930.6484
 -16295399.42249 -12691766.39145  20775250.6914   20775247.6994
      3601.9764
 04  9 10 16 30 44.9960000  0  6G 1G11G14G23G25G20
 -16073003.21549 -12503224.50846  19586132.0824   19586129.7464
      1872.7544
  -8650166.84848  -6724381.24645  20455107.2934   20455104.3364
      -130.0774
   8309111.58648   6467632.26242  22307522.6994   22307521.4304
     -1717.6614
  -7363514.44548  -5726843.37943  22039380.6374   22039376.0204
      3736.4714
 -14295049.25448 -11117715.53146  19580032.1994   19580029.4884
       922.6594
 -16349392.06649 -12733838.58645  20764976.4264   20764973.0394
      3599.5104
 04  9 10 16 30 59.9960000  0  6G 1G11G14G23G25G20
 -16101033.46149 -12525066.25846  19580797.9814   19580795.7814
      1868.6834
  -8648101.98848  -6722772.28945  20455500.1524   20455497.1954
      -137.6574
   8334876.05948   6487708.43842  22312425.2854   22312423.9774
     -1717.6324
  -7419532.83248  -5770494.04743  22028720.4814   22028717.0864
      3734.5594
 -14308769.64548 -11128406.75046  19577421.2074   19577418.6914
       914.6934
 -16403347.69549 -12775881.91445  20754708.8484   20754706.1094
      3597.0424
 04  9 10 16 31 14.9960000  0  6G 1G11G14G23G25G20
 -16129002.61748 -12546860.39846  19575475.6604   19575473.4924
      1864.6104
  -8645923.56648  -6721074.85245  20455914.8794   20455911.8244
      -145.2284
   8360639.88747   6507784.12142  22317327.8094   22317326.6024
     -1717.5894
  -7475522.21548  -5814122.13743  22018066.7704   22018061.9144
      3732.6264
 -14322370.62948 -11139004.92247  19574833.0204   19574830.6484
       906.7324
 -16457266.06249 -12817896.21545  20744448.1914   20744445.1414
      3594.5584
 04  9 10 16 31 29.9960000  0  6G 1G11G14G23G25G20
 -16156910.35249 -12568606.69146  19570165.1134   19570162.6414
      1860.5164
  -8643631.35548  -6719288.75045  20456350.9184   20456348.2194
      -152.8144
   8386403.61347   6527859.72342  22322230.9654   22322229.5744
     -1717.5824
  -7531482.23048  -5857727.33243  22007417.5434   22007413.3524
      3730.6684
 -14335851.94549 -11149509.84846  19572267.8564   19572265.2664
       898.7544
 -16511146.34049 -12859880.84444  20734195.2314   20734192.0784
      3592.0184
 04  9 10 16 31 44.9960000  0  6G 1G11G14G23G25G20
 -16184757.00048 -12590305.38346  19564865.8244   19564863.2664
      1856.4434
  -8641225.77748  -6717414.28545  20456808.5514   20456805.5944
      -160.3724
   8412166.86347   6547934.93042  22327133.5434   22327132.1134
     -1717.5504
  -7587413.01648  -5901309.74643  21996774.1604   21996770.3164
      3728.7194
 -14349213.91449 -11159921.77346  19569725.0984   19569722.3834
       890.7984
 -16564988.76649 -12901835.97345  20723949.4264   20723946.6884
      3589.4954
 04  9 10 16 31 59.9960000  0  6G 1G11G14G23G25G20
 -16212543.71548 -12611957.37546  19559578.3954   19559576.0864
      1852.4484
  -8638708.03148  -6715452.42645  20457287.8874   20457284.5164
      -167.8504
   8437928.44547   6568008.85942  22332035.3634   22332034.8914
     -1717.4394
  -7643315.67247  -5944870.23043  21986136.3794   21986132.3404
      3726.8444
 -14362457.56648 -11170241.50046  19567205.1454   19567202.3204
       882.9104
 -16618794.05549 -12943762.16045  20713710.5514   20713708.0664
      3587.0194
 04  9 10 16 32 14.9960000  0  6G 1G11G14G23G25G20
 -16240269.26648 -12633561.70746  19554302.3404   19554300.2274
      1848.3704
  -8636077.11748  -6713402.38745  20457788.2544   20457785.5164
      -175.3944
   8463689.47347   6588082.33642  22336938.0744   22336936.8054
     -1717.4024
  -7699188.89548  -5988407.82443  21975503.8564   21975499.8244
      3724.8824
 -14375581.66449 -11180468.07047  19564707.5904   19564704.6994
       874.9404
 -16672560.77349 -12985658.30544  20703479.0354   20703476.3364
      3584.4484
 04  9 10 16 32 29.9960000  0  6G 1G11G14G23G25G20
 -16267933.68748 -12655118.39146  19549037.8244   19549035.6294
      1844.2954
  -8633333.11348  -6711264.23045  20458310.5044   20458307.9304
      -182.9344
   8489449.85247   6608155.33642  22341840.5274   22341838.6484
     -1717.3594
  -7755032.74247  -6031922.47343  21964877.1134   21964873.8134
      3722.9234
 -14388586.60948 -11190601.79347  19562232.6374   19562229.8484
       866.9964
 -16726288.76649 -13027524.26644  20693255.1064   20693251.4614
      3581.8664
 04  9 10 16 32 44.9960000  0  6G 1G11G14G23G25G20
 -16295536.77049 -12676627.28546  19543785.4884   19543782.9344
      1840.2054
  -8630476.15648  -6709038.05545  20458854.2544   20458851.5824
      -190.4644
   8515209.73847   6628227.94542  22346741.9964   22346740.9694
     -1717.3264
  -7810846.75448  -6075413.89143  21954256.2774   21954252.6454
      3720.9344
 -14401472.00848 -11200642.36346  19559780.7544   19559777.6334
       859.0274
 -16779977.46549 -13069359.60945  20683038.2074   20683035.2504
      3579.2474
 04  9 10 16 32 59.9960000  0  6G 1G11G14G23G25G20
 -16323080.10949 -12698089.63746  19538543.9654   19538541.8324
      1836.2234
  -8627507.89148  -6706725.16045  20459419.0044   20459416.6994
      -197.8844
   8540967.53147   6648298.89842  22351643.9734   22351642.8364
     -1717.1864
  -7866632.57047  -6118883.35243  21943639.9814   21943637.0634
      3719.0544
 -14414239.63348 -11210591.16046  19557351.2624   19557348.1254
       851.1754
 -16833628.21549 -13111165.37945  20672829.1764   20672826.5474
      3576.7174
 04  9 10 16 33 14.9960000  0  6G 1G11G14G23G25G20
 -16350562.53549 -12719504.51246  19533313.9734   19533311.8244
      1832.1624
  -8624427.30548  -6704324.72745  20460005.4264   20460002.5434
      -205.3724
   8566724.28147   6668369.05542  22356545.3874   22356544.0594
     -1717.1174
  -7922388.69547  -6162329.66443  21933030.4574   21933026.7934
      3717.0754
 -14426888.31248 -11220447.28146  19554944.0044   19554941.1024
       843.2454
 -16887239.50049 -13152940.40245  20662626.8244   20662624.3914
      3574.0864
 04  9 10 16 33 29.9960000  0  6G 1G11G14G23G25G20
 -16377983.44149 -12740871.45346  19528096.0274   19528093.5944
      1828.0604
  -8621233.89548  -6701836.37945  20460613.1454   20460610.4304
      -212.8944
   8592480.55947   6688438.84842  22361446.0514   22361445.5234
     -1717.0854
  -7978114.58647  -6205752.42243  21922426.3244   21922422.9844
      3715.0594
 -14439417.44549 -11230210.24246  19552559.7854   19552557.2544
       835.2764
 -16940810.43449 -13194683.98845  20652432.5594   20652429.7504
      3571.3964
 04  9 10 16 33 44.9960000  0  6G 1G11G14G23G25G20
 -16405343.96948 -12762191.34046  19522889.4184   19522887.0554
      1824.0354
  -8617928.91448  -6699261.08245  20461241.9184   20461239.5634
      -220.3324
   8618235.18447   6708507.35942  22366346.8634   22366346.4344
     -1716.9754
  -8033811.16447  -6249152.32443  21911827.4654   21911823.7774
      3713.1054
 -14451828.14548 -11239880.91847  19550198.2234   19550195.5274
       827.3804
 -16994341.92649 -13236396.82445  20642246.2464   20642243.3284
      3568.7664
 04  9 10 16 33 59.9960000  0  6G 1G11G14G23G25G20
 -16432644.19549 -12783464.25446  19517694.6134   19517692.1214
      1820.0154
  -8614512.53148  -6696598.98845  20461892.2314   20461889.3014
      -227.7594
   8643987.99247   6728574.43842  22371247.5904   22371247.5394
     -1716.8544
  -8089478.44547  -6292529.41043  21901234.1294   21901229.8524
      3711.1524
 -14464120.46149 -11249459.34846  19547858.9884   19547856.7624
       819.4884
 -17047833.70349 -13278078.73445  20632066.6374   20632064.6214
      3566.1184
 04  9 10 16 34 14.9960000  0  6G 1G11G14G23G25G20
 -16459883.36749 -12804689.59046  19512511.3244   19512508.9024
      1815.9454
  -8610984.30148  -6693849.72745  20462563.2544   20462560.3324
      -235.2154
   8669739.88347   6748640.80142  22376148.7384   22376147.7704
     -1716.7934
  -8145115.55147  -6335883.01643  21890646.8714   21890642.8054
      3709.1404
 -14476293.99249 -11258945.22746  19545542.6294   19545539.8164
       811.5694
 -17101284.74249 -13319728.88745  20621895.2074   20621893.1374
      3563.4034
 04  9 10 16 34 29.9960000  0  6G 1G11G14G23G25G20
 -16487062.07048 -12825867.80546  19507339.4264   19507336.7504
      1811.9144
  -8607344.75048  -6691013.72745  20463256.1844   20463253.4414
      -242.6374
   8695490.07447   6768705.84442  22381048.3484   22381047.6214
     -1716.6794
  -8200722.94948  -6379213.44543  21880065.3404   21880061.2734
      3707.1604
 -14488349.15649 -11268338.85947  19543248.2704   19543245.6994
       803.6784
 -17154695.40649 -13361347.58644  20611731.7544   20611728.7274
      3560.7114
 04  9 10 16 34 44.9960000  0  6G 1G11G14G23G25G20
 -16514179.71549 -12846998.43446  19502178.5664   19502176.6294
      1807.8434
  -8603593.60948  -6688090.77045  20463969.8404   20463967.3324
      -250.0764
   8721239.11747   6788769.99242  22385947.8484   22385947.2424
     -1716.6034
  -8256300.08247  -6422520.27743  21869489.5434   21869484.5044
      3705.1424
 -14500285.48448 -11277639.89847  19540977.4654   19540974.5234
       795.7554
 -17208064.78549 -13402934.10544  20601575.5354   20601572.8834
      3557.9594
 04  9 10 16 34 59.9960000  0  6G 1G11G14G23G25G20
 -16541237.08249 -12868082.10246  19497029.9184   19497027.8134
      1803.8244
  -8599731.78548  -6685081.58245  20464704.8794   20464701.8244
      -257.4554
   8746986.14147   6808832.61342  22390847.6134   22390846.2814
     -1716.4684
  -8311847.44947  -6465803.93043  21858918.7384   21858914.5944
      3703.1584
 -14512103.80549 -11286848.98046  19538728.3954   19538725.2664
       787.8884
 -17261393.32449 -13444488.80145  20591427.8324   20591425.6604
      3555.2364
 04  9 10 16 35 14.9960000  0  6G 1G11G14G23G25G20
 -16568234.00449 -12889118.66847  19491892.8014   19491890.4734
      1799.7954
  -8595759.12148  -6681986.01245  20465460.9264   20465458.3014
      -264.8444
   8772731.39847   6828893.81342  22395747.3714   22395746.0124
     -1716.3514
  -8367364.84047  -6509064.23443  21848354.5984   21848349.8164
      3701.1594
 -14523803.82049 -11295965.87946  19536501.8014   19536498.9454
       780.0014
 -17314680.58249 -13486011.34045  20581287.8164   20581285.0664
      3552.4844
 04  9 10 16 35 29.9960000  0  6G 1G11G14G23G25G20
 -16595170.98049 -12910108.50846  19486766.9654   19486764.4384
      1795.7984
  -8591676.42248  -6678804.69945  20466237.5204   20466234.7934
      -272.1804
   8798474.21547   6848953.13342  22400646.3714   22400644.1914
     -1716.1884
  -8422852.68047  -6552301.49643  21837795.6454   21837791.8014
      3699.1894
 -14535386.17248 -11304991.08647  19534297.7704   19534294.9304
       772.1574
 -17367926.74649 -13527501.84445  20571155.1994   20571152.1884
      3549.7444
 04  9 10 16 35 44.9960000  0  6G 1G11G14G23G25G20
 -16622048.00848 -12931051.66046  19481652.2624   19481649.7074
      1791.8024
  -8587484.00048  -6675537.89845  20467035.8244   20467032.7544
      -279.4954
   8824214.65647   6869010.58242  22405544.8404   22405542.7274
     -1716.0294
  -8478310.80947  -6595515.60543  21827241.4574   21827238.1564
      3697.2094
 -14546850.95348 -11313924.68446  19532116.0904   19532113.2234
       764.3194
 -17421131.61749 -13568960.17644  20561030.4184   20561027.1294
      3546.9914
 04  9 10 16 35 59.9960000  0  6G 1G11G14G23G25G20
 -16648865.18448 -12951948.16846  19476549.0204   19476546.8914
      1787.8124
  -8583181.78548  -6672185.55945  20467854.3404   20467851.5434
      -286.8144
   8849952.58647   6889066.07442  22410441.9814   22410440.4344
     -1715.8624
  -8533739.21547  -6638706.56244  21816694.2464   21816690.5164
      3695.2274
 -14558198.28948 -11322766.77347  19529956.7384   19529954.2114
       756.4894
 -17474294.93049 -13610386.12944  20550913.9024   20550911.0864
      3544.2214
 04  9 10 16 36 14.9960000  0  6G 1G11G14G23G25G20
 -16675622.34048 -12972797.88747  19471457.3324   19471455.3244
      1783.8104
  -8578769.69948  -6668747.59045  20468693.9884   20468691.7314
      -294.1394
   8875688.14147   6909119.70742  22415339.4494   22415337.6294
     -1715.7044
  -8589137.67247  -6681874.18043  21806152.6844   21806148.1914
      3693.2304
 -14569428.02048 -11331517.21547  19527820.0664   19527817.2774
       748.6494
 -17527416.12949 -13651779.26645  20540804.8794   20540802.6994
      3541.4134
 04  9 10 16 36 29.9960000  0  6G 1G11G14G23G25G20
 -16702319.37949 -12993600.78947  19466377.0044   19466375.1684
      1779.8034
  -8574247.89548  -6665224.13745  20469554.4104   20469551.4614
      -301.4544
   8901421.35547   6929171.53942  22420235.7464   22420234.9534
     -1715.5484
  -8644505.94147  -6725018.25843  21795615.7544   21795611.9224
      3691.2184
 -14580540.19148 -11340176.05547  19525705.4024   19525702.5864
       740.8114
 -17580494.94148 -13693139.36745  20530704.7314   20530701.9534
      3538.5884
 04  9 10 16 36 44.9960000  0  6G 1G11G14G23G25G20
 -16728955.72349 -13014356.37546  19461308.4184   19461306.2664
      1775.7564
  -8569616.03948  -6661614.91045  20470435.8634   20470433.2974
      -308.7904
   8927152.74247   6949221.92242  22425132.1134   22425131.2814
     -1715.4264
  -8699843.31247  -6768138.27743  21785085.5904   21785081.5664
      3689.1584
 -14591534.30549 -11348742.89147  19523613.2854   19523610.2584
       732.9414
 -17633530.38349 -13734465.67645  20520612.1764   20520609.1294
      3535.6964
 04  9 10 16 36 59.9960000  0  6G 1G11G14G23G25G20
 -16755531.83648 -13035065.03546  19456251.0594   19456248.9814
      1771.7414
  -8564874.81648  -6657920.46145  20471337.6134   20471335.5744
      -316.0824
   8952881.78547   6969270.49642  22430029.1994   22430027.1214
     -1715.2704
  -8755150.29347  -6811234.62943  21774561.2934   21774557.0784
      3687.1324
 -14602410.81648 -11357218.09846  19521543.3954   19521540.7114
       725.1014
 -17686522.78549 -13775758.46545  20510528.3094   20510525.3914
      3532.8274
 04  9 10 16 37 14.9960000  0  6G 1G11G14G23G25G20
 -16782048.87949 -13055727.67646  19451205.2464   19451203.3714
      1767.8034
  -8560025.39148  -6654141.71545  20472260.7314   20472258.5944
      -323.2954
   8978607.35247   6989316.35242  22434924.3164   22434923.0594
     -1715.0384
  -8810427.85247  -6854308.05543  21764042.2704   21764037.5784
      3685.1714
 -14613170.89148 -11365602.57846  19519496.1454   19519493.1024
       717.3384
 -17739472.92249 -13817018.29745  20500452.5824   20500449.9064
      3530.0094
 04  9 10 16 37 29.9960000  0  6G 1G11G14G23G25G20
 -16808505.47749 -13076343.20346  19446171.0044   19446168.4694
      1763.7734
  -8555066.52048  -6650277.67245  20473204.2624   20473202.0434
      -330.5914
   9004330.71947   7009360.50042  22439818.8564   22439817.8914
     -1714.8914
  -8865674.59047  -6897357.44143  21753529.0594   21753524.5864
      3683.1164
 -14623813.06648 -11373895.18747  19517470.8874   19517467.8564
       709.4784
 -17792379.08249 -13858243.85545  20490384.7704   20490381.8594
      3527.0774
 04  9 10 16 37 44.9960000  0  6G 1G11G14G23G25G20
 -16834902.16449 -13096912.05546  19441147.1914   19441145.2894
      1759.7794
  -8549998.87948  -6646328.88745  20474168.4734   20474166.5234
      -337.8434
   9030051.35947   7029402.50842  22444714.0904   22444712.3524
     -1714.7094
  -8920890.71147  -6940383.00443  21743021.9414   21743017.3674
      3681.0754
 -14634338.05148 -11382096.48447  19515468.0044   19515465.0554
       701.6664
 -17845241.48849 -13899435.35245  20480324.9024   20480322.4734
      3524.1604
 04  9 10 16 37 59.9960000  0  6G 1G11G14G23G25G20
 -16861239.09449 -13117434.33646  19436135.7934   19436133.0824
      1755.7954
  -8544822.90648  -6642295.68445  20475154.0514   20475151.3594
      -345.0654
   9055769.07847   7049442.27342  22449607.7384   22449606.3794
     -1714.5154
  -8976076.42647  -6983384.83243  21732520.2154   21732516.8094
      3679.0484
 -14644746.16849 -11390206.70747  19513487.4964   19513484.5164
       693.8744
 -17898060.08249 -13940592.68745  20470274.4654   20470271.2774
      3521.2404
 04  9 10 16 38 14.9960000  0  6G 1G11G14G23G25G20
 -16887516.75049 -13137910.43446  19431135.3014   19431133.3364
      1751.8444
  -8539539.16448  -6638178.49645  20476159.4264   20476156.7704
      -352.2494
   9081483.43847   7069479.39842  22454501.4024   22454499.7934
     -1714.2914
  -9031232.14847  -7026363.30143  21722024.4574   21722020.5984
      3677.0484
 -14655037.86748 -11398226.21546  19511529.0204   19511526.0084
       686.1134
 -17950835.07049 -13981716.04745  20460231.2314   20460228.5594
      3518.3334
 04  9 10 16 38 29.9960000  0  6G 1G11G14G23G25G20
 -16913735.29749 -13158340.46946  19426146.1994   19426143.7934
      1747.9034
  -8534148.00448  -6633977.60945  20477185.4104   20477182.4654
      -359.4114
   9107194.17647   7089513.68842  22459393.5984   22459392.3014
     -1714.0494
  -9086357.87147  -7069318.39843  21711535.0354   21711530.9104
      3675.0484
 -14665213.37949 -11406155.19147  19509592.2384   19509589.8524
       678.3674
 -18003566.33249 -14022805.33645  20450196.8874   20450193.7424
      3515.4174
 04  9 10 16 38 44.9960000  0  6G 1G11G14G23G25G20
 -16939894.61349 -13178724.36346  19421167.7314   19421165.4104
      1743.9544
  -8528649.54748  -6629693.11345  20478231.9024   20478228.6764
      -366.5644
   9132901.27347   7109545.14842  22464285.6374   22464283.7384
     -1713.8074
  -9141453.30947  -7112249.89143  21701049.9734   21701046.2854
      3673.0294
 -14675272.62949 -11413993.56646  19507678.2544   19507675.2034
       670.6174
 -18056253.32849 -14063860.12945  20440171.1914   20440168.1844
      3512.4664
 04  9 10 16 38 59.9960000  0  6G 1G11G14G23G25G20
 -16965994.25849 -13199061.74246  19416201.3954   19416199.2544
      1739.9764
  -8523043.40648  -6625324.69945  20479298.5274   20479296.0554
      -373.7434
   9158605.30547   7129574.20342  22469177.7234   22469174.8634
     -1713.6024
  -9196518.00047  -7155157.43444  21690571.6214   21690567.3594
      3670.9794
 -14685215.32848 -11421741.13747  19505786.4964   19505783.4694
       662.8474
 -18108895.40249 -14104879.91845  20430153.3164   20430150.6484
      3509.4724
 04  9 10 16 39 14.9960000  0  6G 1G11G14G23G25G20
 -16992034.47749 -13219352.82446  19411246.1134   19411243.7424
      1736.0154
  -8517330.04348  -6620872.74245  20480386.0124   20480383.0704
      -380.8914
   9184305.78147   7149600.52742  22474067.6454   22474065.7854
     -1713.3654
  -9251552.09447  -7198041.13343  21680098.9494   21680094.3014
      3668.9404
 -14695041.89149 -11429398.20347  19503916.4264   19503913.5984
       655.1044
 -18161492.48449 -14145864.66045  20420144.7074   20420141.7114
      3506.4724
 04  9 10 16 39 29.9960000  0  6G 1G11G14G23G25G20
 -17018015.03549 -13239597.42246  19406302.2154   19406300.0044
      1732.0374
  -8511509.36748  -6616337.16845  20481492.9964   20481490.9734
      -388.0454
   9210003.03547   7169624.32842  22478957.6134   22478956.0004
     -1713.1504
  -9306555.27347  -7240900.74243  21669632.2154   21669627.4344
      3666.8794
 -14704752.02748 -11436964.54347  19502068.4734   19502065.6064
       647.3424
 -18214044.02349 -14186813.90245  20410144.3954   20410141.8404
      3503.4364
 04  9 10 16 39 44.9960000  0  6G 1G11G14G23G25G20
 -17043936.27349 -13259795.78946  19401369.5044   19401367.4384
      1728.0834
  -8505581.80548  -6611718.30945  20482621.6374   20482618.8164
      -395.1714
   9235696.64147   7189645.28542  22483847.2154   22483845.4064
     -1712.9074
  -9361527.77046  -7283736.43743  21659171.8564   21659167.2734
      3664.8334
 -14714346.18748 -11444440.51646  19500242.9414   19500240.0234
       639.6114
 -18266550.11749 -14227727.72745  20400152.8874   20400149.6644
      3500.4064
 04  9 10 16 39 59.9960000  0  6G 1G11G14G23G25G20
 -17069797.94949 -13279947.74646  19396448.2934   19396446.2314
      1724.1124
  -8499547.43048  -6607016.21545  20483769.8014   20483767.0004
      -402.2924
   9261386.92247   7209663.65642  22488735.6294   22488734.0984
     -1712.6854
  -9416469.22347  -7326547.94543  21648715.8014   21648711.6884
      3662.7644
 -14723824.12949 -11451825.92647  19498439.1454   19498436.3794
       631.8634
 -18319010.30149 -14268605.79345  20390170.1214   20390167.1844
      3497.3464
 04  9 10 16 40 14.9960000  0  6G 1G11G14G23G25G20
 -17095601.41449 -13300054.34446  19391537.9344   19391535.8674
      1720.2314
  -8493407.63348  -6602231.98445  20484938.1524   20484935.4844
      -409.3204
   9287072.29347   7229678.20742  22493623.7544   22493622.5704
     -1712.3584
  -9471380.77747  -7369336.15643  21638267.0904   21638261.9414
      3660.7704
 -14733187.35549 -11459121.95346  19496657.5594   19496654.6764
       624.2154
 -18371425.55149 -14309448.84045  20380195.5744   20380192.8284
      3494.3504
 04  9 10 16 40 29.9960000  0  6G 1G11G14G23G25G20
 -17121345.76649 -13320114.87946  19386639.0434   19386636.7274
      1716.2904
  -8487161.72348  -6597365.06245  20486126.9884   20486124.0864
      -416.3944
   9312753.69947   7249689.65242  22498510.9104   22498509.4614
     -1712.0944
  -9526261.53147  -7412100.36343  21627823.5904   21627818.8134
      3658.7174
 -14742434.94549 -11466327.87146  19494897.6294   19494894.9144
       616.5064
 -18423794.75849 -14350256.00445  20370230.1374   20370227.1294
      3491.2804
 04  9 10 16 40 44.9960000  0  6G 1G11G14G23G25G20
 -17147030.32849 -13340128.82446  19381751.3404   19381748.6954
      1712.3044
  -8480809.25048  -6592415.10245  20487335.3484   20487332.1764
      -423.4984
   9338431.91047   7269698.62542  22503396.6604   22503396.0634
     -1711.8814
  -9581110.65647  -7454839.93743  21617386.2464   21617381.3524
      3656.6084
 -14751566.16449 -11473443.11746  19493160.2154   19493157.5474
       608.7484
 -18476116.69149 -14391026.33245  20360273.7154   20360270.6604
      3488.1294
 04  9 10 16 40 59.9960000  0  6G 1G11G14G23G25G20
 -17172656.07449 -13360096.93746  19376875.1454   19376872.6884
      1708.3834
  -8474351.26649  -6587382.92645  20488564.4344   20488561.5784
      -430.5324
   9364105.98047   7289704.35942  22508282.5274   22508281.5904
     -1711.6054
  -9635929.10547  -7497555.59443  21606954.3404   21606949.7624
      3654.5634
 -14760582.10949 -11480468.53147  19491444.1764   19491441.2314
       601.0634
 -18528392.12949 -14431760.43745  20350325.8164   20350322.8444
      3485.0294
 04  9 10 16 41 14.9960000  0  6G 1G11G14G23G25G20
 -17198223.75849 -13380019.80947  19372009.7774   19372007.9344
      1704.5124
  -8467788.74648  -6582269.28545  20489813.0824   20489810.2194
      -437.5014
   9389774.93047   7309706.08242  22513167.3634   22513166.3094
     -1711.2634
  -9690717.35547  -7540247.72743  21596528.4884   21596524.5744
      3652.5504
 -14769483.67249 -11487404.81246  19489750.4414   19489747.4774
       593.4384
 -18580621.62149 -14472458.74245  20340386.8164   20340383.8094
      3481.9664
 04  9 10 16 41 29.9960000  0  6G 1G11G14G23G25G20
 -17223732.41849 -13399896.69146  19367155.5984   19367153.4264
      1700.5774
  -8461120.83249  -6577073.52344  20491081.9494   20491079.1334
      -444.5284
   9415439.78147   7329704.64142  22518051.0354   22518049.8204
     -1710.9904
  -9745474.48847  -7582915.60944  21586108.4734   21586104.7974
      3650.4764
 -14778269.92249 -11494251.24646  19488078.4494   19488075.7974
       585.7504
 -18632803.76649 -14513120.13745  20330456.8404   20330454.0004
      3478.8104
 04  9 10 16 41 44.9960000  0  6G 1G11G14G23G25G20
 -17249181.80949 -13419727.39546  19362312.7854   19362310.3164
      1696.6264
  -8454347.51648  -6571795.62945  20492371.0664   20492367.8054
      -451.5544
   9441100.77347   7349700.18042  22522934.8014   22522933.6294
     -1710.7334
  -9800200.07847  -7625558.92244  21575694.4104   21575690.5704
      3648.3734
 -14786940.71949 -11501007.72346  19486428.5274   19486425.9224
       578.0534
 -18684938.09449 -14553744.28545  20320536.1844   20320532.9264
      3475.6224
 04  9 10 16 41 59.9960000  0  6G 1G11G14G23G25G20
 -17274573.30949 -13439512.97746  19357480.7074   19357478.4694
      1692.7674
  -8447470.28548  -6566436.77045  20493679.8094   20493676.9694
      -458.4824
   9466756.47347   7369691.59842  22527816.9964   22527816.2664
     -1710.3804
  -9854895.43747  -7668178.66844  21565286.4104   21565282.4414
      3646.3574
 -14795497.53149 -11507675.36747  19484800.2854   19484797.7504
       570.4544
 -18737025.66449 -14594332.00845  20310624.0514   20310621.4494
      3472.5054
 04  9 10 16 42 14.9960000  0  6G 1G11G14G23G25G20
 -17299905.22349 -13459252.13347  19352660.3564   19352658.2624
      1688.7944
  -8440487.66448  -6560995.77345  20495008.3014   20495005.6524
      -465.5084
   9492408.57847   7389680.19942  22532698.4184   22532697.3484
     -1710.1404
  -9909558.71547  -7710773.39843  21554884.1684   21554880.3014
      3644.2184
 -14803938.76649 -11514252.95746  19483193.8874   19483191.2234
       562.7494
 -18789064.52049 -14634881.73845  20300721.3094   20300718.7894
      3469.2574
 04  9 10 16 42 29.9960000  0  6G 1G11G14G23G25G20
 -17325178.30549 -13478945.45346  19347850.9884   19347848.9184
      1684.8724
  -8433400.50848  -6555473.32045  20496357.2074   20496354.4304
      -472.4774
   9518056.33247   7409665.43442  22537578.3164   22537577.8984
     -1709.8504
  -9964190.64147  -7753343.71943  21544487.9104   21544483.7194
      3642.1284
 -14812265.30149 -11520741.17646  19481609.6454   19481606.9344
       555.1024
 -18841055.02048 -14675393.80945  20290827.9884   20290825.1174
      3466.0334
 04  9 10 16 42 44.9960000  0  6G 1G11G14G23G25G20
 -17350393.41049 -13498593.58646  19343052.7544   19343050.2344
      1681.0074
  -8426210.01248  -6549870.35245  20497725.6294   20497723.4734
      -479.3664
   9543698.79747   7429646.53542  22542458.5354   22542457.5044
     -1709.4984
 -10018791.94547  -7795890.18043  21534098.0594   21534093.3984
      3640.0874
 -14820477.95349 -11527140.64847  19480046.4964   19480043.8984
       547.5104
 -18892997.76248 -14715868.68045  20280943.8564   20280940.7664
      3462.8494
 04  9 10 16 42 59.9960000  0  6G 1G11G14G23G25G20
 -17375550.23049 -13518196.29346  19338265.7624   19338263.5314
      1677.1214
  -8418915.92648  -6544186.66445  20499113.2154   20499110.9884
      -486.2724
   9569336.29347   7449623.78142  22547336.3874   22547336.3874
     -1709.1664
 -10073362.19147  -7838412.44943  21523713.1064   21523709.4884
      3638.0164
 -14828576.49249 -11533451.20347  19478505.8484   19478503.0784
       539.9034
 -18944892.17248 -14756305.87945  20271068.4024   20271066.0234
      3459.6274
 04  9 10 16 43 14.9960000  0  6G 1G11G14G23G25G20
 -17400649.04349 -13537753.82847  19333489.3164   19333487.5084
      1673.2544
  -8411518.86348  -6538422.72745  20500520.8874   20500518.6024
      -493.1374
   9594968.34847   7469596.77042  22552214.7074   22552213.6454
     -1708.8044
 -10127901.69948  -7880910.75043  21513335.0514   21513330.8954
      3635.9674
 -14836561.36749 -11539673.18746  19476986.1294   19476983.5824
       532.3254
 -18996738.23448 -14796705.40245  20261202.4734   20261199.5004
      3456.4044
 04  9 10 16 43 29.9960000  0  6G 1G11G14G23G25G20
 -17425689.41849 -13557265.80146  19328724.4264   19328722.2034
      1669.3584
  -8404018.39148  -6532578.22745  20501948.5434   20501945.8404
      -500.0324
   9620595.50847   7489565.93842  22557091.1604   22557090.6414
     -1708.4774
 -10182409.74247  -7923384.54343  21502962.8404   21502958.6214
      3633.8704
 -14844432.10549 -11545806.23047  19475488.4494   19475485.8954
       524.7164
 -19048535.19548 -14837066.66045  20251346.3564   20251342.8754
      3453.1314
 04  9 10 16 43 44.9960000  0  6G 1G11G14G23G25G20
 -17450672.50849 -13576733.14846  19323969.9344   19323967.8444
      1665.5394
  -8396415.90648  -6526654.21945  20503394.8874   20503392.3404
      -506.8324
   9646216.61747   7509530.41842  22561967.0744   22561965.8594
     -1708.0744
 -10236887.40248  -7965834.66044  21492595.7314   21492592.2584
      3631.8444
 -14852189.96549 -11551851.32846  19474012.4024   19474009.4414
       517.1914
 -19100283.92648 -14877390.34845  20241498.2704   20241495.1484
      3449.9154
 04  9 10 16 43 59.9960000  0  6G 1G11G14G23G25G20
 -17475598.13749 -13596155.72346  19319227.1994   19319224.7114
      1661.7094
  -8388711.34848  -6520650.68744  20504861.0984   20504858.7734
      -513.6374
   9671831.71947   7529490.21542  22566841.1684   22566840.3954
     -1707.6734
 -10291334.49247  -8008260.95344  21482234.7154   21482230.4534
      3629.8064
 -14859834.95348 -11557808.46146  19472557.3484   19472554.3914
       509.6664
 -19151983.84448 -14917675.98845  20231660.0904   20231657.5664
      3446.6614
 04  9 10 16 44 14.9960000  0  6G 1G11G14G23G25G20
 -17500466.76649 -13615533.88346  19314494.7234   19314492.7504
      1657.9094
  -8380905.50448  -6514568.23845  20506346.8874   20506343.9774
      -520.3904
   9697440.48047   7549445.04742  22571714.4814   22571714.0784
     -1707.2514
 -10345751.32047  -8050663.66444  21471879.5124   21471875.8524
      3627.7894
 -14867367.51649 -11563677.99647  19471123.9264   19471121.1134
       502.1714
 -19203635.16848 -14957923.76645  20221831.3404   20221828.6454
      3443.4224
 04  9 10 16 44 29.9960000  0  6G 1G11G14G23G25G20
 -17525277.51649 -13634866.93046  19309773.4184   19309771.1724
      1654.0504
  -8372997.57848  -6508406.23045  20507851.3094   20507848.7034
      -527.1954
   9723043.72347   7569395.57842  22576587.1064   22576585.4414
     -1706.8834
 -10400136.85547  -8093041.97744  21461530.3874   21461526.2544
      3625.7024
 -14874786.72749 -11569459.19947  19469711.9024   19469709.5004
       494.6144
 -19255236.55548 -14998132.63345  20212012.0904   20212008.9344
      3440.0924
 04  9 10 16 44 44.9960000  0  6G 1G11G14G23G25G20
 -17550030.35949 -13654154.86346  19305063.2234   19305060.5124
      1650.1904
  -8364987.73048  -6502164.80944  20509375.6294   20509372.5744
      -533.9904
   9748641.49647   7589341.86342  22581457.7464   22581456.7704
     -1706.5184
 -10454490.92647  -8135395.79343  21451186.6764   21451183.3364
      3623.6054
 -14882092.79748 -11575152.25047  19468321.7544   19468318.9064
       487.0714
 -19306787.82048 -15038302.45745  20202202.1684   20202199.0554
      3436.7514
 04  9 10 16 44 59.9960000  0  6G 1G11G14G23G25G20
 -17574725.98049 -13673398.21546  19300363.9104   19300361.4264
      1646.3754
  -8356876.80948  -6495844.63344  20510919.4264   20510915.8094
      -540.7284
   9774233.11347   7609283.35942  22586327.6994   22586327.1374
     -1706.1084
 -10508814.17647  -8177725.58244  21440849.8244   21440845.6954
      3621.5504
 -14889286.50449 -11580757.74647  19466952.9104   19466950.4414
       479.5804
 -19358289.41448 -15078433.55145  20192401.9184   20192399.0704
      3433.4404
 04  9 10 16 45 14.9960000  0  6G 1G11G14G23G25G20
 -17599365.17249 -13692597.57846  19295674.9884   19295672.9924
      1642.6134
  -8348665.83648  -6489446.48044  20512481.6134   20512478.7424
      -547.3984
   9799817.70747   7629219.37542  22591196.5204   22591195.3284
     -1705.6404
 -10563107.29747  -8220031.89844  21430518.2314   21430513.6914
      3619.5414
 -14896368.67248 -11586276.32447  19465605.3634   19465602.4694
       472.1454
 -19409741.70348 -15118526.23445  20182610.6454   20182607.6134
      3430.1534
 04  9 10 16 45 29.9960000  0  6G 1G11G14G23G25G20
 -17623946.83649 -13711752.12546  19290997.5274   19290995.1334
      1638.7784
  -8340353.72748  -6482969.54345  20514063.9414   20514060.7974
      -554.1414
   9825396.18046   7649150.62942  22596062.7854   22596062.4384
     -1705.2324
 -10617369.10248  -8262313.82044  21420192.2234   21420188.1254
      3617.4544
 -14903338.31248 -11591707.21546  19464279.1524   19464276.1804
       464.6434
 -19461143.35548 -15158579.47745  20172829.1134   20172825.9844
      3426.7774
 04  9 10 16 45 44.9960000  0  6G 1G11G14G23G25G20
 -17648471.73049 -13730862.43747  19286330.2234   19286328.2034
      1634.9934
  -8331941.59448  -6476414.65245  20515664.9024   20515661.4924
      -560.8094
   9850967.88346   7669076.59442  22600929.8014   22600928.4224
     -1704.7804
 -10671600.21948  -8304571.82444  21409872.2464   21409868.4104
      3615.4084
 -14910196.33649 -11597051.13746  19462973.9104   19462971.4184
       457.2024
 -19512494.84848 -15198593.61345  20163057.4184   20163054.3244
      3423.4334
 04  9 10 16 45 59.9960000  0  6G 1G11G14G23G25G20
 -17672939.69949 -13749928.38746  19281674.1604   19281671.9414
      1631.1984
  -8323429.45349  -6469781.83645  20517284.0744   20517281.6914
      -567.4764
   9876533.02747   7688997.44942  22605795.2704   22605793.5004
     -1704.3434
 -10725800.36748  -8346805.68044  21399558.8954   21399554.3404
      3613.3434
 -14916942.56649 -11602307.94546  19461690.0354   19461687.4774
       449.7494
 -19563795.62148 -15238568.24245  20153295.3634   20153292.5044
      3420.0524
 04  9 10 16 46 14.9960000  0  6G 1G11G14G23G25G20
 -17697350.49249 -13768949.79346  19277029.1994   19277027.0634
      1627.3864
  -8314817.30948  -6463071.07845  20518923.0354   20518920.2974
      -574.1434
   9902091.76647   7708913.32842  22610658.0824   22610657.0204
     -1703.9164
 -10779969.16848  -8389015.12544  21389251.0824   21389246.4414
      3611.2534
 -14923576.87949 -11607477.54346  19460427.5594   19460424.7234
       442.2884
 -19615045.15248 -15278502.94545  20143542.4184   20143539.5984
      3416.6354
 04  9 10 16 46 29.9960000  0  6G 1G11G14G23G25G20
 -17721703.70749 -13787926.32447  19272394.7704   19272392.3564
      1623.5484
  -8306104.84449  -6456282.17244  20520581.2544   20520578.3054
      -580.8314
   9927644.47347   7728824.48042  22615521.7934   22615519.4614
     -1703.5144
 -10834106.29348  -8431199.89544  21378948.5744   21378944.2384
      3609.1424
 -14930099.07049 -11612559.77746  19459186.5044   19459183.6134
       434.8134
 -19666242.73049 -15318397.14845  20133800.0984   20133796.8484
      3413.1724
 04  9 10 16 46 44.9960000  0  6G 1G11G14G23G25G20
 -17746000.28949 -13806858.73846  19267771.4494   19267769.5274
      1619.7724
  -8297293.16048  -6449415.93744  20522257.7314   20522254.8564
      -587.4464
   9953190.18447   7748730.19542  22620382.5904   22620380.6134
     -1703.0474
 -10888212.42247  -8473360.50044  21368652.3244   21368648.2154
      3607.0754
 -14936510.10549 -11617555.39146  19457966.5824   19457963.9694
       427.4024
 -19717389.01249 -15358251.39845  20124067.0664   20124064.1454
      3409.7524
 04  9 10 16 46 59.9960000  0  6G 1G11G14G23G25G20
 -17770239.81649 -13825746.68047  19263158.5984   19263156.6254
      1615.9684
  -8288382.25449  -6442472.39144  20523953.3094   20523950.5474
      -594.0604
   9978729.34447   7768630.81342  22625243.0594   22625240.5744
     -1702.6114
 -10942287.11348  -8515496.59844  21358362.2624   21358358.2894
      3604.9794
 -14942809.59849 -11622464.10246  19456767.6994   19456765.1214
       419.9664
 -19768483.31649 -15398065.14145  20114344.2854   20114341.5084
      3406.2874
 04  9 10 16 47 14.9960000  0  6G 1G11G14G23G25G20
 -17794423.67649 -13844591.23847  19258556.8324   19258554.6294
      1612.2574
  -8279373.57448  -6435452.65244  20525667.6454   20525664.5744
      -600.5794
  10004260.50047   7788525.18842  22630100.6214   22630099.6724
     -1702.0774
 -10996331.68048  -8557609.23843  21348078.3564   21348073.8794
      3602.9714
 -14948999.16449 -11627287.13746  19455590.1064   19455587.3484
       412.6384
 -19819526.71549 -15437839.21145  20104631.0984   20104628.2154
      3402.8934
 04  9 10 16 47 29.9960000  0  6G 1G11G14G23G25G20
 -17818551.03949 -13863391.79346  19253965.6064   19253963.4614
      1608.4914
  -8270266.43048  -6428356.19145  20527400.4414   20527397.9184
      -607.1434
  10029784.52047   7808413.99642  22634957.9024   22634956.2664
     -1701.6014
 -11050345.12147  -8599697.61744  21337800.1294   21337795.5084
      3600.8964
 -14955077.92649 -11632023.84446  19454433.3244   19454430.5554
       405.2514
 -19870517.96949 -15477572.64145  20094927.8874   20094924.8324
      3399.4174
 04  9 10 16 47 44.9960000  0  6G 1G11G14G23G25G20
 -17842621.89149 -13882148.30546  19249384.8164   19249382.9024
      1604.7234
  -8261061.04348  -6421183.18045  20529152.5594   20529150.2274
      -613.6924
  10055301.46546   7828297.30942  22639812.5904   22639812.5704
     -1701.1304
 -11104327.25048  -8641761.60944  21327527.7314   21327522.7034
      3598.8094
 -14961046.00849 -11636674.30146  19453297.6294   19453294.8794
       397.8724
 -19921456.80549 -15517265.24645  20085234.3484   20085231.4734
      3395.9224
 04  9 10 16 47 59.9960000  0  6G 1G11G14G23G25G20
 -17866636.26249 -13900860.79346  19244815.2774   19244812.9654
      1600.9584
  -8251757.65649  -6413933.79745  20530923.3244   20530920.4924
      -620.2264
  10080811.26246   7848175.00042  22644668.0514   22644666.6644
     -1700.6534
 -11158278.15248  -8683801.25044  21317260.5434   21317256.1764
      3596.7274
 -14966903.48449 -11641238.57846  19452182.6764   19452180.3324
       390.4984
 -19972342.97749 -15556916.80145  20075551.2314   20075548.1524
      3392.4114
 04  9 10 16 48 14.9960000  0  6G 1G11G14G23G25G20
 -17890595.49249 -13919530.33246  19240255.7464   19240253.6994
      1597.2824
  -8242357.73048  -6406609.19145  20532711.8714   20532709.2274
      -626.6624
  10106312.60946   7868046.16842  22649520.5984   22649520.0394
     -1700.0904
 -11212198.84048  -8725817.38344  21306999.6684   21306995.3914
      3594.7134
 -14972651.73849 -11645717.74247  19451089.0124   19451086.2464
       383.2174
 -20023177.37548 -15596528.02045  20065877.5434   20065874.7234
      3388.9604
 04  9 10 16 48 29.9960000  0  6G 1G11G14G23G25G20
 -17914497.99649 -13938155.66847  19235707.4024   19235705.2344
      1593.5004
  -8232859.90248  -6399208.30545  20534518.6604   20534516.7194
      -633.1894
  10131806.89546   7887911.81342  22654372.0664   22654371.1254
     -1699.6194
 -11266087.77347  -8767808.73844  21296745.3164   21296740.8594
      3592.5964
 -14978289.45349 -11650110.78147  19450016.2154   19450013.8634
       375.8484
 -20073958.23448 -15636097.52045  20056214.0664   20056211.2664
      3385.3914
 04  9 10 16 48 44.9960000  0  6G 1G11G14G23G25G20
 -17938343.84449 -13956736.84047  19231169.5744   19231167.6914
      1589.7234
  -8223264.35548  -6391731.27344  20536345.2234   20536342.6414
      -639.7034
  10157294.14546   7907771.95742  22659222.2624   22659220.9614
     -1699.1504
 -11319944.84048  -8809775.28944  21286496.1604   21286492.2274
      3590.4714
 -14983816.91049 -11654417.89547  19448964.5354   19448961.7154
       368.4974
 -20124685.32848 -15675625.11345  20046561.4884   20046558.2504
      3381.8064
 04  9 10 16 48 59.9960000  0  6G 1G11G14G23G25G20
 -17962134.16049 -13975274.75446  19226642.2544   19226640.1374
      1586.0214
  -8213572.68448  -6384179.33244  20538188.9414   20538186.2774
      -646.1114
  10182773.12545   7927625.65642  22664070.3014   22664069.5354
     -1698.5994
 -11373771.18448  -8851717.88744  21276254.0044   21276249.8954
      3588.4234
 -14989235.16449 -11658639.90647  19447933.2854   19447930.8754
       361.2174
 -20175359.46548 -15715111.44545  20036918.2934   20036915.7384
      3378.2764
 04  9 10 16 49 14.9960000  0  6G 1G11G14G23G25G20
 -17985868.73849 -13993769.23846  19222125.8484   19222123.8834
      1582.3054
  -8203784.69548  -6376552.34044  20540051.3094   20540049.5704
      -652.5334
  10208244.08645   7947473.11342  22668917.6844   22668916.6134
     -1698.0644
 -11427566.43448  -8893636.26244  21266016.6524   21266012.9734
      3586.3504
 -14994544.08649 -11662776.74247  19446923.2704   19446920.3914
       353.9284
 -20225979.98048 -15754556.00845  20027285.6374   20027282.3914
      3374.7014
 04  9 10 16 49 29.9960000  0  6G 1G11G14G23G25G20
 -18009548.11349 -14012220.69547  19217619.7934   19217617.6994
      1578.6254
  -8193901.10948  -6368850.87144  20541932.6764   20541930.2344
      -658.9064
  10233706.49645   7967313.93042  22673763.2704   22673762.0084
     -1697.4944
 -11481331.07448  -8935530.76244  21255785.8164   21255781.7814
      3584.3094
 -14999744.34049 -11666828.89846  19445933.7544   19445930.9024
       346.6844
 -20276547.27048 -15793959.07845  20017662.8244   20017659.9104
      3371.1534
 04  9 10 16 49 44.9960000  0  6G 1G11G14G23G25G20
 -18033171.19549 -14030628.29347  19213124.5664   19213122.2584
      1574.8724
  -8183920.95748  -6361074.14544  20543831.4104   20543828.7974
      -665.3434
  10259161.33246   7987148.82842  22678607.3714   22678606.1484
     -1696.9894
 -11535063.84448  -8977400.43444  21245560.4964   21245556.3524
      3582.1854
 -15004834.89549 -11670795.57047  19444965.1134   19444962.4224
       339.3704
 -20327059.85248 -15833319.53145  20008050.5354   20008047.5434
      3367.5054
 04  9 10 16 49 59.9960000  0  6G 1G11G14G23G25G20
 -18056738.47749 -14048992.41446  19208639.8324   19208637.5704
      1571.1524
  -8173845.16048  -6353222.89544  20545749.3094   20545746.5784
      -671.7204
  10284608.21145   8006977.52342  22683449.9574   22683448.9414
     -1696.4594
 -11588765.16848  -9019245.60244  21235341.6604   21235337.5004
      3580.0884
 -15009816.41449 -11674677.27747  19444017.0594   19444013.9924
       332.1014
 -20377517.95348 -15872637.52345  19998448.9494   19998446.3014
      3363.8734
 04  9 10 16 50 14.9960000  0  6G 1G11G14G23G25G20
 -18080249.52349 -14067312.71947  19204165.8324   19204163.5274
      1567.4034
  -8163673.41848  -6345296.87545  20547685.3094   20547681.9614
      -678.1164
  10310047.40245   8026800.22742  22688290.6844   22688289.6994
     -1695.9464
 -11642434.50448  -9061065.84044  21225128.9264   21225124.8754
      3577.9564
 -15014688.59848 -11678473.79747  19443089.7154   19443086.9814
       324.8124
 -20427920.82048 -15911912.48445  19988857.6604   19988854.6844
      3360.1914
 04  9 10 16 50 29.9960000  0  6G 1G11G14G23G25G20
 -18103704.62149 -14085589.42247  19199702.4024   19199699.8014
      1563.6734
  -8153406.22348  -6337296.47345  20549638.9414   20549635.4924
      -684.4804
  10335478.86745   8046616.89142  22693130.1134   22693129.1954
     -1695.4314
 -11696071.96948  -9102861.25844  21214921.7234   21214917.4884
      3575.8314
 -15019451.69148 -11682185.30146  19442183.2854   19442180.5944
       317.5404
 -20478268.43448 -15951144.38345  19979276.4344   19979274.0784
      3356.5084
 04  9 10 16 50 44.9960000  0  6G 1G11G14G23G25G20
 -18127104.82449 -14103823.35246  19195249.4414   19195247.3324
      1560.0144
  -8143044.66848  -6329222.56644  20551610.3954   20551608.0984
      -690.7704
  10360901.42245   8066426.63742  22697967.6064   22697966.7194
     -1694.8374
 -11749678.66047  -9144632.69544  21204720.2384   21204716.0164
      3573.7794
 -15024106.92249 -11685812.76647  19441297.6604   19441294.7464
       310.3494
 -20528561.47748 -15990333.75845  19969706.3634   19969703.5354
      3352.8704
 04  9 10 16 50 59.9960000  0  6G 1G11G14G23G25G20
 -18150449.10549 -14122013.70347  19190807.2854   19190805.4184
      1556.2854
  -8132588.07048  -6321074.58244  20553600.4104   20553597.0824
      -697.1074
  10386316.03945   8086230.17642  22702803.7234   22702802.8634
     -1694.3084
 -11803253.27048  -9186379.14144  21194526.0664   21194521.6094
      3571.6414
 -15028653.21549 -11689355.33647  19440432.6764   19440429.8594
       303.0864
 -20578798.55948 -16029479.53146  19960146.1524   19960143.7624
      3349.1394
 04  9 10 16 51 14.9950000  0  6G 1G11G14G23G25G20
 -18173736.78949 -14140159.95347  19186375.8514   19186373.9094
      1552.5124
  -8122038.32848  -6312854.01644  20555607.9764   20555605.0584
      -703.3164
  10411720.23845   8106025.58242  22707638.3124   22707637.7304
     -1693.6134
 -11856793.14548  -9228098.49644  21184337.5464   21184333.0654
      3569.3254
 -15033091.59849 -11692813.82447  19439587.9834   19439585.1594
       295.8924
 -20628977.01648 -16068579.62546  19950597.4834   19950594.9404
      3345.2304
 04  9 10 16 51 29.9950000  0  6G 1G11G14G23G25G20
 -18196970.85549 -14158264.41447  19181954.4524   19181952.3584
      1548.9384
  -8111393.86748  -6304559.64845  20557633.2804   20557630.8234
      -709.6314
  10437117.46145   8125815.58242  22712471.7184   22712470.6404
     -1693.1484
 -11910305.10948  -9269796.10544  21174154.4294   21174150.8514
      3567.4644
 -15037422.40649 -11696188.48846  19438763.8274   19438761.1054
       288.7214
 -20679103.02348 -16107638.84846  19941058.3744   19941056.4374
      3341.7344
 04  9 10 16 51 44.9950000  0  6G 1G11G14G23G25G20
 -18220149.03549 -14176325.34847  19177543.9374   19177541.7924
      1545.2124
  -8100655.05148  -6296191.75444  20559676.6714   20559674.7144
      -715.9214
  10462506.63745   8145599.32042  22717302.1794   22717301.5584
     -1692.6124
 -11963784.85947  -9311468.62144  21163977.7414   21163973.7884
      3565.3174
 -15041644.89849 -11699478.75046  19437960.3824   19437957.3514
       281.4994
 -20729172.30548 -16146653.85545  19931530.8824   19931528.4564
      3337.9524
 04  9 10 16 51 59.9950000  0  6G 1G11G14G23G25G20
 -18243272.60249 -14194343.71147  19173143.7184   19173141.5934
      1541.5714
  -8089823.29748  -6287751.45344  20561738.1634   20561735.6484
      -722.1174
  10487886.55545   8165375.85542  22722131.6484   22722131.4134
     -1691.9954
 -12017233.53948  -9353116.93044  21153806.9604   21153802.5934
      3563.2454
 -15045760.42249 -11702685.65646  19437177.3354   19437174.6404
       274.3684
 -20779185.78548 -16185625.39146  19922014.1164   19922011.4404
      3334.2324
 04  9 10 16 52 14.9950000  0  6G 1G11G14G23G25G20
 -18266341.06249 -14212319.12947  19168753.4054   19168751.7844
      1537.8974
  -8078898.25448  -6279238.44944  20563816.9444   20563814.3864
      -728.3364
  10513257.72345   8185145.53142  22726960.5304   22726959.5814
     -1691.4114
 -12070650.52748  -9394740.55144  21143641.9294   21143637.2494
      3561.1334
 -15049768.64549 -11705808.95346  19436414.3664   19436411.5114
       267.2154
 -20829142.69548 -16224552.85946  19912507.5624   19912504.7694
      3330.4614
 04  9 10 16 52 29.9950000  0  6G 1G11G14G23G25G20
 -18289353.93049 -14230251.24646  19164374.5074   19164372.3044
      1534.1914
  -8067879.74248  -6270652.60944  20565913.9764   20565911.2574
      -734.5674
  10538620.60245   8204908.76642  22731786.9294   22731786.0234
     -1690.8594
 -12124035.30147  -9436339.05144  21133482.3744   21133478.4914
      3558.9854
 -15053669.07849 -11708848.26246  19435672.1794   19435669.4174
       260.0294
 -20879042.16048 -16263435.55946  19903011.6404   19903009.1324
      3326.6314
 04  9 10 16 52 44.9950000  0  6G 1G11G14G23G25G20
 -18312311.22749 -14248140.05547  19160005.8744   19160003.5894
      1530.4864
  -8056768.02748  -6261994.14144  20568028.4294   20568025.6794
      -740.7814
  10563975.25445   8224665.59442  22736611.9374   22736610.6054
     -1690.3104
 -12177387.66848  -9477912.30544  21123330.3124   21123326.1944
      3556.8244
 -15057461.81649 -11711803.65247  19434950.4054   19434947.4334
       252.8494
 -20928883.82448 -16302273.21146  19893527.2414   19893524.7574
      3322.7784
 04  9 10 16 52 59.9950000  0  6G 1G11G14G23G25G20
 -18335213.50449 -14265985.98847  19155647.9684   19155645.8154
      1526.8184
  -8045563.87948  -6253263.64844  20570160.8274   20570157.9094
      -746.9434
  10589321.00045   8244415.48442  22741435.4374   22741434.3154
     -1689.7164
 -12230708.14848  -9519460.72344  21113183.4524   21113179.1124
      3554.6994
 -15061147.73049 -11714675.80546  19434248.8044   19434245.8274
       245.7284
 -20978668.01249 -16341066.07845  19884053.5694   19884050.9134
      3318.9464
 04  9 10 16 53 14.9950000  0  6G 1G11G14G23G25G20
 -18358060.53549 -14283788.86747  19151300.2574   19151298.2064
      1523.1354
  -8034267.26248  -6244461.10544  20572310.1944   20572307.6904
      -753.1084
  10614658.10945   8264158.64142  22746255.7654   22746256.1244
     -1689.1414
 -12283996.39848  -9560984.02744  21103043.1714   21103038.8124
      3552.5504
 -15064726.57849 -11717464.51646  19433567.7414   19433565.0264
       238.5904
 -21028394.23049 -16379813.77745  19874591.0074   19874588.3664
      3315.0814
 04  9 10 16 53 29.9950000  0  6G 1G11G14G23G25G20
 -18380853.13349 -14301549.34047  19146963.1164   19146960.7734
      1519.5074
  -8022879.17248  -6235587.29344  20574477.1634   20574474.5934
      -759.2064
  10639985.70346   8283894.37142  22751076.0384   22751075.8904
     -1688.5064
 -12337253.16048  -9602482.79344  21092908.7884   21092904.6054
      3550.4514
 -15068199.22749 -11720170.48846  19432907.0544   19432904.2764
       231.5104
 -21078062.91049 -16418516.64546  19865139.6324   19865136.8274
      3311.2454
 04  9 10 16 53 44.9950000  0  6G 1G11G14G23G25G20
 -18403590.09449 -14319266.46147  19142636.3274   19142633.8154
      1515.7974
  -8011398.61748  -6226641.42244  20576662.0154   20576659.2764
      -765.3704
  10665305.05945   8303623.71542  22755894.6794   22755893.6324
     -1687.9574
 -12390477.12548  -9643956.00044  21082781.0934   21082776.6324
      3548.2644
 -15071564.58249 -11722792.85246  19432266.8744   19432263.6594
       224.3574
 -21127672.59449 -16457173.52746  19855699.0304   19855696.2024
      3307.3124
 04  9 10 16 53 59.9950000  0  6G 1G11G14G23G25G20
 -18426272.58649 -14336941.12946  19138320.2804   19138317.8624
      1512.1664
  -7999826.93748  -6217624.54744  20578864.0624   20578861.2304
      -771.4454
  10690614.91846   8323345.61342  22760710.7734   22760710.3234
     -1687.3244
 -12443669.33648  -9685404.45744  21072658.8824   21072654.7144
      3546.1474
 -15074823.99249 -11725332.66446  19431646.2734   19431643.6714
       217.2944
 -21177224.07849 -16495785.06246  19846269.4994   19846266.9094
      3303.4324
 04  9 10 16 54 14.9950000  0  6G 1G11G14G23G25G20
 -18448899.98849 -14354572.87547  19134013.8984   19134011.8234
      1508.4934
  -7988163.84448  -6208536.43744  20581083.4834   20581080.9174
      -777.5404
  10715915.93046   8343060.65642  22765525.5304   22765524.6674
     -1686.7344
 -12496829.10548  -9726827.64544  21062542.2264   21062538.6084
      3543.9854
 -15077977.03549 -11727789.59446  19431046.4914   19431043.6754
       210.2034
 -21226716.46549 -16534350.56245  19836851.5234   19836848.6984
      3299.4924
 04  9 10 16 54 29.9950000  0  6G 1G11G14G23G25G20
 -18471472.03549 -14372161.49246  19129718.8274   19129716.2734
      1504.8034
  -7976409.22748  -6199377.01645  20583320.5464   20583317.7024
      -783.6414
  10741208.32445   8362768.97742  22770337.9054   22770337.2694
     -1686.1604
 -12549955.96148  -9768225.17244  21052432.4604   21052428.6794
      3541.7904
 -15081023.42649 -11730163.40646  19430466.8904   19430463.7414
       203.0934
 -21276149.12949 -16572869.51646  19827444.9764   19827441.8554
      3295.5114
 04  9 10 16 54 44.9950000  0  6G 1G11G14G23G25G20
 -18493988.76649 -14389706.99646  19125434.0384   19125431.5974
      1501.1154
  -7964563.39549  -6190146.51244  20585574.1794   20585571.6834
      -789.7224
  10766492.14545   8382470.60542  22775149.3664   22775148.4684
     -1685.5884
 -12603049.97748  -9809597.11344  21042329.3194   21042325.0814
      3539.6014
 -15083963.40249 -11732454.30947  19429907.4214   19429904.3904
       195.9984
 -21325521.87549 -16611341.77345  19818049.5304   19818046.7414
      3291.5164
 04  9 10 16 54 59.9950000  0  6G 1G11G14G23G25G20
 -18516451.11349 -14407210.12547  19121159.5384   19121157.1124
      1497.4904
  -7952627.45349  -6180845.79744  20587845.8434   20587843.1984
      -795.7294
  10791766.32445   8402164.72342  22779959.3434   22779958.8314
     -1684.9454
 -12656111.91448  -9850944.06644  21032231.7804   21032227.6014
      3537.4634
 -15086798.00849 -11734663.10247  19429367.9994   19429365.0344
       188.9744
 -21374835.23049 -16649767.76646  19808665.8584   19808662.7264
      3287.5574
 04  9 10 16 55 14.9950000  0  6G 1G11G14G23G25G20
 -18538858.81249 -14424670.68047  19116895.3744   19116893.1794
      1493.8474
  -7940601.44548  -6171474.89844  20590134.4054   20590131.2184
      -801.7344
  10817031.23446   8421851.63342  22784766.5544   22784766.6874
     -1684.3274
 -12709141.42248  -9892265.74244  21022140.0234   21022136.4014
      3535.3014
 -15089527.14549 -11736789.71146  19428848.9834   19428845.7064
       181.9424
 -21424088.65649 -16688147.04746  19799293.1404   19799290.0584
      3283.5624
 04  9 10 16 55 29.9950000  0  6G 1G11G14G23G25G20
 -18561211.70749 -14442088.52046  19112641.7414   19112639.6014
      1490.1934
  -7928485.35248  -6162033.79344  20592439.8274   20592436.7494
      -807.7404
  10842287.03945   8441531.41442  22789572.8044   22789572.3314
     -1683.7204
 -12762138.21148  -9933561.94944  21012056.4604   21012051.1514
      3533.1194
 -15092150.75849 -11738834.09046  19428349.3904   19428346.7614
       174.9084
 -21473281.68749 -16726479.27345  19789931.8744   19789928.8584
      3279.5354
 04  9 10 16 55 44.9950000  0  6G 1G11G14G23G25G20
 -18583509.98449 -14459463.80946  19108398.5154   19108396.4054
      1486.5524
  -7916279.44948  -6152522.71144  20594763.0774   20594760.0774
      -813.7274
  10867533.47745   8461203.93442  22794376.4374   22794377.0384
     -1683.0964
 -12815102.40648  -9974832.71944  21001977.8194   21001972.7614
      3530.9464
 -15094669.11749 -11740796.45746  19427869.9294   19427867.0464
       167.8914
 -21522414.21149 -16764764.35546  19780582.5624   19780579.0154
      3275.5024
 04  9 10 16 55 59.9950000  0  6G 1G11G14G23G25G20
 -18605753.66849 -14476796.54747  19104165.6244   19104163.2694
      1482.9124
  -7903984.07848  -6142941.92644  20597102.4994   20597100.0034
      -819.6914
  10892770.61746   8480869.19142  22799180.4914   22799178.9404
     -1682.4764
 -12868033.82048 -10016077.97344  20991904.9054   20991900.4874
      3528.7614
 -15097082.32449 -11742676.89146  19427410.9374   19427408.1944
       160.8804
 -21571485.75049 -16803001.91845  19771244.4524   19771241.4604
      3271.4364
 04  9 10 16 56 14.9950000  0  6G 1G11G14G23G25G20
 -18627942.80549 -14494086.78947  19099943.3584   19099941.2654
      1479.2764
  -7891599.55948  -6133291.67244  20599459.5304   20599456.7884
      -825.6354
  10917998.36346   8500527.14142  22803980.8124   22803979.7144
     -1681.8504
 -12920932.43048 -10057297.64144  20981838.4054   20981833.9914
      3526.5744
 -15099390.57049 -11744475.52347  19426971.6634   19426969.0544
       153.8834
 -21620496.18749 -16841191.86345  19761917.7184   19761914.8904
      3267.3634
 04  9 10 16 56 29.9950000  0  5G 1G11G23G25G20
 -18650077.07449 -14511334.27747  19095731.3274   19095728.8624
      1475.6184
  -7879125.84048  -6123571.92244  20601832.7024   20601830.4134
      -831.5814
 -12973798.03548 -10098491.59844  20971778.7104   20971773.6244
      3524.3744
 -15101593.77049 -11746192.30947  19426552.3194   19426549.7924
       146.8804
 -21669444.93449 -16879333.73846  19752603.4444   19752600.2574
      3263.2504
 04  9 10 16 56 44.9950000  0  5G 1G11G23G25G20
 -18672156.07049 -14528538.68746  19091529.7494   19091527.7334
      1471.9334
  -7866562.71148  -6113782.48444  20604223.7654   20604221.3394
      -837.5424
 -13026629.93747 -10139659.30144  20961725.1404   20961720.7374
      3522.1274
 -15103691.62549 -11747827.00447  19426153.3824   19426150.3274
       139.8574
 -21718331.17249 -16917426.91046  19743300.5544   19743297.6834
      3259.0834
 04  9 10 16 56 59.9950000  0  5G 1G11G23G25G20
 -18694179.93049 -14545700.14847  19087338.9294   19087336.6054
      1468.2574
  -7853910.50848  -6103923.64844  20606631.4054   20606628.6904
      -843.4804
 -13079428.18047 -10180800.77344  20951677.3274   20951674.1014
      3519.8834
 -15105684.32849 -11749379.77746  19425773.9994   19425771.1984
       132.8474
 -21767154.75849 -16955471.25445  19734009.6324   19734006.5734
      3254.9064
 04  9 10 16 57 14.9950000  0  5G 1G11G23G25G20
 -18716148.48449 -14562818.50446  19083158.0934   19083156.1714
      1464.5704
  -7841169.23848  -6093995.39545  20609055.5544   20609053.6834
      -849.4184
 -13132192.54348 -10221915.84844  20941636.8354   20941632.8354
      3517.6244
 -15107571.80949 -11750850.54346  19425414.8514   19425412.1594
       125.8324
 -21815915.34049 -16993466.51245  19724730.4444   19724727.5734
      3250.7054
 04  9 10 16 57 29.9950000  0  5G 1G11G23G25G20
 -18738060.17649 -14579892.55147  19078988.8984   19078986.6054
      1460.7794
  -7828337.48448  -6083996.64844  20611496.7574   20611495.4254
      -855.4504
 -13184921.32848 -10263003.19544  20931602.5234   20931598.1444
      3515.2524
 -15109352.72349 -11752238.27746  19425076.1874   19425073.3904
       118.7284
 -21864610.90249 -17031411.09445  19715464.3194   19715461.6444
      3246.3714
 04  9 10 16 57 44.9950000  0  5G 1G11G23G25G20
 -18759914.54749 -14596921.93747  19074829.8124   19074827.9804
      1456.9584
  -7815415.19148  -6073927.35944  20613956.3984   20613954.4374
      -861.4864
 -13237614.03948 -10304062.43444  20921575.7024   20921572.0504
      3512.8474
 -15111026.73849 -11753542.71547  19424757.6404   19424754.6714
       111.6014
 -21913240.69549 -17069304.44146  19706210.2734   19706207.8434
      3241.9864
 04  9 10 16 57 59.9950000  0  5G 1G11G23G25G20
 -18781711.62949 -14613906.68447  19070682.2964   19070679.4254
      1453.1394
  -7802402.61348  -6063787.70344  20616432.4524   20616430.6124
      -867.5054
 -13290270.70748 -10345093.60244  20911555.5074   20911551.4994
      3510.4454
 -15112593.97749 -11754763.94946  19424459.0464   19424456.5734
       104.4834
 -21961804.48849 -17107146.34846  19696969.1014   19696965.9804
      3237.5864
 04  9 10 16 58 14.9950000  0  5G 1G11G23G25G20
 -18803452.29749 -14630847.46947  19066544.9374   19066542.5194
      1449.3784
  -7789300.89848  -6053578.59844  20618925.7414   20618923.4134
      -873.4484
 -13342891.94948 -10386097.16844  20901542.2264   20901537.8904
      3508.0834
 -15114055.61349 -11755902.88746  19424181.0464   19424177.9644
        97.4424
 -22010302.79349 -17144937.22746  19687740.2494   19687736.9914
      3233.2204
 04  9 10 16 58 29.9950000  0  5G 1G11G23G25G20
 -18825136.06649 -14647743.91847  19062418.8904   19062416.8864
      1445.5854
  -7776109.66048  -6043299.72744  20621436.1084   20621433.7654
      -879.4164
 -13395477.10248 -10427072.59044  20891535.3584   20891531.2374
      3505.6774
 -15115411.12149 -11756959.13746  19423923.2334   19423920.3904
        90.3674
 -22058734.73849 -17182676.40246  19678523.6324   19678520.8944
      3228.7964
 04  9 10 16 58 44.9950000  0  5G 1G11G23G25G20
 -18846763.14849 -14664596.19147  19058303.4054   19058301.6674
      1441.8054
  -7762829.37548  -6032951.47344  20623963.4684   20623961.0584
      -885.3524
 -13448026.29748 -10468019.98844  20881535.3744   20881531.7064
      3503.2804
 -15116660.88749 -11757932.98446  19423685.1404   19423682.8084
        83.3184
 -22107100.26249 -17220363.81646  19669320.2804   19669317.2884
      3224.3684
 04  9 10 16 58 59.9950000  0  5G 1G11G23G25G20
 -18868334.54749 -14681405.07846  19054198.2264   19054196.0854
      1438.0934
  -7749461.34448  -6022534.85544  20626507.3584   20626504.9564
      -891.2024
 -13500540.49648 -10508940.13744  20871542.5154   20871537.8394
      3500.9474
 -15117805.93049 -11758825.24246  19423467.4294   19423464.6164
        76.3364
 -22155400.05549 -17258000.01245  19660129.1164   19660126.1164
      3219.9864
 04  9 10 16 59 14.9950000  0  5G 1G11G23G25G20
 -18889849.54749 -14698170.01646  19050103.8124   19050101.8474
      1434.3334
  -7736004.98848  -6012049.39144  20629068.1714   20629065.1364
      -897.0904
 -13553018.88748 -10549832.37544  20861555.9834   20861551.9644
      3498.5594
 -15118845.88749 -11759635.60246  19423269.7964   19423266.4804
        69.3304
 -22203633.08649 -17295584.18046  19650950.4834   19650947.8514
      3215.5354
 04  9 10 16 59 29.9950000  0  5G 1G11G23G25G20
 -18911307.74249 -14714890.69946  19046020.9834   19046018.7534
      1430.5464
  -7722460.16848  -6001495.00844  20631645.6164   20631642.8904
      -902.9884
 -13605461.03148 -10590696.36344  20851576.9294   20851572.8354
      3496.1434
 -15119780.35549 -11760363.75846  19423091.4684   19423088.9374
        62.2984
 -22251798.62549 -17333115.77046  19641785.1634   19641781.9684
      3211.0364
 04  9 10 16 59 44.9950000  0  5G 1G11G23G25G20
 -18932710.53149 -14731568.19546  19041947.8584   19041945.7144
      1426.8534
  -7708828.50848  -5990872.95744  20634239.2804   20634237.3474
      -908.7774
 -13657868.13348 -10631533.03944  20841603.7024   20841599.8554
      3493.8074
 -15120610.80549 -11761010.87546  19422933.6244   19422931.1054
        55.3634
 -22299897.75049 -17370595.60946  19632632.0544   19632629.0424
      3206.6084
 04  9 10 16 59 59.9950000  0  5G 1G11G23G25G20
 -18954057.17649 -14748201.94146  19037886.0544   19037883.3354
      1423.1104
  -7695109.52748  -5980182.85944  20636850.0464   20636848.3434
      -914.5994
 -13710239.29348 -10672341.73044  20831638.0694   20831633.5154
      3491.4114
 -15121336.74249 -11761576.54346  19422795.3124   19422792.9874
        48.3964
 -22347929.43049 -17408022.89146  19623491.8984   19623488.8824
      3202.1124
 04  9 10 17  0 14.9950000  0  5G 1G11G23G25G20
 -18975348.35949 -14764792.49246  19033834.2184   19033831.9014
      1419.4124
  -7681304.20748  -5969425.50044  20639476.9524   20639474.9874
      -920.3554
 -13762575.26248 -10713122.99244  20821678.8904   20821674.4374
      3489.0654
 -15121958.94949 -11762061.38746  19422677.0544   19422674.3314
        41.4804
 -22395894.13749 -17445397.97346  19614364.0854   19614361.8314
      3197.6474
 04  9 10 17  0 29.9950000  0  5G 1G11G23G25G20
 -18996584.04349 -14781339.77746  19029793.1324   19029791.1714
      1415.7124
  -7667412.62948  -5958600.91444  20642120.8584   20642118.3124
      -926.1054
 -13814875.78548 -10753876.63344  20811726.8434   20811722.2334
      3486.7024
 -15122477.55149 -11762465.50446  19422578.4214   19422575.9524
        34.5734
 -22443791.34049 -17482720.46146  19605249.9214   19605246.9994
      3193.1474
 04  9 10 17  0 44.9950000  0  5G 1G11G23G25G20
 -19017764.14849 -14797843.75846  19025762.9294   19025760.5774
      1412.0074
  -7653435.00848  -5947709.28144  20644780.7264   20644778.0074
      -931.8414
 -13867140.81648 -10794602.60944  20801781.0544   20801776.6014
      3484.3354
 -15122892.62549 -11762788.94546  19422499.5854   19422496.7414
        27.6724
 -22491620.81249 -17519990.18446  19596148.2184   19596145.0624
      3188.6324
 04  9 10 17  0 59.9950000  0  5G 1G11G23G25G20
 -19038889.00449 -14814304.69547  19021742.6794   19021740.4994
      1408.3244
  -7639371.89148  -5936751.03144  20647456.9604   20647454.2734
      -937.5414
 -13919370.48048 -10835301.02344  20791841.4374   20791837.7374
      3481.9784
 -15123204.59849 -11763032.04746  19422440.4214   19422437.3864
        20.7984
 -22539382.44549 -17557207.03146  19587059.5934   19587056.3004
      3184.1094
 04  9 10 17  1 14.9950000  0  5G 1G11G23G25G20
 -19059958.46149 -14830722.44946  19017733.5624   19017731.4804
      1404.6304
  -7625223.41848  -5925726.25844  20650149.4764   20650146.3234
      -943.2324
 -13971564.58248 -10875971.73844  20781909.4294   20781905.7414
      3479.6074
 -15123413.52749 -11763194.85246  19422400.3984   19422397.6484
        13.9294
 -22587075.78149 -17594370.66846  19577983.8904   19577980.8744
      3179.5564
 04  9 10 17  1 29.9950000  0  5G 1G11G23G25G20
 -19080973.05549 -14847097.46146  19013734.5774   19013732.3864
      1400.9734
  -7610990.36748  -5914635.59444  20652857.5304   20652855.2884
      -948.8704
 -14023723.55148 -10916615.07044  20771983.7414   20771979.7334
      3477.2654
 -15123520.00049 -11763277.81646  19422379.8984   19422377.6204
         7.0984
 -22634701.07449 -17631481.28146  19568920.8044   19568918.2764
      3175.0204
 04  9 10 17  1 44.9950000  0  5G 1G11G23G25G20
 -19101932.71149 -14863429.66847  19009746.1554   19009743.7144
      1397.3104
  -7596672.86748  -5903479.12544  20655581.8984   20655579.7064
      -954.5004
 -14075847.19948 -10957230.90244  20762065.2804   20762060.5384
      3474.9104
 -15123523.98049 -11763280.93046  19422379.4684   19422376.4914
         0.2654
 -22682257.92249 -17668538.56246  19559871.2494   19559867.9874
      3170.4574
 04  9 10 17  1 59.9950000  0  5G 1G11G23G25G20
 -19122837.70749 -14879719.28147  19005767.9524   19005765.9214
      1393.6664
  -7582271.46948  -5892257.27744  20658322.6244   20658320.6014
      -960.0934
 -14127935.64148 -10997819.26644  20752152.9684   20752149.0624
      3472.5634
 -15123426.14149 -11763204.69946  19422397.7964   19422395.4804
        -6.5234
 -22729746.30149 -17705542.48446  19550834.3584   19550831.3474
      3165.8924
 04  9 10 17  2 14.9950000  0  5G 1G11G23G25G20
 -19143687.62549 -14895965.97746  19001800.4444   19001798.0654
      1389.9954
  -7567785.77048  -5880969.74644  20661079.4604   20661076.9444
      -965.7134
 -14179988.32448 -11038379.78144  20742247.6244   20742243.4404
      3470.1794
 -15123226.09049 -11763048.81646  19422435.9134   19422433.4954
       -13.3374
 -22777165.36749 -17742492.40646  19541811.2184   19541807.9134
      3161.2714
 04  9 10 17  2 29.9950000  0  5G 1G11G23G25G20
 -19164483.48449 -14912170.55947  18997843.1014   18997840.7534
      1386.3914
  -7553217.21547  -5869617.64544  20663851.1794   20663848.8944
      -971.2374
 -14232006.21148 -11078913.18444  20732349.0774   20732344.6834
      3467.8594
 -15122925.10949 -11762814.28946  19422493.2334   19422490.6324
       -20.0654
 -22824515.96549 -17779388.97346  19532800.2264   19532797.3514
      3156.7074
 04  9 10 17  2 44.9950000  0  5G 1G11G23G25G20
 -19185224.25849 -14928332.19946  18993895.8434   18993894.0934
      1382.7184
  -7538565.03948  -5858200.39144  20666639.8274   20666637.6754
      -976.8124
 -14283988.38748 -11119418.77044  20722457.4374   20722452.7534
      3465.4784
 -15122522.23049 -11762500.37146  19422569.8664   19422567.2224
       -26.8594
 -22871796.72349 -17816231.11745  19523803.2414   19523800.1634
      3152.0514
 04  9 10 17  2 59.9950000  0  5G 1G11G23G25G20
 -19205910.00849 -14944450.97746  18989959.6084   18989957.7534
      1379.0504
  -7523829.57848  -5846718.23044  20669443.9134   20669441.3584
      -982.3644
 -14335934.65248 -11159896.35944  20712572.1484   20712567.6554
      3463.0844
 -15122017.56649 -11762107.13346  19422665.9604   19422662.8704
       -33.6444
 -22919007.41449 -17853018.66846  19514819.2414   19514816.3824
      3147.3794
 04  9 10 17  3 14.9950000  0  5G 1G11G23G25G20
 -19226541.32449 -14960527.32446  18986033.9054   18986031.7064
      1375.4214
  -7509011.72348  -5835171.87144  20672263.6164   20672260.9604
      -987.8574
 -14387845.51648 -11200346.36744  20702694.0384   20702689.0194
      3460.7244
 -15121411.94149 -11761635.21946  19422781.2494   19422778.4294
       -40.3754
 -22966148.26649 -17889751.79346  19505848.5544   19505845.5504
      3142.7234
 04  9 10 17  3 29.9950000  0  5G 1G11G23G25G20
 -19247118.10249 -14976561.18746  18982118.3354   18982115.9524
      1371.7854
  -7494111.50848  -5823561.33244  20675099.2184   20675096.2574
      -993.3484
 -14439720.77348 -11240768.62144  20692822.5384   20692817.4524
      3458.3514
 -15120705.34449 -11761084.63346  19422915.5694   19422913.0894
       -47.1074
 -23013218.82449 -17926430.14846  19496891.7104   19496888.4564
      3138.0374
 04  9 10 17  3 44.9950000  0  5G 1G11G23G25G20
 -19267640.10949 -14992552.36746  18978213.0694   18978210.8584
      1368.1344
  -7479128.68048  -5811886.42244  20677949.8434   20677947.7694
      -998.8554
 -14491560.13748 -11281162.90244  20682957.2104   20682953.2654
      3455.9584
 -15119897.93449 -11760455.49246  19423069.3514   19423066.6054
       -53.8274
 -23060218.62949 -17963053.36746  19487947.4764   19487944.5734
      3133.3204
 04  9 10 17  3 59.9950000  0  5G 1G11G23G25G20
 -19288107.03549 -15008500.62147  18974318.1014   18974315.7454
      1364.4624
  -7464063.63747  -5800147.43044  20680816.4134   20680814.8124
     -1004.3364
 -14543363.13748 -11321528.84444  20673099.4604   20673095.5464
      3453.5334
 -15118989.36349 -11759747.52346  19423242.1014   19423239.4174
       -60.5714
 -23107146.91849 -17999620.85246  19479017.5074   19479014.6904
      3128.5534
 04  9 10 17  4 14.9950000  0  5G 1G11G23G25G20
 -19308519.14549 -15024406.18046  18970433.9684   18970431.7844
      1360.8074
  -7448916.76648  -5788344.69944  20683699.3044   20683696.9644
     -1009.7914
 -14595129.87148 -11361866.53144  20663248.6164   20663244.7654
      3451.1164
 -15117980.02049 -11758961.02746  19423434.1714   19423431.6444
       -67.2904
 -23154003.74249 -18036132.66446  19470100.9914   19470098.0194
      3123.7884
 04  9 10 17  4 29.9950000  0  5G 1G11G23G25G20
 -19328877.30149 -15040269.67646  18966560.1084   18966557.9914
      1357.2104
  -7433689.10548  -5776479.01644  20686596.9134   20686594.5854
     -1015.1774
 -14646861.16848 -11402176.60244  20653404.4684   20653400.6054
      3448.7534
 -15116870.94949 -11758096.82446  19423645.4834   19423642.6514
       -73.9384
 -23200789.63349 -18072589.19146  19461198.0934   19461195.2654
      3119.0594
 04  9 10 17  4 44.9950000  0  5G 1G11G23G25G20
 -19349180.67649 -15056090.50046  18962696.2964   18962694.2844
      1353.5584
  -7418380.05148  -5764549.90244  20689510.2104   20689507.8084
     -1020.6044
 -14698556.02048 -11442458.28544  20643567.0934   20643562.8004
      3446.3234
 -15115661.44149 -11757154.35946  19423875.6164   19423873.2064
       -80.6344
 -23247503.42649 -18108989.54346  19452308.8584   19452305.1714
      3114.2534
 04  9 10 17  4 59.9950000  0  5G 1G11G23G25G20
 -19369429.08649 -15071868.48046  18958843.3274   18958841.1554
      1349.8944
  -7402989.75448  -5752557.48844  20692439.1874   20692436.8084
     -1026.0204
 -14750214.23848 -11482711.42644  20633737.6244   20633732.9834
      3443.8814
 -15114351.49649 -11756133.62546  19424125.0464   19424122.3744
       -87.3304
 -23294144.65249 -18145333.34446  19443432.9134   19443429.6634
      3109.4154
 04  9 10 17  5 14.9950000  0  5G 1G11G23G25G20
 -19389622.85549 -15087603.88747  18955000.4294   18954998.3514
      1346.2514
  -7387518.72748  -5740502.15244  20695383.0154   20695380.3824
     -1031.4024
 -14801835.99648 -11522936.16844  20623913.6164   20623909.6904
      3441.4514
 -15112941.53549 -11755034.96946  19424393.0694   19424390.4564
       -93.9974
 -23340713.24649 -18181620.55946  19434571.1484   19434568.2574
      3104.5734
 04  9 10 17  5 29.9950000  0  5G 1G11G23G25G20
 -19409762.63349 -15103297.23847  18951168.1714   18951166.0194
      1342.6524
  -7371967.85548  -5728384.62544  20698342.4294   20698339.9174
     -1036.7254
 -14853421.96548 -11563133.00444  20614097.5464   20614093.1124
      3439.0654
 -15111432.49649 -11753859.10546  19424680.3354   19424677.4684
      -100.6034
 -23387209.60949 -18217851.49246  19425723.0624   19425720.2414
      3099.7584
 04  9 10 17  5 44.9950000  0  5G 1G11G23G25G20
 -19429846.91449 -15118947.32046  18947346.1084   18947344.0344
      1338.9524
  -7356335.88748  -5716203.87144  20701317.0934   20701314.3044
     -1042.1314
 -14904970.35548 -11603300.57044  20604288.2334   20604283.3194
      3436.5594
 -15109822.82449 -11752604.82046  19424986.7964   19424983.7334
      -107.3114
 -23433631.87549 -18254024.67646  19416889.4444   19416886.5544
      3094.8184
 04  9 10 17  5 59.9950000  0  5G 1G11G23G25G20
 -19449876.44549 -15134554.75847  18943534.6554   18943532.4054
      1335.3024
  -7340623.71548  -5703960.64544  20704306.8584   20704304.5814
     -1047.4784
 -14956482.02748 -11643439.52044  20594485.6634   20594481.0974
      3434.1114
 -15108113.58249 -11751272.95346  19425312.2104   19425309.3154
      -113.9494
 -23479980.47749 -18290140.45746  19408069.5384   19408066.7304
      3089.9074
 04  9 10 17  6 14.9950000  0  5G 1G11G23G25G20
 -19469850.92249 -15150119.29346  18939733.6324   18939731.5344
      1331.6324
  -7324831.50047  -5691655.05544  20707311.9764   20707309.7454
     -1052.8144
 -15007956.50048 -11683549.47744  20584690.1014   20584685.6984
      3431.6324
 -15106304.61349 -11749863.37946  19425656.0854   19425653.6014
      -120.5984
 -23526254.86349 -18326198.41846  19399263.7184   19399260.7924
      3084.9594
 04  9 10 17  6 29.9950000  0  5G 1G11G23G25G20
 -19489771.47749 -15165641.80146  18935942.8044   18935940.6904
      1328.0374
  -7308960.52048  -5679288.07844  20710332.4524   20710330.0114
     -1058.0654
 -15059394.76648 -11723631.20344  20574901.8514   20574897.8744
      3429.2184
 -15104397.09449 -11748377.01646  19426019.3124   19426016.9834
      -127.1684
 -23572455.72349 -18362199.08246  19390471.9054   19390469.0624
      3080.0574
 04  9 10 17  6 44.9950000  0  5G 1G11G23G25G20
 -19509636.32849 -15181120.91047  18932162.5854   18932160.9294
      1324.3234
  -7293009.35248  -5666858.62144  20713367.6164   20713365.3434
     -1063.4114
 -15110795.05548 -11763683.36744  20565120.9834   20565116.5264
      3426.6864
 -15102389.57449 -11746812.71946  19426400.9684   19426398.3744
      -133.8354
 -23618581.13349 -18398140.95346  19381694.7264   19381691.6484
      3075.0274
 04  9 10 17  6 59.9950000  0  5G 1G11G23G25G20
 -19529446.71549 -15196557.58646  18928392.7734   18928390.6244
      1320.6924
  -7276979.52048  -5654367.85544  20716418.4054   20716415.8624
     -1068.6554
 -15162158.41448 -11803706.73444  20555347.0234   20555342.1834
      3424.2244
 -15100283.37549 -11745171.53946  19426801.9444   19426799.4604
      -140.4134
 -23664631.96549 -18434024.71146  19372931.3664   19372928.4874
      3070.0554
 04  9 10 17  7 14.9950000  0  5G 1G11G23G25G20
 -19549201.88749 -15211951.22747  18924633.9524   18924631.6984
      1317.0114
  -7260870.50049  -5641815.39844  20719483.9914   20719480.8864
     -1073.9354
 -15213484.10248 -11843700.74244  20545579.3984   20545575.3154
      3421.7134
 -15098077.95749 -11743453.04346  19427221.6554   19427219.0974
      -147.0284
 -23710607.25849 -18469849.61346  19364182.6084   19364179.9014
      3065.0204
 04  9 10 17  7 29.9950000  0  5G 1G11G23G25G20
 -19568902.68049 -15227302.50446  18920884.7654   18920882.4684
      1313.3864
  -7244683.16848  -5629201.90644  20722564.2414   20722561.6754
     -1079.1554
 -15264772.71548 -11883665.87144  20535819.6244   20535814.9684
      3419.2414
 -15095774.34049 -11741658.02346  19427660.1634   19427657.6054
      -153.5744
 -23756507.32449 -18505615.89146  19355448.2884   19355445.5114
      3060.0044
 04  9 10 17  7 44.9950000  0  5G 1G11G23G25G20
 -19588548.84449 -15242611.20346  18917146.3274   18917144.0854
      1309.7444
  -7228417.70348  -5616527.54344  20725659.2574   20725657.3234
     -1084.3644
 -15316023.96148 -11923601.87944  20526066.5304   20526062.7884
      3416.7504
 -15093372.40649 -11739786.39846  19428116.8514   19428114.4994
      -160.1294
 -23802331.66049 -18541323.16446  19346728.2654   19346725.1754
      3054.9564
 04  9 10 17  7 59.9950000  0  5G 1G11G23G25G20
 -19608139.81649 -15257876.90646  18913418.3584   18913416.0624
      1306.0654
  -7212073.78948  -5603792.06244  20728769.0384   20728767.5974
     -1089.5944
 -15367237.23448 -11963508.29744  20516321.0384   20516316.9954
      3414.2184
 -15090871.71149 -11737837.81246  19428592.9444   19428590.4954
      -166.7134
 -23848079.44549 -18576970.78946  19338022.4994   19338019.6244
      3049.8524
 04  9 10 17  8 14.9950000  0  5G 1G11G23G25G20
 -19627677.15649 -15273100.81646  18909700.1014   18909698.4134
      1302.4894
  -7195653.30949  -5590996.89544  20731894.5304   20731891.8474
     -1094.6994
 -15418413.96148 -12003386.25444  20506582.4444   20506578.6754
      3411.7824
 -15088273.95749 -11735813.60246  19429087.3514   19429084.5974
      -173.1844
 -23893751.89149 -18612559.70346  19329331.5624   19329328.2534
      3044.8304
 04  9 10 17  8 29.9950000  0  6G 1G11G16G23G25G20
 -19647161.10549 -15288283.11346  18905992.6404   18905990.7024
      1298.9304
  -7179156.61348  -5578142.34844  20735033.1874   20735031.2844
     -1099.7804
   -158771.95756   -112554.73052  22527388.8194   22527387.4564

 -15469554.23848 -12043235.79744  20496850.6404   20496847.2064
      3409.3524
 -15085579.62149 -11733714.12946  19429599.7654   19429597.1834
      -179.6224
 -23939348.87949 -18648089.81246  19320654.4214   19320651.3124
      3039.7994
 04  9 10 17  8 44.9950000  0  6G 1G11G16G23G25G20
 -19666591.55549 -15303423.72746  18902295.4134   18902293.1204
      1295.3634
  -7162583.80948  -5565228.49644  20738187.5934   20738185.2654
     -1104.8544
   -222783.13346   -162433.50442  22515207.7334   22515206.9484
      4267.4124
 -15520657.93048 -12083056.83645  20487126.6244   20487121.9644
      3406.9134
 -15082788.58249 -11731539.30546  19430131.3514   19430128.3584
      -186.0694
 -23984870.03149 -18683560.83646  19311992.0694   19311989.4094
      3034.7434
 04  9 10 17  8 59.9950000  0  6G 1G11G16G23G25G20
 -19685970.42249 -15318524.15246  18898607.7494   18898605.3944
      1291.9244
  -7145937.20348  -5552257.13344  20741354.3824   20741352.4094
     -1109.7744
   -286787.62545   -212307.10242  22503028.0694   22503027.9214
      4266.9664
 -15571726.86748 -12122850.79744  20477408.0234   20477403.5894
      3404.5964
 -15079903.13349 -11729290.91046  19430680.2804   19430677.5854
      -192.3634
 -24030316.93449 -18718974.00046  19303344.0774   19303340.8194
      3029.7934
 04  9 10 17  9 14.9950000  0  6G 1G11G16G23G25G20
 -19705296.41449 -15333583.36747  18894930.1944   18894927.5584
      1288.3994
  -7129215.83648  -5539227.50444  20744536.6944   20744535.2024
     -1114.7584
   -350783.65245   -262174.10542  22490849.5304   22490849.1244
      4266.4024
 -15622759.57448 -12162616.52344  20467696.7104   20467692.2024
      3402.1804
 -15076922.08249 -11726968.02746  19431247.8194   19431244.9804
      -198.7374
 -24075688.03949 -18754328.10546  19294710.1014   19294707.4054
      3024.7404
 04  9 10 17  9 29.9950000  0  6G 1G11G16G23G25G20
 -19724571.43449 -15348602.87147  18891262.0464   18891260.0624
      1285.0014
  -7112421.71548  -5526141.20744  20747732.1794   20747730.3704
     -1119.6084
   -414772.80145   -312035.68742  22478672.2334   22478672.7264
      4265.9434
 -15673757.84048 -12202355.40244  20457992.3274   20457987.9334
      3399.8844
 -15073847.50049 -11724572.25846  19431832.5624   19431830.1164
      -204.9724
 -24120984.89549 -18789624.35546  19286090.2334   19286087.2414
      3019.7904
 04  9 10 17  9 44.9950000  0  6G 1G11G16G23G25G20
 -19743795.41449 -15363582.60247  18887604.1794   18887601.5154
      1281.5994
  -7095555.04348  -5512998.36744  20750942.0544   20750939.9094
     -1124.4454
   -478754.33645   -361891.38742  22466497.6874   22466497.4994
      4265.4364
 -15724721.53548 -12242067.35244  20448293.9134   20448289.4294
      3397.5804
 -15070679.42649 -11722103.64146  19432435.2654   19432432.6364
      -211.2054
 -24166207.07849 -18824862.42246  19277484.7734   19277481.7614
      3014.8124
 04  9 10 17  9 59.9950000  0  6G 1G11G16G23G25G20
 -19762967.50449 -15378521.89846  18883955.7884   18883953.1904
      1278.1394
  -7078615.37548  -5499798.64544  20754165.8584   20754163.3864
     -1129.3114
   -542727.11745   -411740.24242  22454323.6404   22454323.8704
      4264.8524
 -15775649.76248 -12281751.66444  20438602.7964   20438598.2574
      3395.2154
 -15067417.30149 -11719561.73446  19433056.2734   19433053.5384
      -217.4754
 -24211353.51249 -18860041.44946  19268893.8354   19268891.0074
      3009.7624
 04  9 10 17 10 14.9950000  0  6G 1G11G16G23G25G20
 -19782087.15649 -15393420.33247  18880317.3274   18880315.0854
      1274.6434
  -7061602.27048  -5486541.70744  20757403.1794   20757400.7694
     -1134.2074
   -606690.11346   -461581.50042  22442152.0154   22442152.3474
      4264.2004
 -15826541.87948 -12321407.84045  20428918.6554   20428913.7804
      3392.8084
 -15064060.63749 -11716946.16046  19433695.1084   19433692.1634
      -223.7784
 -24256423.26649 -18895160.74646  19260316.9134   19260314.6874
      3004.6504
 04  9 10 17 10 29.9950000  0  6G 1G11G16G23G25G20
 -19801156.33649 -15408279.43446  18876688.5464   18876685.8004
      1271.2794
  -7044517.97748  -5473229.29344  20760654.3124   20760652.0734
     -1138.9534
   -670644.91446   -511416.36742  22429982.1164   22429981.7734
      4263.6534
 -15877399.71148 -12361037.31644  20419240.8984   20419236.2884
      3390.5224
 -15060611.66449 -11714258.66046  19434351.0854   19434348.4254
      -229.9324
 -24301417.98449 -18930221.56246  19251755.0464   19251752.4524
      2999.6484
 04  9 10 17 10 44.9950000  0  6G 1G11G16G23G25G20
 -19820173.19149 -15423097.77046  18873069.6014   18873067.1904
      1267.7904
  -7027361.02348  -5459860.25844  20763919.1324   20763917.0194
     -1143.7974
   -734589.05546   -561242.92242  22417814.3434   22417813.6794
      4262.9434
 -15928221.34448 -12400638.56645  20409570.0304   20409565.2534
      3388.1094
 -15057068.49649 -11711497.77046  19435025.6324   19435023.1594
      -236.2114
 -24346335.52049 -18965222.23046  19243207.4994   19243204.5384
      2994.5024
 04  9 10 17 10 59.9950000  0  6G 1G11G16G23G25G20
 -19839137.52049 -15437875.17246  18869460.7804   18869458.4604
      1264.2894
  -7010131.32848  -5446434.55144  20767197.6944   20767195.6674
     -1148.6464
   -798521.99645   -611060.73442  22405647.5934   22405647.2884
      4262.1964
 -15979006.37148 -12440211.29744  20399905.8124   20399901.2184
      3385.6684
 -15053431.23049 -11708663.54346  19435717.8194   19435715.1634
      -242.4844
 -24391175.34849 -19000162.34846  19234674.8354   19234671.7064
      2989.3224
 04  9 10 17 11 14.9950000  0  6G 1G11G16G23G25G20
 -19858049.69549 -15452611.93446  18865862.2024   18865859.7224
      1260.8124
  -6992829.55948  -5432952.66844  20770490.1554   20770487.9294
     -1153.4514
   -862443.66446   -660869.81242  22393484.1324   22393483.2184
      4261.4454
 -16029755.16048 -12479755.78944  20390247.9834   20390244.1124
      3383.2534
 -15049700.44149 -11705756.44946  19436427.7334   19436424.9954
      -248.7194
 -24435937.63749 -19035042.06246  19226156.7884   19226154.3904
      2984.1534
 04  9 10 17 11 29.9950000  0  6G 1G11G16G23G25G20
 -19876909.01649 -15467307.50846  18862273.1634   18862271.0264
      1257.2884
  -6975455.44548  -5419414.41844  20773796.8274   20773794.3084
     -1158.2744
   -926353.00046   -710669.24642  22381322.1554   22381321.2734
      4260.6224
 -16080466.93048 -12519271.42644  20380598.0234   20380593.5424
      3380.7854
 -15045875.43749 -11702775.93746  19437155.5624   19437153.0114
      -255.0004
 -24480621.31249 -19069860.51646  19217653.5304   19217651.6324
      2978.9124
 04  9 10 17 11 44.9950000  0  6G 1G11G16G23G25G20
 -19895715.02749 -15481961.54746  18858694.3904   18858692.2224
      1253.7344
  -6958008.71148  -5405819.58644  20777116.3274   20777114.5344
     -1163.1164
   -990249.01646   -760458.28942  22369163.2184   22369162.4294
      4259.7344
 -16131141.10948 -12558757.77045  20370955.1244   20370950.3984
      3378.2794
 -15041956.09049 -11699721.91046  19437901.5464   19437898.7924
      -261.2904
 -24525225.58249 -19104617.07446  19209165.8354   19209163.1944
      2973.6184
 04  9 10 17 11 59.9950000  0  6G 1G11G16G23G25G20
 -19914469.64549 -15496575.53946  18855125.6164   18855123.3584
      1250.3084
  -6940491.49648  -5392169.82844  20780449.6794   20780448.3044
     -1167.8144
  -1054133.31246   -810238.23442  22357006.3744   22357005.2304
      4258.9534
 -16181779.52049 -12598216.25045  20361319.3664   20361314.1284
      3375.8944
 -15037944.50849 -11696596.01646  19438664.8584   19438661.9994
      -267.4394
 -24569752.07449 -19139313.04346  19200692.9444   19200689.8944
      2968.4334
 04  9 10 17 12 14.9950000  0  6G 1G11G16G23G25G20
 -19933172.46549 -15511149.17646  18851566.5624   18851564.6554
      1246.8554
  -6922903.61748  -5378465.03144  20783797.1714   20783794.9134
     -1172.5254
  -1118004.92246   -860008.27042  22344852.8514   22344851.2964
      4258.1074
 -16232381.65648 -12637646.47344  20351690.2024   20351685.0774
      3373.4764
 -15033840.46949 -11693398.08246  19439445.9914   19439443.2104
      -273.6034
 -24614200.03149 -19173947.81646  19192234.8904   19192231.8664
      2963.1974
 04  9 10 17 12 29.9950000  0  6G 1G11G16G23G25G20
 -19951822.76649 -15525681.87146  18848017.5694   18848015.3554
      1243.3534
  -6905244.68748  -5364704.85944  20787157.4374   20787155.7144
     -1177.2624
  -1181862.74246   -909767.58642  22332700.6714   22332698.1904
      4257.1884
 -16282946.80948 -12677047.86345  20342067.5074   20342062.7494
      3371.0104
 -15029643.32849 -11690127.58646  19440244.6404   19440241.8984
      -279.8094
 -24658568.49649 -19208520.65246  19183791.4134   19183789.2924
      2957.8984
 04  9 10 17 12 44.9950000  0  6G 1G11G16G23G25G20
 -19970419.96549 -15540173.21146  18844478.8044   18844476.5654
      1239.8134
  -6887514.47748  -5350889.13744  20790531.3664   20790528.9134
     -1182.0144
  -1245705.68746   -959515.30142  22320551.9684   22320549.9604
      4256.1964
 -16333474.19548 -12716419.83245  20332451.6084   20332447.8234
      3368.4924
 -15025352.75849 -11686784.30146  19441061.2654   19441058.6904
      -286.0384
 -24702856.50049 -19243030.77046  19175363.8584   19175361.9214
      2952.5344
 04  9 10 17 12 59.9950000  0  6G 1G11G16G23G25G20
 -19988965.14549 -15554623.99646  18840949.7414   18840947.7454
      1236.3454
  -6869714.21948  -5337018.80544  20793918.6404   20793916.0304
     -1186.6844
  -1309534.38746  -1009251.94142  22308405.7964   22308403.7964
      4255.2474
 -16383964.80548 -12755763.12945  20322843.8584   20322840.2144
      3366.0414
 -15020969.94149 -11683369.12946  19441894.8514   19441892.5034
      -292.1884
 -24747064.77749 -19277478.77746  19166951.5154   19166948.5694
      2947.2184
 04  9 10 17 13 14.9950000  0  6G 1G11G16G23G25G20
 -20007457.55549 -15569033.67247  18837430.7104   18837428.4604
      1232.8274
  -6851843.37548  -5323093.49244  20797319.3194   20797317.0344
     -1191.3904
  -1373347.60246  -1058976.45742  22296262.4764   22296260.5974
      4254.2144
 -16434417.81248 -12795077.13345  20313243.1944   20313239.0194
      3363.5344
 -15016494.38749 -11679881.70346  19442746.7734   19442744.4014
      -298.3704
 -24791192.35949 -19311863.90646  19158554.4684   19158550.9684
      2941.8394
 04  9 10 17 13 29.9940000  0  6G 1G11G16G23G25G20
 -20025897.15649 -15583402.19946  18833921.7214   18833919.6784
      1229.3074
  -6833904.60948  -5309115.25044  20800732.7754   20800731.0224
     -1195.9184
  -1437141.86746  -1108686.23042  22284122.1824   22284121.2524
      4252.9514
 -16484830.84848 -12834359.98444  20303649.9554   20303645.3774
      3360.8694
 -15011927.56249 -11676323.14546  19443615.7444   19443613.4594
      -304.4554
 -24835237.13749 -19346184.51646  19150172.8384   19150169.6394
      2936.3184
 04  9 10 17 13 44.9940000  0  6G 1G11G16G23G25G20
 -20044286.33249 -15597731.43046  18830422.4944   18830420.0804
      1225.9454
  -6815895.66848  -5295082.33644  20804159.7134   20804158.0334
     -1200.5964
  -1500925.13346  -1158387.46142  22271985.2364   22271984.0764
      4252.2184
 -16535210.61748 -12873616.93444  20294063.1904   20294058.1544
      3358.6514
 -15007269.14849 -11672693.23446  19444502.2134   19444499.6784
      -310.5614
 -24879204.67649 -19380444.92646  19141806.0494   19141803.6784
      2931.1694
 04  9 10 17 13 59.9940000  0  6G 1G11G16G23G25G20
 -20062622.32849 -15612019.22347  18826933.3544   18826931.1114
      1222.4004
  -6797816.64548  -5280994.80944  20807599.7914   20807597.9594
     -1205.2684
  -1564691.19546  -1208075.25042  22259850.1354   22259849.5224
      4251.0714
 -16585552.02049 -12912843.98045  20284483.2444   20284478.8774
      3356.0934
 -15002518.09449 -11668991.12546  19445406.4404   19445403.8114
      -316.7374
 -24923090.05549 -19414641.32046  19133454.9634   19133452.3734
      2925.6924
